GFSGBSN_sfc_thetae_003.txt.gz
Theta_e
318 318 319 319 321 321 320 320 319 318 316 317 317 317 317 317 317 317 315 314 313 314 314 315 315 316 321 314 311 320 324 327 323 320 316 314 311 309 305 306 307 304 305 306 307 307 307
317 318 318 320 320 320 319 319 317 316 317 317 317 317 317 317 316 315 314 313 312 312 313 314 314 314 319 307 318 320 319 319 319 318 314 314 311 312 308 307 306 308 308 308 308 308 308
317 318 318 320 320 319 318 317 316 317 317 317 317 317 317 316 315 315 314 313 312 312 313 313 313 319 319 311 319 320 318 318 319 319 314 316 315 311 311 307 310 309 305 307 307 308 307
317 317 317 320 319 317 317 316 315 317 317 317 317 317 316 316 315 314 313 313 313 313 312 312 313 322 311 318 321 317 318 316 319 320 318 318 317 314 312 312 308 305 306 301 306 308 308
317 316 317 319 318 317 316 315 314 316 316 316 316 316 316 316 315 315 315 315 314 313 312 311 321 323 307 317 314 316 317 313 316 318 317 316 316 311 310 305 303 304 299 299 302 307 306
316 315 316 318 317 317 316 314 314 315 315 315 315 315 315 315 315 314 314 314 315 314 315 320 321 311 311 308 312 314 317 316 315 315 313 313 312 307 306 304 297 299 298 300 300 304 305
315 314 316 318 317 316 315 315 314 314 314 315 315 315 315 315 315 314 316 323 316 315 316 310 309 308 309 313 316 313 315 314 314 312 307 309 305 303 303 304 303 301 300 299 302 304 303
314 313 315 317 316 315 315 315 314 314 314 314 315 315 315 315 315 314 324 320 320 318 307 312 312 312 313 314 308 311 317 309 309 305 307 304 301 304 305 305 303 301 300 300 302 303 303
313 312 315 316 315 314 314 315 314 314 314 314 314 314 316 314 314 320 326 324 330 326 308 308 311 310 310 313 308 309 313 309 306 302 303 302 302 304 303 303 302 301 300 300 300 303 304
312 312 314 315 314 313 313 314 314 314 313 313 314 314 314 313 315 328 323 328 332 327 304 301 305 309 311 312 306 313 314 310 306 302 304 303 305 303 303 302 303 299 302 301 300 299 297
312 312 314 313 313 313 313 313 313 313 313 313 313 314 313 313 326 319 324 334 334 328 292 303 306 315 312 308 308 309 315 310 303 303 304 300 302 302 301 301 303 301 304 302 302 300 300
311 313 314 313 313 313 313 313 312 312 313 313 313 315 313 321 332 327 331 332 330 305 290 300 306 306 306 308 307 310 310 313 311 306 306 304 307 306 304 305 304 306 303 302 303 301 294
311 313 313 313 313 313 313 312 311 312 312 313 314 316 317 329 321 334 335 324 301 296 303 299 301 305 305 303 304 307 305 305 303 298 299 302 302 306 306 303 306 305 301 295 293 293 292
313 312 313 313 313 313 312 312 311 311 312 314 315 316 323 331 334 335 328 310 297 299 300 304 304 304 301 303 303 303 303 301 305 304 301 297 295 302 305 303 300 300 301 295 286 289 292
312 312 312 312 312 312 312 311 311 311 311 313 313 332 329 333 336 334 314 303 300 300 303 302 303 300 300 302 302 303 302 301 302 304 299 297 296 304 304 306 304 300 297 301 294 292 291
312 312 311 311 312 311 311 310 310 310 311 314 321 320 321 333 336 328 313 301 302 305 305 305 299 302 298 300 300 301 300 302 301 304 305 300 296 300 302 305 305 303 303 296 297 286 283
312 311 311 311 311 311 310 309 310 310 310 314 324 312 325 334 331 315 307 304 304 307 307 304 301 300 302 300 301 300 300 302 304 303 305 302 298 298 301 300 299 301 300 297 296 294 287
311 311 310 311 311 310 308 309 309 309 310 313 321 309 326 331 310 315 307 306 303 307 309 307 307 305 303 303 301 300 300 303 306 306 300 303 299 294 295 302 304 302 299 297 292 288 292
310 310 310 311 311 308 308 308 309 309 309 326 314 314 326 326 308 311 308 305 307 306 306 306 304 306 307 303 299 302 302 306 307 305 303 303 299 292 294 299 302 298 299 298 296 294 290
310 310 310 310 310 308 308 308 309 309 309 322 316 310 315 318 315 309 306 304 303 308 306 307 306 307 305 302 305 302 302 304 306 306 301 303 299 293 290 293 296 293 295 297 296 291 292
310 310 309 308 307 307 308 308 308 308 309 322 319 312 313 307 309 309 309 307 303 301 306 308 304 305 304 299 301 300 303 303 304 300 304 303 294 297 297 297 296 295 295 295 294 295 291
310 309 308 308 308 307 308 308 308 308 308 322 313 312 314 313 311 309 303 305 303 303 305 303 303 305 304 301 299 298 300 299 299 303 302 302 295 296 292 296 295 293 295 296 296 296 296
310 309 308 308 309 307 308 309 308 308 310 321 319 318 316 302 309 307 306 305 305 307 306 307 306 304 302 303 307 308 308 306 304 302 299 299 297 293 289 295 293 289 295 295 296 297 297
309 308 308 310 310 310 310 309 307 307 309 324 320 319 314 305 308 306 306 307 305 306 304 307 307 305 308 312 310 309 307 305 305 303 305 299 296 293 289 289 284 296 300 299 297 298 299
309 309 310 310 310 309 309 308 307 307 309 322 319 318 312 296 308 305 306 307 307 307 306 306 307 311 314 309 303 295 294 291 295 300 300 303 298 290 287 288 292 295 296 296 294 294 300
308 309 309 309 309 309 308 308 307 307 308 322 318 320 317 300 306 308 307 308 305 306 306 306 310 313 313 307 299 290 291 292 292 294 299 299 300 295 289 284 283 295 299 301 301 290 301
308 308 308 308 309 308 308 308 307 307 308 320 320 321 319 313 310 311 308 307 310 308 305 307 307 307 311 300 293 293 294 297 291 289 287 289 290 289 288 286 290 298 300 302 288 292 302
307 307 307 307 308 308 308 308 307 307 307 317 320 321 320 312 310 311 311 310 310 309 306 309 306 307 306 292 293 296 292 297 294 296 293 292 290 287 290 285 283 300 299 293 300 303 302
306 306 306 307 307 307 308 308 308 307 307 309 321 319 321 318 313 316 316 316 316 314 311 311 307 307 308 303 298 298 292 290 295 291 300 292 297 294 294 294 301 303 300 305 304 302 300

GFSGBSN_sfc_thetae_006.txt.gz
Theta_e
317 318 318 319 320 321 321 321 320 318 317 316 316 318 318 317 317 317 316 316 315 314 314 314 315 316 318 314 311 319 325 328 320 321 316 314 311 310 305 306 306 304 304 305 305 305 306
318 318 318 318 320 320 320 319 317 317 316 316 317 317 317 317 317 317 316 315 314 313 313 314 314 315 317 308 318 319 319 319 319 318 314 314 311 312 307 306 305 306 305 305 306 307 306
317 317 317 318 320 319 318 318 317 316 316 317 317 317 317 316 316 316 315 314 313 312 313 314 314 317 317 312 318 319 319 317 318 318 314 316 316 310 310 306 309 307 303 305 306 307 305
317 317 317 318 319 318 317 317 316 316 316 318 318 317 317 317 315 314 314 313 313 314 314 314 313 319 312 318 319 317 317 316 317 319 317 317 317 314 311 311 306 303 304 299 305 307 308
317 316 316 318 319 317 317 316 315 315 316 317 317 317 316 316 316 314 314 314 315 315 314 313 317 320 310 317 313 316 316 313 315 317 316 316 316 309 308 303 301 303 297 300 302 307 306
316 315 315 317 318 316 317 316 314 315 316 317 317 317 316 316 315 315 315 315 316 314 315 319 321 314 311 309 313 314 317 316 313 314 312 312 310 305 305 302 294 296 298 299 299 303 303
315 314 314 317 317 316 316 315 314 315 315 316 316 317 316 315 315 314 314 319 315 314 317 310 309 308 308 311 315 313 315 313 314 311 305 308 304 301 302 303 302 301 299 298 302 304 302
315 313 313 316 316 315 315 316 315 314 315 315 315 317 316 316 315 315 318 321 318 318 306 312 312 311 313 315 307 310 316 309 308 303 306 303 300 304 305 304 302 301 299 299 302 304 302
314 312 313 316 316 314 315 315 315 315 314 315 315 315 317 314 314 317 325 323 328 327 307 308 311 309 310 313 308 308 313 309 306 304 303 301 302 305 303 303 301 301 299 300 299 303 304
314 312 313 315 315 314 314 314 314 314 314 314 315 315 315 313 315 326 322 326 330 331 302 300 305 308 311 312 306 312 313 310 306 302 304 303 305 303 302 302 302 298 304 301 300 298 294
313 311 313 314 314 314 313 313 313 314 314 314 315 316 313 312 323 319 324 330 332 329 292 303 305 315 311 308 309 308 314 311 303 303 304 301 303 303 302 301 303 301 304 301 301 299 298
312 311 313 313 314 313 313 313 312 313 313 314 315 317 313 319 329 327 331 333 329 306 292 299 306 305 305 307 307 309 308 313 312 305 306 303 307 305 304 305 304 306 304 303 302 300 294
313 312 313 314 314 313 313 312 312 312 313 315 316 316 317 330 323 334 337 324 300 296 303 299 301 305 304 303 305 306 305 304 302 298 299 303 303 306 306 303 306 304 301 295 293 294 292
313 313 312 314 314 313 313 312 311 311 313 315 316 315 325 331 333 338 330 309 296 300 300 305 304 304 301 303 303 304 304 300 304 304 300 297 294 302 305 302 299 301 299 295 286 288 291
313 313 312 312 313 313 312 311 311 311 312 316 314 334 332 335 338 337 316 302 301 300 304 302 303 300 299 302 303 303 302 300 301 304 298 297 296 304 303 304 303 300 296 300 295 292 290
313 313 311 312 312 312 311 310 310 311 312 317 322 321 320 335 338 328 312 302 304 306 305 304 298 302 298 300 300 302 300 303 301 304 305 299 295 300 302 305 305 302 302 295 297 287 283
312 312 310 312 312 311 309 309 310 310 312 315 327 311 327 335 333 313 306 307 304 307 308 303 302 300 302 299 301 300 300 303 305 304 305 302 299 297 301 299 298 300 298 298 296 294 287
311 311 310 312 312 309 309 309 310 310 310 316 326 306 329 336 307 309 308 306 304 306 309 308 307 304 302 302 301 301 300 303 306 306 300 301 299 296 296 301 303 301 299 297 293 289 293
310 310 311 311 311 307 309 309 309 309 310 324 313 315 327 328 306 313 308 306 307 305 306 306 304 306 307 303 299 302 303 306 307 305 302 302 299 294 294 299 301 297 299 298 298 295 289
310 310 310 309 309 307 309 309 309 309 310 319 317 309 313 315 317 310 306 304 304 309 307 308 306 307 305 303 305 301 302 305 307 305 302 303 299 294 290 292 296 293 295 297 295 291 291
310 310 310 309 306 307 308 309 309 309 310 319 318 311 311 305 309 309 309 306 304 302 307 308 305 305 304 300 301 301 303 302 304 301 303 303 295 297 296 296 296 295 294 295 293 294 290
310 309 308 309 307 306 309 309 308 308 308 320 314 312 314 311 312 308 304 305 304 304 305 303 303 305 306 302 301 299 301 300 300 303 302 303 297 296 293 296 295 293 294 295 295 295 295
310 309 308 309 308 308 310 309 308 308 312 321 320 321 316 305 309 308 307 306 305 307 307 308 307 305 302 304 307 307 307 306 304 302 301 300 299 294 290 293 292 289 294 295 296 297 296
309 308 308 310 311 311 310 308 307 308 309 326 323 320 316 307 309 306 308 308 306 307 304 307 308 305 307 311 310 308 307 305 305 303 305 298 296 293 289 289 285 295 300 299 296 297 299
309 308 310 311 310 310 309 308 307 307 309 324 322 321 313 295 309 308 307 307 308 308 306 307 308 310 313 309 303 294 294 292 296 301 301 303 298 288 287 287 291 294 297 296 294 293 299
309 310 310 310 309 309 309 308 308 307 308 325 321 323 320 302 309 309 307 308 306 307 306 306 312 315 312 308 298 288 291 294 292 294 300 301 301 296 287 284 282 295 299 302 300 289 302
308 309 309 309 309 309 308 308 308 307 308 319 322 325 322 315 312 312 309 308 311 309 305 307 307 308 312 298 290 295 295 297 291 289 288 289 291 288 288 285 289 298 300 302 288 291 302
307 308 308 308 309 310 308 308 308 307 307 315 322 323 321 314 312 314 313 312 311 311 306 309 306 309 307 291 293 297 292 297 296 296 292 289 288 286 289 285 283 301 299 293 300 304 302
306 307 307 307 308 308 309 308 308 308 307 309 321 321 324 319 314 319 317 318 316 315 313 313 307 307 308 302 299 300 291 290 293 292 299 293 297 295 294 293 302 304 302 304 304 303 301

GFSGBSN_sfc_thetae_009.txt.gz
Theta_e
318 318 319 319 319 320 319 319 318 317 316 316 315 316 316 318 317 317 316 315 315 315 314 313 314 315 313 312 310 315 331 329 322 317 314 313 308 303 300 300 300 298 298 300 301 301 301
317 318 319 319 319 319 319 318 316 316 315 315 315 316 317 318 318 316 316 315 314 313 312 313 314 314 312 305 316 316 314 319 315 314 314 313 308 308 304 300 298 301 300 298 299 300 301
317 319 318 318 318 318 318 316 316 315 315 316 316 317 317 317 316 315 315 315 314 312 312 314 314 314 314 313 313 311 314 311 311 311 310 311 310 306 304 301 305 302 297 299 299 301 300
317 318 318 317 318 317 316 316 315 315 316 315 318 317 316 316 315 315 314 314 313 312 313 313 313 313 309 318 310 311 311 311 312 313 313 312 312 307 305 303 302 297 297 292 299 301 301
317 317 318 317 317 317 316 315 315 314 315 316 317 317 316 315 315 314 313 313 313 314 314 313 310 313 307 315 310 311 310 309 312 313 311 313 309 304 302 295 293 295 289 294 296 302 301
317 317 317 316 317 316 315 316 315 314 315 316 316 316 316 315 315 314 313 315 316 314 314 316 317 308 314 307 310 310 310 311 310 311 309 306 303 298 296 294 288 291 293 292 293 295 296
317 317 316 316 317 316 315 315 315 315 315 316 316 316 315 315 315 314 311 310 309 307 313 306 308 310 305 306 309 308 311 309 309 307 299 303 297 292 295 298 298 298 295 294 294 299 297
317 316 315 316 317 315 315 316 315 315 315 316 316 316 315 315 315 314 311 315 313 312 303 314 309 308 312 311 305 307 311 305 305 299 302 297 294 299 302 302 300 298 296 295 297 300 295
316 315 314 315 316 315 315 315 315 315 315 315 315 316 315 314 314 311 314 319 323 321 301 307 309 308 309 311 305 304 308 306 302 299 299 296 299 303 302 300 298 297 295 295 295 298 296
315 314 313 315 315 314 314 315 314 314 314 314 314 314 314 312 311 319 317 321 325 323 294 299 304 307 310 309 304 308 309 306 303 299 300 298 303 302 300 299 298 295 301 299 297 293 288
315 312 313 314 314 314 313 313 313 313 314 314 314 315 312 315 313 316 319 324 323 317 282 302 304 313 308 306 305 306 310 308 300 299 300 297 299 299 298 299 300 298 302 299 297 293 291
314 313 314 314 314 313 313 313 312 313 313 314 314 316 312 313 313 322 327 326 314 297 283 299 304 304 303 305 305 306 306 309 308 302 301 299 303 301 299 303 302 302 300 299 297 294 285
312 312 314 314 313 313 313 312 311 312 313 314 314 315 313 323 317 327 327 314 293 287 303 297 300 303 301 301 302 303 302 300 297 293 293 299 299 301 303 299 302 299 295 285 283 282 282
312 313 313 313 313 312 312 311 311 311 312 313 315 315 321 329 330 328 321 303 288 299 298 303 302 302 299 301 301 302 299 295 299 299 295 292 289 298 302 298 295 296 295 283 281 280 283
312 313 312 312 312 312 311 310 310 311 311 313 314 320 323 326 330 324 310 292 295 299 301 300 301 298 297 301 300 300 296 295 297 298 293 293 292 300 300 301 299 297 290 295 288 285 281
312 312 311 311 311 311 310 309 310 310 311 313 315 317 316 327 328 319 304 297 303 304 303 302 296 299 294 296 297 297 297 300 300 301 300 296 291 297 300 301 302 297 298 288 287 279 279
312 312 311 311 311 310 309 310 310 310 311 313 316 304 318 328 322 306 296 302 303 306 307 303 300 298 300 297 298 298 297 300 302 301 300 298 295 293 299 295 294 295 294 293 292 286 279
311 311 310 311 311 308 309 310 309 309 311 313 312 300 321 323 299 302 299 306 302 304 308 306 305 302 300 300 299 299 298 300 304 303 297 298 294 285 293 299 300 297 295 294 282 284 282
310 310 310 311 309 306 309 309 309 309 310 316 307 309 320 321 292 292 305 305 306 303 304 304 303 305 304 300 295 300 300 304 305 301 297 298 292 283 289 295 298 294 296 297 294 286 283
310 309 310 309 306 307 308 309 309 309 309 314 311 297 307 309 309 305 304 301 302 307 305 306 304 305 302 299 302 298 299 304 304 301 301 301 295 288 283 288 292 289 292 293 292 281 283
309 309 309 308 305 306 308 309 308 309 309 316 313 303 303 294 300 304 304 303 301 301 305 306 302 303 300 294 298 297 300 300 303 300 301 298 290 292 293 293 293 292 291 291 290 290 283
309 309 308 309 305 307 309 308 308 308 307 313 310 307 306 302 302 303 302 301 301 303 303 301 300 303 302 297 298 296 299 298 298 299 298 300 287 287 286 293 292 289 291 291 291 292 291
309 308 308 309 307 310 309 308 308 308 310 313 313 313 310 302 301 298 300 302 304 304 304 306 303 300 296 300 302 302 302 301 301 298 296 295 287 283 282 289 287 281 288 293 293 294 292
309 308 308 309 310 310 309 308 307 307 309 318 315 314 302 293 300 302 306 305 303 303 300 305 305 298 303 305 302 299 298 299 301 299 301 290 287 284 278 280 273 292 297 296 293 294 294
308 308 310 310 309 309 308 308 307 307 309 316 315 315 301 288 303 304 304 304 303 305 303 303 305 305 306 304 290 286 285 284 290 298 298 299 287 279 279 278 284 291 295 293 290 289 298
308 309 309 309 309 308 308 308 308 307 308 317 314 315 309 295 297 309 302 303 298 298 299 302 308 309 308 291 284 281 280 286 286 292 296 297 290 282 280 273 271 287 296 299 297 282 298
308 309 309 309 308 308 307 308 308 307 308 315 314 316 315 300 305 307 301 300 305 301 297 301 301 299 304 287 286 284 283 293 284 283 280 281 280 277 282 272 282 294 298 299 282 284 297
307 308 308 308 309 308 307 307 307 307 307 314 314 315 314 302 305 310 311 305 305 303 293 300 296 296 289 286 284 284 283 285 286 291 286 282 279 281 282 276 276 298 296 287 292 298 298
307 307 307 307 308 308 307 307 307 308 308 309 313 316 318 311 307 313 311 311 309 309 305 302 297 302 299 291 287 289 284 288 284 281 295 285 288 284 286 284 294 298 296 299 300 298 296

GFSGBSN_sfc_thetae_012.txt.gz
Theta_e
319 319 318 319 319 319 319 318 318 317 316 316 315 315 316 316 317 316 315 315 315 315 314 313 313 314 311 310 307 315 327 329 325 316 311 309 307 304 299 298 298 295 296 298 299 300 297
319 318 318 319 319 318 318 318 318 316 315 315 314 314 315 316 318 318 315 315 314 314 312 312 313 314 309 302 315 312 317 320 314 312 312 311 308 306 302 300 297 298 297 297 298 298 299
318 318 318 318 318 318 317 316 316 315 315 314 314 315 316 317 317 316 315 314 314 313 311 313 313 312 311 309 315 312 310 310 311 312 308 309 310 304 303 299 300 298 293 295 295 297 296
318 317 318 318 317 317 316 316 315 315 314 314 314 316 316 316 315 314 314 313 313 312 312 313 313 311 305 317 312 309 308 309 312 312 311 310 310 306 301 300 300 296 294 290 295 298 299
318 318 318 318 316 316 316 315 315 315 314 314 316 316 315 315 314 313 313 312 312 312 313 313 309 310 300 318 308 310 308 307 310 311 310 310 308 301 300 293 291 293 287 290 293 299 297
317 318 318 317 316 316 315 315 314 314 313 315 315 315 315 315 314 314 312 313 315 314 313 315 315 305 311 309 308 307 307 309 308 308 306 304 300 296 295 291 286 289 290 289 291 294 295
318 318 318 316 316 316 315 315 315 314 314 315 315 315 315 315 314 313 311 308 305 303 310 301 304 307 307 305 307 305 308 307 307 304 297 301 295 291 293 295 296 297 292 291 291 296 295
317 317 317 315 316 317 316 316 315 314 315 315 314 315 314 314 314 313 309 313 310 309 299 311 311 308 309 305 303 304 310 303 303 297 300 296 292 297 300 300 298 297 294 292 296 299 294
316 316 315 314 316 317 316 316 315 314 314 314 314 314 314 314 313 311 309 313 320 318 300 304 308 306 307 308 303 302 305 304 300 297 297 293 296 301 300 297 297 296 293 292 293 295 294
315 314 313 314 315 316 314 314 314 314 314 313 313 313 312 313 309 313 311 317 318 314 291 297 302 304 307 307 301 306 306 304 302 297 297 296 301 300 298 296 296 293 298 297 295 291 286
314 313 312 313 314 313 313 313 313 313 313 313 312 313 312 313 309 314 317 323 320 312 280 299 302 310 306 304 303 303 307 306 298 298 298 295 297 297 296 296 298 296 299 296 295 291 289
313 313 311 313 313 313 312 312 312 312 312 312 312 313 311 311 310 315 324 321 308 294 281 297 302 301 300 302 302 303 303 307 305 300 298 297 301 298 297 300 300 300 298 297 295 292 283
313 312 312 312 313 312 312 311 311 311 312 312 312 313 311 320 315 323 322 305 292 284 300 295 297 301 299 298 300 301 299 297 294 291 292 296 297 299 301 297 299 297 293 283 283 282 281
312 311 312 312 312 312 311 310 310 310 311 311 312 312 314 321 326 322 311 299 287 296 296 300 300 300 296 299 298 300 297 293 297 297 293 290 288 295 299 296 293 295 292 282 281 279 282
312 312 312 312 312 311 311 310 310 310 311 311 312 313 320 321 325 317 304 290 292 297 299 298 299 295 295 298 298 297 294 293 296 296 292 290 291 298 298 298 298 295 288 294 286 283 280
312 312 311 311 311 310 309 309 309 310 311 312 311 312 309 321 321 311 301 294 300 302 301 300 294 297 292 295 295 295 295 298 298 299 298 295 288 296 297 300 299 294 296 288 285 278 278
311 312 310 311 310 309 309 309 309 310 311 311 312 301 307 323 311 302 293 297 302 304 306 299 298 296 297 294 296 295 295 298 300 299 298 296 292 291 297 293 292 293 291 291 290 283 278
310 310 309 310 309 308 309 309 309 310 311 311 308 297 315 309 293 297 296 304 302 302 305 304 303 301 297 298 297 296 296 298 302 301 294 296 291 283 291 296 297 295 293 291 280 283 281
310 309 309 310 306 307 309 309 309 309 310 310 304 305 316 306 287 288 300 303 303 301 302 301 301 302 302 298 294 298 298 302 301 299 296 295 289 282 288 293 295 292 294 295 290 283 281
309 309 309 308 305 306 308 309 309 309 309 312 306 295 302 306 301 298 299 299 300 304 303 303 302 303 300 297 300 296 297 301 301 298 300 299 293 287 283 287 290 287 290 293 289 280 282
308 308 308 305 306 306 309 308 308 309 308 310 308 299 299 291 295 300 302 301 299 298 303 303 300 301 298 293 296 295 298 298 300 299 299 296 288 290 290 291 291 289 289 289 288 288 283
308 308 308 304 306 308 308 307 307 308 309 309 306 304 301 295 299 300 300 299 299 300 300 299 298 301 299 295 296 294 296 295 294 297 296 297 286 286 286 291 291 287 289 289 289 290 289
308 308 308 305 307 309 308 307 307 308 310 310 313 309 303 297 295 296 297 300 301 302 302 303 301 297 294 298 299 299 299 300 299 296 295 291 285 282 280 286 286 280 287 290 290 291 290
308 308 308 309 309 309 308 307 307 308 312 319 315 310 299 291 296 298 303 303 301 301 299 302 301 297 302 304 299 297 295 297 299 298 297 288 285 280 276 278 271 288 294 294 292 292 294
307 308 309 309 308 308 307 307 306 307 308 312 311 309 298 287 299 301 302 301 302 302 300 301 302 303 303 298 287 285 284 285 289 296 297 294 283 279 274 277 281 288 293 291 289 288 295
307 308 308 308 307 307 307 307 307 307 309 311 310 312 302 293 295 305 300 301 296 295 297 300 306 307 301 287 283 280 279 283 285 290 294 293 286 280 280 272 270 283 294 297 295 283 296
307 308 308 307 307 306 307 307 307 307 308 312 310 313 309 298 302 304 298 299 301 297 295 298 299 298 297 282 284 281 282 290 283 282 280 280 278 277 272 270 279 289 295 297 282 283 296
307 307 307 307 306 306 306 306 307 307 307 312 309 313 309 299 302 308 308 302 302 299 292 298 295 293 288 283 280 284 283 284 284 288 285 282 279 277 276 271 275 294 295 287 290 295 297
307 306 307 307 307 306 306 306 307 307 307 312 308 314 314 305 304 309 309 308 308 306 302 299 296 296 294 288 287 288 284 287 282 281 292 284 286 283 285 284 292 295 295 296 298 296 295

GFSGBSN_sfc_thetae_015.txt.gz
Theta_e
321 321 320 319 319 319 319 319 318 317 317 316 315 315 315 315 316 316 316 315 315 314 314 313 312 313 309 307 305 311 330 329 317 312 307 305 304 303 298 298 298 295 294 296 298 298 295
321 320 319 318 318 318 318 318 317 317 316 315 314 314 314 314 315 316 316 314 314 313 313 312 312 313 306 298 310 312 319 315 314 310 308 307 305 307 302 299 295 297 294 294 297 298 296
321 319 318 318 318 318 318 316 316 315 315 315 314 313 314 314 315 316 315 314 313 313 311 311 313 312 310 303 311 310 314 314 311 310 307 310 310 305 301 297 299 297 292 293 293 294 295
320 319 318 317 318 317 316 316 315 315 315 314 314 313 314 316 315 314 313 313 313 312 311 312 313 311 302 313 313 312 306 307 309 311 309 309 308 305 300 299 297 293 292 288 294 296 295
319 318 318 318 317 316 316 316 315 314 315 314 313 314 315 315 314 313 312 312 311 311 312 312 307 308 299 314 308 308 306 305 307 309 308 309 306 299 298 292 289 290 286 289 292 296 294
319 318 318 318 317 316 316 316 314 314 314 313 314 315 315 314 314 313 311 311 313 312 312 314 313 302 306 303 307 306 306 307 306 307 305 303 299 295 293 289 284 286 288 286 289 291 294
319 318 318 318 317 316 317 316 314 313 314 315 315 315 315 314 314 313 311 308 303 303 308 298 300 303 307 308 305 304 306 306 305 302 296 299 294 290 291 293 294 293 290 289 289 294 294
318 317 318 318 317 316 317 316 315 315 314 314 314 314 314 314 314 313 308 310 307 311 300 308 310 308 310 307 300 302 307 301 300 295 298 295 291 295 299 298 297 295 291 290 293 296 294
316 316 317 317 316 316 317 316 315 314 314 314 313 314 314 313 313 309 307 309 317 314 302 302 307 305 305 306 300 300 304 302 298 295 295 292 294 300 298 296 296 294 291 290 292 293 294
315 315 315 316 315 316 316 315 315 314 313 313 313 313 312 312 308 310 308 314 317 308 290 295 299 302 305 305 299 304 304 302 299 294 296 296 300 298 296 294 295 291 296 295 293 289 286
315 314 314 314 313 314 313 313 313 313 313 313 312 313 311 312 308 312 316 322 317 308 279 297 300 308 304 302 300 300 306 303 296 296 297 294 295 296 294 294 296 294 297 294 293 289 288
314 314 313 312 312 312 312 312 312 312 312 312 312 312 311 310 307 312 319 313 306 292 280 295 300 298 298 300 300 301 303 305 302 298 297 296 298 297 295 298 297 298 296 295 293 290 282
313 313 313 312 312 312 312 312 311 311 311 312 312 312 311 316 314 320 316 303 290 284 297 293 295 298 297 296 298 298 297 295 293 290 290 294 295 297 299 295 297 296 291 282 282 281 281
313 312 312 311 312 312 312 311 310 310 311 311 311 311 311 313 322 318 306 295 286 294 294 297 298 297 295 297 297 297 295 292 295 295 291 288 286 293 297 294 291 292 291 282 281 278 281
312 312 311 311 312 312 311 310 310 310 310 311 311 309 316 319 321 312 301 287 290 295 297 297 297 294 293 296 296 295 292 291 294 294 291 289 289 296 296 296 296 292 287 292 284 282 280
312 311 311 311 311 311 310 308 310 310 310 311 310 308 307 318 315 309 298 293 298 301 299 298 292 295 291 293 293 293 293 296 296 297 297 294 287 294 296 298 297 293 295 286 283 277 278
311 311 311 310 310 310 309 309 309 310 311 311 308 298 303 317 306 300 290 295 302 302 303 297 295 294 294 293 294 293 293 296 299 298 297 294 290 289 294 291 290 291 289 288 288 282 277
310 310 310 310 310 309 309 309 309 310 310 310 303 292 310 304 293 294 294 301 302 300 303 302 301 298 295 296 295 294 294 296 300 299 292 294 289 283 288 295 296 293 290 288 280 282 280
310 309 309 310 308 308 309 309 309 310 311 309 300 305 314 302 286 287 296 302 301 299 300 300 299 300 300 297 293 296 296 300 298 297 294 293 288 282 287 291 293 290 292 291 287 282 281
309 309 309 309 306 307 308 309 309 309 310 310 301 295 300 303 296 294 295 297 297 302 301 301 299 301 298 296 298 294 295 299 297 296 299 298 291 285 282 285 288 285 289 290 287 279 281
308 308 308 306 305 306 308 308 309 309 309 310 304 296 299 292 295 299 298 298 297 296 301 301 298 299 296 292 293 293 296 296 297 298 297 294 287 288 288 289 289 287 287 289 288 287 283
308 308 306 305 306 307 308 308 308 308 308 307 304 299 298 292 297 298 297 298 297 298 299 297 296 298 297 294 295 293 295 292 291 296 294 294 284 285 285 289 289 285 287 287 287 287 288
308 307 304 304 307 309 308 307 307 308 310 304 306 307 301 294 294 295 295 299 299 300 300 301 299 296 292 296 298 297 297 298 297 294 292 289 284 281 278 284 284 278 285 289 289 289 289
307 308 306 307 308 309 307 306 307 308 310 312 311 305 297 289 291 295 300 300 300 300 298 300 300 296 299 300 297 296 294 296 297 296 295 286 282 278 276 277 271 285 291 292 290 290 292
307 308 309 309 308 307 307 306 306 308 311 313 312 305 297 286 296 298 300 299 300 300 299 299 301 301 302 294 287 286 283 285 288 294 293 292 282 279 274 276 281 285 291 289 288 287 293
307 308 308 307 307 306 306 306 306 308 311 314 312 306 300 295 296 302 299 299 294 293 295 298 304 303 297 285 282 278 278 282 284 288 293 289 284 279 277 271 270 283 291 295 293 282 294
307 307 307 307 307 306 306 306 306 307 311 311 309 309 305 296 301 302 297 297 298 295 293 297 298 295 295 280 277 278 282 287 282 281 279 279 276 275 269 270 279 287 294 295 282 283 294
306 306 306 306 307 306 306 306 306 307 309 310 309 310 306 297 301 306 305 301 300 298 291 296 294 292 285 282 279 280 279 283 283 286 285 283 280 276 277 272 276 292 292 287 290 291 296
306 306 306 305 305 307 305 306 306 307 308 310 308 312 310 303 303 307 307 307 306 304 300 296 296 294 293 286 282 285 283 286 282 280 289 282 285 283 284 284 290 293 293 294 295 295 295

GFSGBSN_sfc_thetae_018.txt.gz
Theta_e
323 322 321 320 320 319 318 319 318 316 316 316 315 315 315 315 315 316 316 315 314 314 314 314 313 312 307 305 304 315 329 329 316 308 305 303 301 300 297 298 297 295 297 296 296 297 294
322 322 321 320 319 318 318 318 318 316 316 315 315 314 314 315 315 315 315 315 314 313 313 312 311 312 304 297 307 317 320 313 310 307 305 305 304 305 302 298 296 298 295 294 296 294 293
323 322 320 319 318 318 318 318 317 316 316 314 314 314 313 314 314 315 315 315 313 313 312 311 311 310 307 304 309 310 315 310 310 309 306 307 306 303 302 298 299 296 292 293 294 293 293
322 321 320 318 317 317 317 317 316 315 315 314 314 313 313 314 314 314 314 313 312 312 311 311 313 308 302 311 311 312 306 304 310 310 308 308 310 306 302 299 296 293 291 287 292 294 293
321 321 320 318 317 317 316 316 316 315 314 314 314 313 313 314 314 313 313 312 312 311 311 312 306 307 300 312 308 307 305 304 306 308 308 308 306 299 297 292 289 290 285 287 290 294 293
321 320 319 318 317 317 317 316 315 314 313 313 312 312 314 314 314 313 311 311 311 312 311 313 312 301 304 300 308 305 306 306 305 306 304 302 298 294 293 289 284 285 286 285 287 291 293
321 320 319 318 317 317 317 316 316 314 313 313 315 315 314 314 314 312 310 307 302 301 306 298 299 298 303 306 304 302 304 304 303 302 295 298 293 290 291 292 291 291 289 287 287 292 293
319 319 318 318 317 317 317 316 316 315 315 315 314 314 314 314 314 312 306 306 304 310 301 307 307 306 309 307 299 301 305 300 299 294 296 294 290 294 297 296 294 292 290 288 291 294 294
318 317 317 318 317 317 317 316 316 315 314 313 313 313 314 313 313 312 307 307 315 312 301 301 306 303 304 305 299 299 302 300 296 294 293 291 293 298 296 294 294 292 290 289 289 293 293
317 316 316 317 317 317 315 316 316 315 313 313 313 313 312 312 308 307 306 311 318 308 290 294 298 301 304 302 297 302 303 300 297 293 295 295 298 296 294 293 293 289 294 293 291 289 285
316 315 315 315 315 314 313 314 314 314 313 312 312 312 311 312 306 310 314 321 315 305 278 294 298 306 302 300 298 298 304 300 294 294 295 292 294 294 293 293 295 292 296 293 291 288 286
316 315 314 314 314 313 312 313 312 312 312 312 312 312 311 309 306 311 317 308 304 291 280 293 298 296 297 298 298 299 301 303 300 297 296 294 296 295 293 296 296 296 295 293 291 288 282
315 314 314 313 312 312 312 312 312 311 311 312 312 312 311 313 312 318 311 301 289 283 295 291 293 296 295 295 297 297 295 294 292 289 289 293 293 295 297 294 295 294 290 282 281 280 280
314 313 313 312 312 311 312 312 311 310 310 311 311 311 310 312 315 315 302 293 283 292 291 295 295 295 293 295 295 295 293 291 294 293 289 286 284 292 296 293 290 290 290 282 281 278 280
314 313 312 312 311 311 312 311 311 310 310 311 310 307 310 317 314 308 297 285 288 292 295 295 295 292 291 294 294 293 291 290 292 293 290 287 287 294 294 295 295 290 286 290 284 281 279
314 312 311 311 310 311 311 311 310 310 310 310 308 309 308 315 312 306 293 289 295 300 297 296 290 293 289 291 291 291 291 294 294 296 295 292 286 292 294 296 296 292 294 285 282 277 277
313 312 311 310 310 310 310 310 309 310 310 311 304 298 303 313 304 298 288 291 300 303 300 296 293 292 292 291 292 291 291 295 297 297 296 292 289 288 292 290 288 290 287 287 286 281 276
311 310 310 310 310 310 310 309 310 309 309 309 298 292 307 302 293 292 293 299 302 298 301 300 298 296 293 294 293 292 292 294 297 298 291 293 289 283 287 293 294 291 288 287 279 280 279
311 310 309 309 310 309 309 309 309 309 311 307 299 304 312 301 286 285 294 299 300 297 298 298 297 298 298 295 291 294 294 298 296 295 293 293 287 282 285 289 291 289 290 288 285 282 281
309 309 309 309 310 308 309 309 309 309 311 307 302 295 300 299 294 293 293 295 295 300 299 299 298 299 296 294 296 293 293 297 296 295 299 296 288 285 281 284 287 285 289 288 286 278 280
309 309 308 309 307 306 307 309 309 309 310 309 299 296 299 292 294 292 295 296 295 294 299 299 296 297 295 291 292 291 294 294 295 298 296 292 286 286 286 288 287 285 286 288 286 285 282
308 308 307 307 306 305 308 308 308 308 309 305 302 296 294 293 298 297 294 296 296 296 297 295 295 296 295 293 293 292 293 291 289 294 292 292 284 284 285 287 287 285 286 286 287 286 286
308 306 305 305 305 307 308 308 308 308 308 303 304 303 298 291 293 294 294 297 298 298 298 299 298 295 292 295 296 295 295 295 295 293 290 287 284 280 277 283 281 278 284 286 286 287 287
307 305 305 305 307 308 307 307 307 308 309 308 307 304 296 287 290 295 298 299 298 297 297 298 298 294 296 298 296 295 293 295 296 294 293 285 282 277 275 276 271 284 289 289 288 289 289
306 305 306 308 308 307 306 306 307 307 309 309 308 304 296 283 290 294 298 298 298 299 297 298 299 299 299 293 288 287 283 286 287 291 289 289 281 277 274 275 280 284 287 288 287 287 292
306 308 308 307 307 306 306 306 306 307 309 311 308 304 301 293 293 299 297 297 293 292 293 296 301 300 295 283 282 279 279 284 283 287 291 287 283 279 272 271 270 283 288 292 291 282 291
307 307 307 307 306 306 306 306 307 308 310 312 307 307 303 296 299 300 296 296 297 294 292 295 297 294 293 280 276 277 279 285 281 280 280 279 278 274 268 270 278 286 292 293 282 284 292
306 306 306 306 306 306 305 306 307 309 309 313 308 309 304 296 300 304 303 298 298 296 291 295 293 292 285 283 280 279 277 283 283 285 284 283 280 275 275 269 276 290 292 286 290 290 293
305 305 306 306 305 303 302 304 306 308 309 313 310 311 308 303 301 306 306 306 304 301 298 295 296 293 293 285 279 280 282 282 281 279 287 282 285 281 283 283 289 291 292 293 293 293 294

GFSGBSN_sfc_thetae_021.txt.gz
Theta_e
324 324 322 322 321 320 320 319 319 318 316 315 316 316 316 315 315 315 314 315 315 314 314 313 313 312 309 306 306 319 328 327 320 309 308 306 304 303 301 302 301 299 300 299 300 301 304
323 323 322 321 321 320 320 319 318 318 317 315 315 314 315 314 314 314 314 314 315 314 313 312 311 311 305 299 311 321 320 316 312 309 307 307 305 306 304 301 300 302 299 298 298 298 299
324 323 322 320 320 319 319 317 317 317 317 315 315 314 314 313 314 314 314 314 314 313 312 311 311 310 307 305 312 318 316 314 311 310 307 308 309 307 306 301 302 298 297 298 298 299 299
323 323 322 320 319 318 317 316 317 317 316 315 315 314 313 313 313 314 313 313 313 313 311 310 312 309 304 314 315 312 312 310 312 312 310 312 310 307 305 303 299 296 296 293 297 299 298
323 322 321 320 318 317 316 316 316 317 316 315 314 313 312 312 313 313 313 312 312 311 310 312 308 307 303 314 309 311 308 307 309 310 311 311 311 305 301 297 295 295 291 292 295 299 299
323 322 321 320 318 317 317 316 316 315 315 314 313 313 312 313 313 313 311 311 311 311 311 312 311 304 306 304 310 307 311 310 309 307 306 305 302 299 296 295 290 292 291 292 293 297 300
318 322 321 319 318 318 318 317 316 315 314 314 313 314 314 314 314 312 309 308 305 304 307 302 302 301 302 308 308 306 309 310 310 306 300 301 298 295 297 296 295 294 293 293 294 297 299
315 321 320 319 318 318 318 317 316 315 314 314 315 314 314 314 313 311 310 305 306 311 306 308 307 307 308 309 303 305 311 306 306 299 300 299 296 298 300 299 297 295 294 293 295 298 299
314 315 319 319 318 318 317 317 316 314 315 314 314 313 314 313 313 310 307 309 315 317 306 303 307 305 305 307 301 303 308 305 300 298 297 296 298 300 299 297 297 295 295 294 294 297 299
313 312 317 318 318 317 317 316 315 315 315 313 312 313 312 312 308 308 307 314 314 315 294 296 300 304 305 305 301 306 307 305 301 297 299 298 300 298 297 296 297 294 298 296 295 295 292
313 311 314 316 316 315 315 315 314 315 314 313 312 312 311 312 308 309 315 322 316 309 283 297 300 308 305 302 301 302 307 304 298 297 299 297 298 297 297 297 299 296 298 297 294 293 293
312 312 312 316 315 314 314 313 313 313 313 312 312 312 311 311 308 311 317 313 309 294 285 295 301 299 300 301 301 303 304 306 304 299 299 297 301 299 299 299 299 300 298 297 295 294 288
310 311 311 315 314 313 313 312 312 312 312 312 312 312 311 312 310 321 314 305 292 287 297 294 296 299 298 298 299 299 298 298 296 294 293 296 296 299 300 298 299 299 296 289 288 288 286
309 311 310 314 313 313 312 312 311 311 311 311 311 310 310 312 314 313 305 297 288 293 293 297 297 297 295 298 297 297 296 294 297 296 293 290 289 295 299 298 295 295 296 291 283 284 287
309 311 311 313 313 312 311 311 311 311 310 310 310 309 308 315 314 311 300 289 289 293 296 296 297 294 295 297 296 296 294 294 296 297 294 291 290 298 298 299 299 294 291 295 288 285 286
308 310 310 312 312 311 311 310 311 310 310 310 307 306 309 318 316 306 296 290 294 300 299 298 293 296 293 295 294 294 295 297 297 299 299 295 290 295 297 299 299 297 296 290 289 282 281
308 309 309 312 311 310 310 310 310 310 310 310 307 303 307 314 308 300 291 292 300 305 302 298 296 294 295 294 295 294 294 298 300 299 299 296 295 293 296 294 294 294 292 290 290 287 283
307 308 306 311 310 310 310 310 310 310 309 308 301 295 310 306 296 294 294 297 302 301 303 302 300 298 296 297 295 295 295 297 300 301 296 296 293 290 291 296 298 296 293 292 287 284 284
307 307 306 310 310 309 309 310 309 309 311 306 298 305 313 304 290 290 296 300 302 299 300 301 300 301 301 297 294 296 297 300 299 299 297 297 292 287 290 293 295 294 293 290 289 288 285
306 307 307 310 309 309 309 309 309 309 311 308 304 298 303 298 296 295 295 297 298 302 301 301 300 301 299 297 298 295 296 300 300 299 299 299 291 290 287 288 291 290 292 291 291 287 285
306 306 307 309 309 309 309 309 309 309 310 307 301 298 302 294 293 295 296 298 297 297 301 301 299 299 297 294 295 294 297 296 298 299 298 297 291 290 290 290 290 290 290 290 289 289 288
307 307 308 308 308 308 308 308 308 308 309 306 299 297 296 295 298 295 295 297 297 298 299 298 298 299 300 295 296 294 296 294 293 298 296 294 289 289 288 289 289 289 290 290 290 290 290
307 308 307 307 307 306 307 308 308 308 309 305 306 303 299 292 296 293 294 297 298 300 300 300 300 298 296 299 300 298 298 297 297 297 293 291 289 286 283 285 285 283 288 290 290 291 293
308 308 307 307 306 305 308 307 307 309 308 309 307 303 296 288 293 294 298 300 298 300 299 300 300 298 299 301 300 299 297 297 297 294 294 288 286 282 283 281 280 289 293 292 291 292 292
306 306 306 306 305 308 307 307 307 308 309 310 309 304 296 286 292 295 298 298 299 300 299 299 300 300 301 297 292 290 288 289 290 291 290 291 286 281 283 282 284 288 288 290 290 291 294
305 305 305 306 307 306 306 306 307 308 309 311 309 306 301 292 292 299 298 299 295 295 296 298 302 301 296 289 288 285 285 288 286 290 292 289 287 287 280 281 279 288 290 296 295 288 295
306 307 307 307 306 305 306 306 307 307 309 312 309 307 305 298 302 301 298 298 298 296 295 296 298 298 297 287 285 286 286 287 285 283 283 285 284 284 277 283 284 290 293 296 287 290 294
306 306 306 305 305 305 305 306 306 307 309 312 309 310 307 299 303 306 304 299 299 299 295 297 297 296 290 288 288 286 286 287 286 288 287 286 284 283 279 280 282 292 295 291 296 296 296
305 305 305 303 302 304 305 306 306 307 308 311 310 311 308 305 303 307 308 309 308 304 300 298 299 296 296 290 286 285 285 285 285 286 290 286 289 288 287 289 294 294 297 298 297 296 298

GFSGBSN_sfc_thetae_027.txt.gz
Theta_e
321 320 326 325 323 323 323 322 321 319 319 318 318 317 316 316 316 317 316 315 316 316 316 314 314 314 314 313 312 327 329 326 319 317 313 309 307 307 303 305 306 305 307 308 311 313 311
318 320 321 324 323 323 323 322 321 319 319 318 317 317 316 317 316 315 315 315 315 316 314 313 313 312 314 306 319 324 322 318 317 316 312 312 309 310 307 305 305 308 308 306 307 311 314
319 319 320 322 322 322 322 321 320 319 318 318 318 317 316 315 316 314 314 315 315 315 313 313 312 314 313 312 320 324 320 318 317 316 313 315 314 310 310 306 310 307 303 303 305 309 308
318 318 319 319 321 320 320 320 319 319 318 318 318 317 315 314 314 313 314 314 314 313 312 311 312 316 310 320 322 319 322 318 320 319 317 318 317 312 310 311 307 303 304 299 304 307 310
316 318 319 318 321 320 319 319 319 319 318 317 317 316 314 313 313 312 314 313 312 311 311 312 315 315 310 317 314 318 319 313 316 317 317 316 314 310 310 304 301 301 296 298 299 306 306
316 316 318 318 319 320 319 318 317 317 317 316 316 315 314 313 313 313 313 312 312 311 313 317 317 312 316 310 315 315 318 317 315 314 312 311 309 305 306 302 293 295 296 299 298 303 306
314 316 316 318 318 321 321 320 317 316 316 316 316 315 314 313 314 313 311 316 313 313 315 311 310 310 309 314 317 313 315 314 314 311 305 308 302 299 302 303 302 301 299 298 301 305 302
312 314 315 317 317 320 321 320 317 316 316 316 315 314 315 315 314 312 314 313 317 320 311 314 312 311 313 314 308 311 315 309 308 303 307 304 299 305 305 303 302 301 298 299 302 304 304
311 312 314 315 316 316 320 320 317 316 315 315 315 315 315 314 312 311 315 315 325 324 313 310 312 310 310 312 307 309 312 310 305 303 303 299 303 305 303 301 300 301 299 299 299 303 304
310 310 312 314 315 315 317 319 318 316 315 314 314 314 313 312 309 317 314 319 322 322 305 302 305 310 311 311 305 312 313 309 306 302 304 302 307 303 302 301 302 298 304 303 301 300 295
309 310 311 312 313 313 314 317 317 316 315 314 313 313 312 312 322 314 323 326 328 326 290 304 306 315 312 307 307 308 314 310 303 302 305 301 303 303 302 302 305 301 305 304 303 301 300
308 309 310 311 312 312 312 315 315 315 314 314 313 313 312 313 317 323 327 331 327 303 290 300 306 304 304 306 305 309 308 311 310 305 305 304 308 307 306 306 306 306 304 303 303 301 293
307 308 309 310 311 312 312 314 314 314 313 313 313 313 313 319 315 327 331 323 302 294 302 298 300 304 303 301 302 304 303 302 299 297 298 302 303 306 307 303 306 304 301 294 292 292 291
305 307 308 309 310 311 312 313 313 313 312 312 311 311 314 319 324 328 327 310 294 298 300 303 303 302 299 302 302 302 302 299 303 303 298 296 294 303 306 304 301 302 301 294 286 288 291
303 304 307 308 310 311 311 313 313 312 311 311 311 314 314 319 322 325 316 300 298 299 303 300 301 298 299 301 301 301 301 300 302 304 298 297 296 304 305 306 305 301 297 303 296 296 292
303 303 306 307 309 310 311 311 312 312 311 310 313 311 313 323 325 321 310 299 302 305 305 303 297 300 297 300 298 300 300 304 303 306 308 302 295 302 303 306 306 303 305 295 296 287 286
302 303 305 306 307 309 310 311 312 311 310 310 314 308 318 325 323 312 302 303 304 308 308 303 300 299 300 299 300 299 300 304 306 306 308 304 301 300 302 300 299 301 299 299 299 297 290
301 302 305 306 307 307 309 310 311 311 310 309 312 303 323 329 306 309 304 306 305 307 311 306 305 303 301 302 300 299 300 303 308 308 302 305 302 297 299 304 305 304 301 301 294 292 295
301 304 304 306 306 307 308 309 310 310 310 312 308 311 325 322 302 306 307 305 307 306 307 305 303 305 305 302 298 301 302 307 307 307 304 306 299 294 296 300 303 299 301 301 300 298 293
301 303 305 306 306 307 308 309 309 310 311 316 310 304 312 315 312 308 305 303 303 309 307 307 305 308 306 303 305 302 303 305 307 307 301 304 301 298 293 296 301 298 299 300 299 293 293
302 304 304 305 306 307 307 308 309 309 310 314 312 306 310 303 308 309 307 304 302 302 308 309 306 306 304 301 303 302 305 303 305 301 305 306 298 300 300 300 299 298 298 299 297 297 294
302 303 304 305 305 306 307 306 309 309 310 309 308 307 310 308 310 306 303 303 301 305 306 305 304 305 306 303 304 301 305 304 303 306 306 306 298 299 297 300 298 296 298 298 298 298 298
303 303 304 304 305 305 305 306 306 309 310 308 315 317 312 306 308 304 305 304 303 308 309 309 308 307 306 307 311 311 311 310 308 306 305 303 300 296 291 295 295 291 296 298 299 300 300
303 303 304 304 305 305 304 304 303 309 310 316 315 317 307 304 307 303 305 306 305 308 307 308 311 309 310 314 313 311 309 307 306 305 308 302 300 298 293 289 284 295 300 299 298 300 301
302 303 304 304 305 304 304 304 304 308 309 318 322 317 311 300 305 303 304 305 307 310 309 309 309 313 315 312 304 300 300 299 300 301 301 303 300 293 291 290 293 295 297 296 295 295 301
302 303 304 304 304 304 304 304 307 308 308 315 324 325 317 310 305 306 304 305 306 308 307 305 311 315 311 309 304 296 293 297 296 298 301 299 301 297 291 288 285 296 298 301 301 292 301
302 303 303 304 305 304 305 307 307 307 308 314 324 326 315 308 308 309 304 304 309 310 308 306 307 306 309 307 299 299 297 300 294 293 291 295 295 293 292 291 295 300 300 302 291 295 303
302 301 303 304 305 306 306 306 307 307 308 313 324 326 319 312 312 313 311 308 308 310 307 309 307 307 307 301 303 302 299 299 298 298 296 295 294 291 295 288 286 301 301 295 302 304 304
300 302 303 305 305 305 306 306 306 307 308 311 320 326 328 317 314 320 319 318 317 316 313 311 309 309 310 306 307 307 296 294 299 294 301 295 300 299 297 298 303 303 302 305 306 304 305

GFSGBSN_sfc_thetae_030.txt.gz
Theta_e
319 319 320 321 325 324 324 323 322 321 320 319 319 318 318 317 317 317 315 315 315 316 316 315 315 314 314 312 311 326 330 327 318 314 313 311 306 305 302 305 306 303 305 308 309 313 312
317 318 319 320 321 324 324 323 322 320 319 319 318 318 318 317 317 317 316 315 314 315 316 314 314 313 313 306 319 325 322 318 314 314 314 311 308 309 306 305 304 306 307 307 307 311 311
316 318 318 319 319 322 323 322 321 320 320 319 318 318 317 317 316 315 314 315 314 316 314 313 313 313 311 309 321 323 320 315 316 315 311 313 313 309 309 306 308 307 303 305 304 309 309
315 317 318 318 318 319 321 321 320 320 320 319 318 317 316 315 314 314 313 314 315 315 314 312 312 315 309 320 322 319 321 319 319 317 315 317 317 311 309 311 307 303 303 297 304 307 309
314 315 316 317 318 317 319 320 320 320 320 319 318 317 315 314 313 313 313 315 315 313 313 313 313 315 309 319 314 317 318 314 316 317 316 316 314 309 308 303 300 301 295 297 299 306 307
313 314 315 316 316 318 318 320 319 319 318 318 317 317 315 314 313 313 314 314 314 312 312 316 316 310 316 310 314 315 318 317 314 314 312 310 308 304 304 301 293 294 295 298 297 301 304
314 313 313 316 316 318 319 320 319 318 317 317 317 316 315 314 314 314 311 313 310 310 314 309 310 309 311 314 317 313 315 315 314 311 305 308 302 298 299 303 302 300 298 297 300 304 302
312 313 313 313 315 316 318 320 319 317 317 317 316 316 315 315 315 314 313 313 317 320 311 314 309 312 313 315 308 311 315 308 309 301 306 304 299 303 305 304 302 301 298 298 301 303 302
311 312 312 313 314 315 317 317 318 317 316 316 316 315 315 315 314 312 313 313 322 321 310 311 310 308 311 313 307 307 311 309 305 302 303 299 302 306 304 301 299 300 298 299 298 300 301
308 309 311 312 313 314 315 316 317 317 316 315 315 314 314 312 308 317 313 318 319 323 303 304 306 309 311 311 305 312 313 309 306 301 304 302 306 303 301 300 301 297 304 302 300 298 292
307 307 309 311 311 311 313 314 315 317 316 315 314 314 312 312 318 314 324 324 330 325 290 305 306 314 312 306 307 307 314 310 303 303 304 301 302 302 300 301 305 299 304 303 301 298 298
307 307 309 310 310 310 311 313 313 315 315 314 313 313 312 312 314 318 325 330 327 303 289 300 306 304 304 306 305 308 307 311 309 304 304 302 307 305 303 306 306 306 303 303 302 299 290
306 307 308 309 309 310 311 312 312 314 315 314 313 313 313 318 313 325 326 322 300 292 302 299 300 303 302 301 302 304 303 301 299 296 296 300 301 306 308 303 305 303 299 293 289 290 290
304 305 307 308 309 310 310 311 311 312 313 313 312 312 313 316 322 326 325 310 292 297 299 303 302 302 298 302 301 301 301 298 302 300 297 294 294 302 306 303 299 301 299 293 284 284 291
303 304 305 305 308 309 310 310 311 312 312 312 311 313 313 317 320 322 314 298 296 301 302 301 301 298 298 301 300 300 300 298 301 302 296 295 294 305 305 306 304 300 296 302 295 297 294
302 304 304 304 305 308 308 310 311 312 312 311 311 310 309 321 322 317 307 299 301 305 306 303 296 299 295 298 298 299 298 302 301 305 306 300 291 302 304 305 305 302 303 295 297 287 285
302 303 303 303 305 306 307 309 310 312 311 311 310 303 315 322 321 310 300 302 305 308 307 303 299 298 299 299 299 298 298 302 305 305 307 304 299 299 302 299 297 300 298 298 297 297 290
301 301 302 303 304 304 307 308 310 311 310 308 308 298 319 324 302 303 302 304 305 307 308 306 305 303 300 301 299 298 298 302 307 307 302 304 301 296 298 304 305 303 301 300 296 291 296
301 301 302 302 303 303 306 307 309 310 310 308 302 307 321 319 296 300 305 305 306 305 306 305 303 305 305 301 298 300 302 308 309 307 303 305 299 293 294 300 303 299 300 300 301 300 294
301 301 302 303 303 302 306 306 308 310 310 310 305 300 309 313 307 303 303 302 302 308 306 307 305 306 304 301 304 300 301 305 308 308 303 308 300 296 292 295 300 297 299 299 298 294 293
301 301 301 302 302 303 306 306 307 309 310 308 307 303 308 299 304 305 307 304 301 302 306 308 304 303 303 300 300 301 303 305 306 302 305 305 296 298 298 300 300 299 298 298 296 298 293
300 301 301 301 304 305 305 306 307 309 309 305 304 305 310 305 306 305 304 304 302 303 304 304 303 304 305 302 303 300 304 304 302 306 304 306 299 299 297 300 300 297 299 299 298 298 297
299 301 302 302 303 304 305 306 307 308 308 304 310 315 309 304 304 303 305 306 304 307 308 308 307 306 304 306 311 311 312 311 308 306 304 304 301 297 293 296 294 289 296 297 298 299 299
300 300 302 303 303 304 306 306 306 307 308 310 311 316 306 301 303 304 306 307 305 306 307 308 310 308 311 315 314 312 310 308 309 308 309 303 302 300 294 290 284 295 301 299 297 299 300
301 301 302 303 304 304 305 306 305 304 304 310 317 316 308 299 305 305 308 308 307 307 308 309 311 314 317 313 305 300 301 298 301 303 303 306 302 295 290 290 293 295 298 296 295 295 300
301 302 303 303 303 304 304 304 304 304 304 306 310 320 316 308 305 308 306 308 304 307 307 307 314 319 317 311 306 296 294 296 295 297 301 300 304 298 293 289 285 297 299 302 300 292 301
301 302 302 303 303 304 304 303 303 304 304 302 310 316 315 305 312 310 306 306 311 310 306 308 307 308 312 308 295 301 298 300 295 294 290 295 296 291 292 290 294 301 301 302 291 295 303
301 302 302 303 303 304 303 303 303 303 304 303 308 314 313 309 313 315 313 309 310 311 305 309 307 308 310 302 303 304 299 302 299 299 296 294 294 290 296 288 286 302 300 294 303 306 305
301 302 302 302 303 303 304 303 303 303 304 307 305 312 315 314 315 321 318 319 317 317 315 312 311 309 310 307 308 309 294 294 300 295 302 296 300 299 297 297 304 304 303 305 307 305 305

GFSGBSN_sfc_thetae_033.txt.gz
Theta_e
317 317 319 320 320 321 325 324 322 321 320 319 319 319 319 318 318 317 316 315 315 315 316 316 316 315 310 307 310 323 328 326 316 311 307 306 305 301 297 299 299 298 300 303 311 311 311
316 317 317 318 319 320 322 324 322 321 320 319 318 318 318 318 317 317 314 313 314 315 315 316 315 314 307 304 317 325 321 316 312 307 309 309 306 305 301 300 298 301 301 302 304 311 310
315 316 316 317 318 319 319 322 322 321 320 319 319 318 317 317 316 315 315 313 314 314 316 315 314 311 308 305 315 313 317 311 310 310 308 310 309 305 305 301 307 305 298 301 300 306 306
315 316 316 316 317 317 317 318 321 321 320 320 319 318 316 316 315 314 314 313 313 315 315 315 314 308 305 319 315 314 314 311 311 312 311 312 312 308 304 305 304 298 297 292 299 306 307
315 315 315 315 316 316 317 317 319 321 320 320 318 318 316 315 314 313 312 313 314 315 314 314 307 307 307 321 313 315 313 313 313 313 313 314 309 304 304 298 294 295 289 294 298 305 306
312 314 314 314 315 315 316 317 317 319 320 319 318 317 316 315 313 312 312 313 314 313 312 312 312 304 310 310 313 313 313 314 312 311 310 307 302 298 298 295 287 292 293 290 294 298 303
312 312 312 313 314 316 316 318 317 318 318 318 318 317 316 314 313 313 310 309 305 305 307 306 306 306 309 312 314 309 313 312 311 307 300 306 296 292 297 299 301 299 295 294 296 299 301
311 312 313 313 313 313 316 317 317 317 318 318 317 316 316 314 314 314 309 306 311 311 305 312 310 309 311 312 306 308 312 306 305 299 305 300 295 301 303 304 301 300 296 294 298 300 298
308 310 312 312 313 313 314 315 316 316 317 317 316 316 315 314 313 311 307 309 315 313 304 310 313 310 307 310 305 305 307 306 301 300 300 297 300 305 303 300 298 298 297 295 295 295 295
309 309 309 311 312 312 312 314 315 315 316 316 315 315 313 312 307 310 308 314 313 311 297 302 307 307 307 309 304 310 309 306 302 299 301 299 304 302 300 299 300 295 301 300 299 293 287
307 308 308 308 309 311 311 312 314 315 316 316 314 314 312 312 309 310 317 319 314 313 285 304 305 312 308 304 305 305 310 305 300 301 301 297 300 300 299 300 303 297 302 300 299 296 294
307 307 308 308 308 309 310 311 312 313 315 315 314 313 312 311 309 310 315 315 319 298 286 300 305 302 301 304 303 305 304 307 306 302 301 300 304 303 302 304 303 304 300 300 298 294 287
306 306 306 307 307 308 310 310 311 312 313 314 313 313 311 314 307 316 315 313 295 288 301 297 298 302 300 299 300 301 299 297 294 292 294 299 299 304 306 300 302 300 294 286 283 284 284
305 305 305 305 307 308 309 310 310 311 312 314 312 312 312 312 315 316 315 304 291 295 297 303 301 300 296 299 298 299 297 293 297 296 294 291 290 300 304 301 299 298 295 287 281 282 285
304 304 305 305 305 308 309 309 309 311 311 312 311 311 309 311 313 314 309 295 292 298 300 300 298 295 294 298 298 296 294 294 296 297 291 292 293 303 304 304 301 299 294 298 291 289 284
304 303 303 304 304 306 307 309 309 310 311 311 309 308 307 312 315 311 303 295 299 304 304 302 294 296 292 295 295 294 294 298 298 300 303 298 291 300 303 304 301 298 300 290 290 281 280
303 303 302 302 303 304 306 307 309 310 311 311 308 302 308 314 314 306 294 297 302 307 306 301 297 296 296 295 295 294 295 299 301 303 304 300 297 296 301 297 294 296 293 294 293 290 282
302 302 301 302 302 303 305 306 308 309 310 309 307 296 310 315 298 298 295 300 303 304 308 305 303 301 297 298 297 294 295 302 303 304 299 301 297 290 296 301 302 299 296 296 284 286 287
301 301 301 301 302 303 304 305 307 309 309 306 301 302 312 310 290 292 297 301 304 303 303 303 302 303 304 297 296 297 300 306 307 303 300 301 293 285 289 295 299 295 297 296 296 291 287
300 300 301 301 300 302 303 304 306 307 309 308 302 295 304 306 299 296 294 296 299 306 305 305 303 304 300 297 300 296 300 305 306 303 301 303 296 290 284 290 296 293 296 296 293 284 285
299 300 300 301 301 301 303 304 305 307 308 307 302 297 302 295 297 297 298 298 299 299 305 306 302 301 299 294 297 297 301 301 305 302 302 300 291 293 294 297 298 297 296 295 292 293 287
299 299 300 301 301 302 302 302 303 306 308 303 299 299 304 303 302 299 297 297 299 301 303 301 300 301 300 298 299 296 301 300 298 301 299 300 292 293 291 297 296 293 295 295 295 295 292
299 300 300 301 301 302 303 303 302 305 307 301 303 305 304 300 300 298 296 299 301 303 304 305 303 301 300 303 305 305 306 304 303 300 297 297 294 288 285 290 290 283 290 293 294 295 293
300 300 301 301 302 302 302 303 302 305 306 306 303 305 300 295 300 298 299 300 302 303 302 305 305 302 306 310 308 306 303 303 306 304 304 297 294 287 282 283 275 290 297 295 293 294 294
300 299 299 301 302 302 302 303 304 305 306 304 306 305 303 287 300 300 299 302 305 306 304 305 308 309 310 307 298 293 290 289 295 301 300 302 292 285 281 281 288 292 294 294 292 290 296
299 300 300 302 301 303 303 304 305 305 307 305 303 305 306 300 299 303 299 303 301 301 301 305 311 310 310 302 290 286 284 291 290 293 299 298 296 285 282 278 275 290 295 299 296 285 297
299 299 301 301 302 302 303 304 305 306 306 304 303 307 304 302 307 305 299 300 306 303 300 302 305 303 308 288 288 284 284 297 287 287 285 284 285 281 278 278 285 298 298 299 284 286 298
300 300 301 302 302 302 303 304 304 304 305 302 301 305 304 304 307 309 308 305 306 305 297 303 302 301 297 290 288 286 284 289 290 296 290 287 284 280 284 282 281 299 297 289 295 298 299
300 301 302 302 302 303 303 303 304 304 305 304 298 306 309 304 306 315 313 314 313 311 306 304 303 303 303 297 293 291 289 287 288 283 297 287 293 288 289 288 298 298 297 299 299 299 299

GFSGBSN_sfc_thetae_036.txt.gz
Theta_e
316 317 316 319 319 319 321 324 323 321 320 319 319 318 319 319 318 318 316 314 314 315 315 315 316 316 309 305 307 321 328 327 315 309 305 304 303 301 295 297 298 295 299 304 309 309 310
316 316 317 317 318 319 320 320 323 321 320 319 318 318 318 318 318 317 316 315 314 314 315 315 316 314 306 298 316 323 317 312 310 305 306 305 304 305 299 298 297 301 302 305 307 307 309
316 316 316 316 317 318 319 318 319 321 320 320 319 318 317 317 317 316 315 314 313 313 314 315 315 310 305 300 315 314 316 309 309 307 305 309 308 305 303 300 304 303 297 306 305 306 305
315 316 316 315 316 317 317 317 317 320 321 320 319 318 317 316 315 314 314 313 313 314 315 315 314 306 301 315 314 313 310 310 310 309 309 309 309 306 303 303 301 298 296 292 303 304 305
312 315 315 315 315 316 316 316 317 318 320 320 319 318 316 315 314 313 313 313 313 314 315 314 305 305 304 318 313 316 312 310 309 308 308 312 307 302 302 296 292 293 287 290 296 304 303
311 311 313 314 314 314 315 316 316 316 318 319 319 317 316 315 313 312 312 313 313 312 311 312 310 300 307 307 313 312 311 311 309 308 307 305 300 296 296 293 286 289 290 290 292 298 302
311 311 312 312 314 314 315 316 316 316 316 318 319 318 316 315 313 312 309 307 305 305 305 301 300 302 305 311 312 309 311 309 308 307 298 303 296 291 294 297 297 297 295 293 294 298 300
311 311 312 312 313 314 314 315 315 315 316 317 318 317 316 315 313 313 307 303 308 307 301 309 310 308 310 311 303 307 312 304 303 298 302 297 293 299 301 302 300 298 294 293 295 298 299
310 310 311 311 312 312 314 313 313 315 315 316 317 316 315 313 313 309 305 306 313 311 301 307 311 310 311 310 303 304 308 304 300 298 298 294 298 304 301 300 297 295 294 293 294 296 293
310 309 310 310 311 311 312 313 313 314 314 315 316 315 313 312 306 307 305 313 313 310 295 300 305 310 306 305 302 308 307 306 300 298 298 296 301 301 299 298 298 292 299 297 297 291 285
309 309 308 309 309 308 310 311 311 313 314 313 315 314 312 312 307 307 312 313 311 311 279 300 306 312 305 302 303 303 308 303 299 300 299 295 298 298 297 298 301 296 300 298 298 292 290
308 308 308 308 309 308 308 309 311 311 313 313 314 314 312 310 308 308 312 312 316 296 284 300 304 299 299 301 301 302 302 304 305 301 300 296 302 301 301 302 302 302 298 297 296 293 285
305 307 308 307 308 308 308 307 309 310 312 313 313 313 312 312 304 312 316 310 293 288 300 297 297 299 298 297 299 299 297 295 293 291 291 296 299 301 304 299 302 300 293 284 283 282 282
304 304 307 307 306 307 308 307 307 309 311 312 312 312 312 312 310 312 313 305 288 294 296 302 299 298 294 297 297 297 294 292 295 295 291 289 288 298 303 300 296 295 293 285 280 280 283
303 304 306 306 306 306 307 307 307 308 310 311 311 311 310 310 310 312 306 293 289 296 298 297 298 294 293 296 296 295 293 292 295 295 289 290 293 301 302 303 300 296 291 296 289 286 282
303 304 306 306 305 305 305 306 307 308 309 310 308 307 308 311 311 308 301 293 297 303 302 301 293 295 290 293 292 292 292 296 296 298 300 296 289 298 302 303 301 297 298 290 288 281 280
303 304 306 305 305 304 305 304 306 307 309 310 305 300 309 314 311 301 292 294 299 304 305 301 297 294 294 293 293 291 293 296 298 299 301 298 293 293 299 296 295 294 292 292 291 287 281
302 304 304 304 304 304 304 304 305 307 308 307 302 294 309 314 297 295 294 297 300 302 306 304 303 300 295 295 293 292 293 296 301 302 296 299 295 289 294 300 301 296 294 294 283 284 285
302 303 303 303 303 303 303 304 304 306 307 302 298 300 309 309 290 289 296 299 300 300 302 302 301 302 300 294 292 295 297 303 305 300 297 298 292 285 288 293 297 294 295 295 293 288 285
302 303 303 303 303 302 302 303 304 305 307 303 299 292 300 303 299 292 292 294 296 302 300 303 302 303 299 296 298 296 298 302 304 302 301 301 293 289 284 288 293 291 294 294 291 283 285
301 302 302 302 302 302 302 303 303 305 307 303 299 294 297 292 294 294 294 295 294 294 302 304 300 300 299 293 294 295 299 300 302 301 300 297 290 292 292 294 295 294 294 294 291 290 286
301 301 301 301 301 302 302 302 303 304 306 299 295 295 299 296 297 294 294 293 293 295 298 298 298 301 299 295 296 294 299 297 296 299 296 298 290 290 288 293 292 290 292 291 293 292 292
300 300 300 300 301 301 301 302 302 304 305 297 301 303 300 296 296 293 293 294 294 297 300 301 302 300 298 299 302 300 302 302 301 297 295 295 292 286 284 288 287 282 289 292 292 293 293
300 300 300 300 300 301 301 300 302 303 303 302 301 302 299 291 297 296 296 297 296 297 296 303 303 301 303 307 304 302 300 302 302 301 301 293 291 284 281 281 275 290 295 294 291 291 292
299 299 300 300 300 301 301 301 301 302 303 300 304 301 299 290 297 299 299 297 298 300 301 300 304 306 308 303 295 291 289 291 293 298 298 299 290 284 280 280 286 290 292 291 289 289 293
299 299 300 300 300 301 301 301 302 302 303 299 303 305 301 295 294 302 300 299 295 296 298 302 308 310 309 298 289 285 284 289 289 291 297 295 292 286 281 278 275 287 293 296 295 284 295
299 300 300 300 300 300 301 301 302 302 303 301 302 305 300 297 302 304 299 297 299 299 297 301 303 303 303 287 285 283 284 293 286 285 283 283 284 280 276 276 282 292 296 296 283 284 296
300 300 300 300 301 301 301 301 301 302 302 303 301 306 301 298 300 306 305 298 300 302 295 300 300 299 294 289 288 284 282 289 287 292 288 286 282 278 283 278 279 298 294 289 291 295 296
299 298 299 300 301 301 301 301 302 302 304 305 299 305 306 298 300 307 306 308 307 307 304 301 301 301 301 296 292 288 285 283 286 284 295 286 289 285 287 286 295 295 295 298 298 298 298

GFSGBSN_sfc_thetae_039.txt.gz
Theta_e
317 316 317 316 318 319 319 320 321 322 321 320 319 319 319 319 319 318 316 315 315 314 314 314 316 315 308 302 302 316 327 326 319 308 302 302 301 299 295 295 295 294 296 303 308 308 308
314 316 316 316 316 316 317 318 319 319 321 320 319 318 318 318 318 317 316 315 314 314 314 315 315 314 304 294 311 320 315 312 308 304 303 303 303 303 299 296 295 299 299 304 306 306 306
312 314 316 315 316 316 317 317 318 318 320 320 320 318 318 318 317 317 316 314 313 313 314 315 314 310 303 298 315 311 313 309 308 304 304 306 307 302 302 298 302 302 298 303 304 304 304
313 312 314 315 315 315 316 316 317 317 317 320 320 319 317 317 316 315 314 313 313 313 314 315 313 305 300 311 311 314 309 309 309 307 306 307 307 303 302 302 300 297 295 293 301 304 304
312 312 312 313 314 314 314 315 316 316 317 318 319 318 317 315 314 314 313 313 313 314 314 314 304 303 301 314 311 315 311 308 308 306 306 309 305 300 300 294 292 292 286 289 295 303 301
313 312 313 311 313 314 314 314 315 315 315 316 318 318 317 315 314 312 312 313 313 311 311 311 309 296 302 303 310 311 310 310 307 305 305 303 298 295 294 292 285 288 289 289 290 297 299
313 313 311 312 311 312 314 314 314 314 315 316 316 318 317 316 314 312 309 306 303 303 304 299 297 297 301 308 310 307 308 307 307 304 296 302 294 291 293 295 296 294 293 291 292 297 299
312 312 312 312 312 312 313 314 313 313 314 315 316 317 317 315 313 313 308 301 304 305 298 307 307 305 308 310 304 305 309 303 301 296 300 295 292 298 299 298 298 295 293 292 296 298 298
309 311 311 312 312 312 311 313 313 312 313 314 315 316 317 314 313 309 305 304 311 309 295 302 308 307 309 310 305 302 306 303 298 297 297 292 295 301 299 296 295 294 292 292 293 296 291
308 309 310 311 311 311 312 311 312 312 313 313 314 315 314 312 306 307 305 311 312 308 293 297 304 307 310 307 300 307 306 304 298 297 297 295 299 299 297 295 296 291 297 296 294 291 284
306 307 308 310 309 309 309 310 311 312 311 313 313 314 312 312 306 306 311 311 310 308 277 295 304 311 305 300 301 302 305 303 297 298 297 293 297 296 295 296 298 294 299 296 295 291 289
305 306 306 308 309 308 309 308 309 310 310 311 312 313 312 310 308 307 310 313 312 290 279 296 303 299 297 299 299 300 301 302 303 299 298 295 299 298 297 301 300 300 296 295 294 291 284
305 304 305 306 308 308 308 308 308 309 310 310 312 313 312 313 304 311 313 313 294 284 296 295 296 297 295 295 296 297 296 294 293 290 290 294 296 299 302 296 299 296 291 283 282 282 282
305 305 304 305 306 308 308 308 307 307 308 310 310 311 312 312 309 310 314 303 287 292 293 301 297 296 292 295 295 296 293 291 293 293 290 288 286 296 300 297 294 293 291 283 279 279 282
306 305 304 304 305 306 307 307 307 307 306 309 310 310 310 312 311 308 306 293 288 293 299 294 296 292 291 294 294 294 291 291 293 294 289 289 290 298 300 301 299 295 290 294 287 285 281
306 305 304 304 304 305 307 307 307 307 306 308 302 304 307 313 312 304 298 293 296 301 303 300 291 293 289 291 291 291 290 294 294 296 297 294 287 296 299 300 300 296 297 288 287 281 280
306 305 304 304 303 304 306 306 306 306 306 308 301 298 306 312 311 298 289 293 298 303 303 299 296 293 293 291 292 289 291 294 296 295 297 296 291 290 297 295 293 292 290 290 290 285 280
305 305 304 303 303 304 305 305 305 305 306 305 299 290 308 311 296 295 289 295 299 300 303 301 301 299 295 293 291 291 291 294 297 299 294 297 291 286 291 297 298 295 292 291 283 283 284
306 304 304 303 303 304 305 305 304 305 305 301 294 297 309 307 290 291 294 294 299 298 298 299 299 301 299 293 290 293 293 300 302 298 296 298 290 284 287 292 294 293 293 294 291 286 284
305 304 303 303 303 304 304 304 304 305 306 302 296 290 299 302 299 293 291 292 294 301 298 300 300 302 298 294 295 293 296 300 301 300 301 299 292 288 284 288 292 289 292 292 291 282 284
305 304 303 302 303 304 304 304 304 303 304 302 295 292 295 292 293 294 294 293 293 294 299 299 295 298 297 292 292 293 297 298 299 299 298 297 289 290 290 291 293 292 292 291 289 289 285
304 303 302 302 303 303 303 303 303 303 303 299 292 294 295 293 297 294 293 292 292 295 296 295 294 299 297 294 295 293 296 295 295 297 294 296 288 289 287 291 291 289 292 291 291 290 290
304 302 302 302 303 303 303 303 302 303 301 295 298 300 298 294 293 293 292 292 293 297 298 299 298 298 295 299 301 300 300 300 299 296 293 292 290 285 283 286 286 282 288 290 291 292 292
303 302 302 302 302 302 302 302 302 302 300 297 298 300 296 288 293 292 294 295 294 296 294 298 299 296 301 304 302 301 299 299 300 298 298 291 288 284 281 281 275 289 293 293 291 290 290
302 302 302 302 302 302 301 301 302 302 302 296 299 298 297 288 293 295 294 295 296 297 295 296 299 301 306 301 294 291 287 290 292 296 297 296 288 282 280 280 285 289 290 290 288 286 291
301 301 301 301 301 301 301 301 301 302 302 299 297 301 299 293 292 299 295 296 293 293 293 296 305 307 305 295 288 286 285 289 288 290 295 292 290 286 279 278 276 288 292 294 293 283 293
300 300 300 300 300 300 300 301 300 301 302 299 297 299 300 294 300 299 297 295 298 295 293 296 300 301 302 287 284 284 283 292 285 285 284 284 283 282 276 276 283 290 294 294 283 285 294
299 299 299 299 299 299 300 300 301 301 302 300 296 303 300 295 296 303 302 299 299 297 292 297 301 298 292 288 287 285 282 288 286 289 287 286 282 278 279 275 279 294 293 287 290 293 295
298 298 299 299 299 299 300 300 301 301 302 301 294 302 306 298 297 303 302 304 303 302 299 299 299 299 299 294 290 288 286 282 286 283 292 286 289 286 287 286 293 294 293 295 296 295 296

GFSGBSN_sfc_thetae_042.txt.gz
Theta_e
314 315 316 317 314 316 317 318 319 318 319 321 320 320 320 320 320 318 317 316 315 314 314 314 315 316 308 297 297 312 326 326 316 307 301 300 299 297 293 293 293 293 295 300 300 306 305
314 314 315 316 316 315 315 315 316 318 317 318 320 319 319 319 319 318 317 315 314 314 314 314 315 314 303 291 305 316 316 309 307 303 301 301 301 302 298 296 293 298 299 301 306 304 305
313 313 314 314 315 316 315 315 316 316 317 317 319 319 319 319 318 317 316 315 314 314 314 314 315 309 302 296 312 307 310 307 307 305 301 303 304 300 300 297 300 301 299 301 303 303 303
313 313 313 314 313 314 314 315 315 316 316 317 317 319 318 317 317 316 315 314 313 314 314 314 313 304 298 308 310 312 309 309 308 307 303 305 305 301 299 300 298 294 295 293 299 303 303
314 313 313 313 313 313 313 314 314 315 315 315 316 317 317 316 315 314 314 313 313 314 314 314 304 302 297 310 305 310 311 308 306 305 304 308 303 298 298 292 290 291 285 289 293 303 302
311 314 312 312 313 313 312 313 313 313 314 314 314 316 317 316 315 313 312 313 313 311 311 311 308 296 298 300 308 308 310 308 305 303 302 302 297 294 292 290 285 288 288 288 289 297 298
310 312 313 312 312 312 312 312 313 312 313 314 314 315 316 317 315 312 310 305 300 302 304 301 297 294 297 306 310 305 307 306 305 302 294 299 293 290 292 293 293 293 292 290 291 295 298
309 310 311 312 312 312 311 312 312 312 312 313 314 314 315 316 315 312 308 301 303 304 298 304 305 303 305 309 305 306 307 301 300 295 298 295 291 295 297 297 295 294 291 290 293 295 295
308 308 309 310 311 312 312 312 311 311 312 312 313 314 315 316 313 309 304 304 311 310 295 299 305 304 306 309 303 304 304 301 297 295 295 291 294 300 298 294 293 292 290 290 292 294 291
307 307 307 309 309 310 311 311 311 311 311 311 311 312 313 313 308 306 303 311 312 310 289 295 301 305 308 308 300 308 305 302 297 295 296 294 298 297 295 294 294 289 295 294 293 290 285
307 307 306 307 308 309 310 310 310 310 311 311 311 312 312 312 304 304 310 311 310 306 277 294 302 311 307 300 299 300 304 302 296 296 296 293 295 295 294 295 296 293 297 295 293 289 288
307 307 307 306 306 307 309 309 308 309 310 311 310 311 312 311 309 307 311 313 310 291 278 292 302 299 297 297 297 298 299 302 301 298 296 294 298 297 297 298 297 298 295 293 292 289 283
307 307 307 306 306 306 307 308 308 308 309 309 309 311 312 313 307 309 312 310 295 283 294 292 296 296 293 293 295 295 294 293 291 288 288 292 294 297 300 294 297 294 290 283 282 281 282
307 307 306 306 306 306 306 307 308 307 308 309 309 309 310 312 311 308 312 301 286 290 291 299 296 294 291 293 293 294 292 289 291 291 288 287 285 294 298 296 293 292 291 283 279 279 282
307 307 307 306 306 305 305 306 308 307 307 307 308 303 305 311 312 309 303 290 289 292 297 294 294 290 290 292 292 292 290 290 292 294 288 287 288 296 298 299 296 292 288 292 285 284 280
307 307 307 306 305 305 305 305 307 307 307 307 301 299 300 312 313 306 295 291 296 298 301 300 290 292 288 289 290 290 289 293 292 295 295 293 286 294 297 298 297 294 296 287 286 280 279
307 306 306 306 305 305 304 305 307 307 306 306 299 294 300 312 311 300 289 290 296 301 302 298 296 294 292 290 290 289 290 293 295 293 295 293 289 288 295 293 291 291 289 288 288 284 280
306 306 306 306 305 305 304 304 305 306 305 303 297 287 306 310 296 296 292 293 297 299 302 299 299 298 296 292 290 290 290 293 296 297 293 295 289 284 289 295 296 292 292 290 282 282 283
305 306 305 306 305 304 304 304 305 306 305 299 292 293 307 305 289 290 295 295 295 297 297 297 297 299 299 292 288 291 292 296 298 296 294 296 288 282 285 289 292 291 292 291 289 285 283
304 305 306 306 305 304 303 304 304 305 305 299 294 286 296 299 297 291 291 291 291 299 297 298 298 300 297 294 294 290 292 297 300 297 300 298 290 286 283 286 290 288 291 291 289 282 283
304 304 304 305 305 304 303 303 305 305 305 299 294 288 294 288 290 292 292 292 290 290 297 298 295 297 295 292 291 290 295 297 297 299 297 295 288 289 289 290 291 290 290 290 288 288 285
303 303 302 305 304 304 303 303 304 304 304 296 290 290 294 291 292 291 292 290 290 292 295 293 293 295 296 293 294 291 295 294 293 295 294 294 288 287 286 289 289 288 290 290 289 288 288
304 303 302 305 304 303 303 303 303 303 303 294 298 296 294 292 291 289 289 291 291 295 296 298 297 295 293 296 299 299 299 298 297 294 292 291 288 284 283 286 286 282 287 290 289 290 291
303 303 303 304 303 303 303 303 303 303 302 297 298 296 293 286 291 290 291 293 292 294 293 298 299 296 298 304 302 300 298 297 297 296 296 289 287 283 280 281 276 288 291 291 290 290 291
303 303 303 304 303 302 303 303 303 303 303 298 298 297 293 282 291 292 293 292 294 296 295 296 299 301 302 301 294 290 289 288 290 294 294 293 287 282 280 280 284 287 289 289 288 287 290
302 303 303 303 302 302 302 302 302 302 303 298 298 298 296 292 289 295 293 294 291 291 292 295 301 302 302 295 288 285 284 288 287 289 293 291 289 285 279 277 276 287 291 292 291 283 291
302 303 302 302 302 302 302 302 302 302 303 296 296 299 294 292 298 297 293 292 296 293 290 293 296 299 300 284 284 284 285 292 285 286 285 283 282 280 275 276 283 291 292 292 283 285 292
302 301 301 301 302 301 301 301 301 302 302 297 295 299 294 294 296 301 300 295 296 296 289 293 294 296 290 288 288 285 282 288 286 289 288 287 283 278 278 276 281 293 291 287 290 291 293
301 301 301 301 301 301 301 301 301 301 302 299 293 299 301 294 296 301 300 301 299 300 297 296 295 296 296 292 288 286 284 281 286 284 291 287 290 286 287 287 293 293 292 293 294 293 293

GFSGBSN_sfc_thetae_048.txt.gz
Theta_e
314 314 314 314 314 314 313 315 315 313 314 315 316 317 318 319 322 321 319 317 317 317 316 316 316 316 315 306 304 317 327 327 319 316 310 309 307 307 303 304 305 303 305 306 307 309 313
313 315 314 314 313 313 313 313 314 314 314 315 315 316 317 318 320 320 319 318 317 316 316 315 316 315 310 300 312 322 320 317 316 314 309 310 309 310 307 306 304 306 306 308 309 310 312
310 312 313 315 314 313 313 313 313 313 314 314 314 315 316 316 317 319 319 317 316 316 315 315 315 313 307 305 316 321 317 315 315 312 308 310 312 310 309 305 309 307 304 309 309 311 309
310 310 310 312 314 313 313 313 313 311 312 312 314 314 314 314 314 316 317 316 316 316 315 315 315 312 305 312 315 315 318 315 316 315 312 313 313 311 309 310 307 303 304 300 308 310 310
309 310 310 311 311 312 313 312 312 312 311 312 311 313 313 312 313 314 316 316 315 315 314 314 312 310 303 312 308 312 317 313 315 315 314 311 312 309 308 303 300 302 296 297 300 310 309
310 309 310 311 310 311 312 313 312 312 311 311 311 312 312 313 313 313 314 314 316 313 314 315 313 305 308 303 310 315 315 314 312 312 309 309 309 305 305 301 292 295 297 299 298 306 308
310 311 311 311 310 309 309 311 312 312 311 311 311 311 312 313 313 314 315 318 311 308 311 307 306 305 302 309 316 313 316 313 313 310 304 308 303 300 300 302 301 301 299 298 302 305 305
310 310 310 310 311 309 308 309 311 312 311 311 311 311 311 313 313 314 316 310 310 311 302 310 309 309 311 309 306 311 315 309 308 303 306 304 301 304 304 304 301 301 299 298 302 303 302
309 309 309 310 310 310 310 309 308 310 311 311 310 311 311 311 313 313 314 312 317 316 304 305 309 306 307 310 305 307 311 310 306 303 304 301 302 305 304 302 300 301 299 298 298 302 302
309 309 309 309 309 310 310 310 309 309 310 310 310 309 310 310 309 313 310 317 317 317 298 297 301 306 308 309 304 311 313 309 305 301 303 302 305 303 302 301 302 298 303 301 300 299 294
309 309 309 309 308 308 308 309 309 308 309 310 309 309 310 310 313 310 313 319 319 314 284 299 303 313 310 304 305 306 313 309 302 302 303 300 302 302 300 301 303 299 303 302 301 299 298
309 309 309 309 308 308 308 308 308 308 308 310 309 309 309 309 310 314 317 319 315 296 284 294 304 303 302 304 303 306 306 310 309 303 304 303 306 305 303 304 304 304 302 301 301 299 292
308 309 309 309 308 308 308 308 308 307 308 309 309 309 308 310 305 317 319 314 295 287 296 294 299 302 300 299 300 302 301 301 299 295 296 300 301 304 306 302 305 303 300 292 290 291 290
308 308 308 309 308 308 308 308 307 307 307 308 308 308 308 308 311 318 313 300 287 290 294 299 300 301 297 298 299 300 299 298 302 300 297 294 292 301 305 302 300 301 300 293 285 288 291
308 308 308 308 308 308 308 308 307 307 306 307 307 306 305 307 310 312 303 289 289 293 297 296 298 297 296 296 298 299 299 298 301 302 295 294 294 302 304 305 304 300 297 302 295 294 292
309 308 308 308 308 308 308 307 307 307 306 306 305 300 302 308 310 303 294 290 292 299 300 300 292 298 295 294 294 296 297 301 300 303 304 300 293 301 303 306 305 302 304 295 297 287 285
308 308 308 307 307 307 307 307 307 307 306 306 302 293 302 310 309 295 287 293 295 301 303 300 298 295 297 295 295 294 296 299 303 302 304 302 299 298 302 300 299 300 298 299 298 296 289
306 305 306 307 307 307 307 307 307 306 306 304 297 287 306 309 290 292 287 295 296 298 305 302 303 301 299 298 296 294 295 298 303 304 299 303 299 294 296 302 304 303 300 301 294 291 294
304 304 304 306 306 306 306 307 307 306 305 301 290 292 306 303 284 287 293 294 296 297 300 301 300 303 304 299 294 297 298 304 303 303 301 302 297 292 293 297 301 299 301 301 300 298 293
303 304 304 304 306 306 306 306 306 306 306 301 291 285 293 295 297 292 291 290 292 298 298 302 301 304 301 299 300 295 297 300 303 304 302 304 299 295 291 294 298 296 298 300 298 294 294
303 303 304 304 303 304 306 306 306 306 305 301 292 290 294 286 290 294 295 293 291 291 298 301 299 300 300 296 296 295 297 300 301 300 302 303 295 298 297 298 298 297 297 298 297 298 294
303 303 303 303 303 304 305 305 305 305 304 296 287 292 297 293 293 291 293 290 291 293 294 295 296 300 301 298 298 295 298 298 299 302 302 303 296 298 295 298 297 295 297 298 298 298 299
304 303 303 303 303 304 304 305 305 305 303 294 297 300 297 293 292 289 291 292 292 295 297 298 298 297 298 300 303 303 303 302 302 301 301 300 298 295 291 296 296 290 296 298 299 301 301
302 302 302 303 303 303 303 303 304 305 302 301 300 299 294 289 291 289 290 293 293 295 294 298 300 298 302 306 305 304 301 301 303 303 305 300 299 298 292 290 286 297 302 303 300 302 303
302 303 304 303 303 303 303 303 303 304 303 300 304 299 295 290 292 292 291 292 294 297 296 297 300 302 306 301 295 291 293 294 298 302 303 304 300 294 292 290 295 295 297 299 298 299 304
301 301 303 303 302 303 303 303 302 303 303 301 303 306 301 293 291 294 293 293 292 294 296 298 303 308 305 299 296 289 286 287 291 295 299 300 301 299 291 289 287 297 302 305 303 295 305
301 301 302 302 302 302 302 302 303 303 303 301 301 307 302 294 297 297 293 292 296 295 295 297 300 301 304 297 292 290 289 294 288 291 290 292 294 293 294 293 296 302 302 303 293 297 305
301 301 301 302 302 302 302 302 302 302 303 301 299 306 303 296 297 299 300 297 297 297 295 298 298 299 298 293 294 294 293 295 295 296 295 293 292 292 295 292 289 302 300 298 305 306 307
301 302 302 301 301 301 302 302 302 303 302 302 296 303 305 299 292 299 301 303 301 303 301 302 298 298 299 296 298 298 295 295 295 291 299 293 299 298 297 298 306 305 306 307 309 308 306

GFSGBSN_sfc_thetae_051.txt.gz
Theta_e
313 313 315 315 315 314 314 314 315 315 315 314 315 315 315 317 318 320 320 319 319 319 318 318 317 317 317 310 309 322 328 327 318 317 312 312 309 309 305 305 306 305 306 308 310 310 313
311 311 312 314 314 314 314 315 314 313 313 314 314 315 315 316 317 318 318 319 318 318 318 317 317 315 314 304 315 319 324 321 317 316 312 313 311 312 309 307 306 308 308 308 310 311 310
311 311 311 312 313 313 314 314 313 313 313 313 313 313 314 315 315 315 317 317 317 317 317 317 317 316 309 308 317 319 320 317 317 315 312 314 315 311 311 306 310 308 304 308 309 310 309
310 310 311 312 311 312 313 313 313 313 313 312 313 313 313 313 313 313 314 315 317 317 317 316 316 316 306 317 317 318 320 316 317 316 314 315 316 313 310 312 308 303 305 299 303 310 311
311 311 311 311 311 311 311 312 312 313 313 312 312 312 312 312 312 313 314 315 316 317 315 314 315 314 306 314 310 314 320 314 315 315 316 315 314 310 310 303 301 303 297 299 302 309 309
309 311 313 312 311 311 311 311 311 312 313 312 311 311 312 312 312 312 313 315 318 314 315 318 316 309 311 307 310 311 320 318 314 314 311 310 309 305 306 302 294 297 297 300 299 305 307
309 309 311 311 312 312 310 311 311 311 312 312 312 311 311 311 312 312 314 317 312 311 313 305 308 305 306 311 315 311 315 315 313 311 304 308 303 301 304 305 303 302 300 299 302 307 305
310 310 310 310 310 310 311 310 310 310 311 311 312 311 311 311 312 312 316 310 310 313 303 310 311 310 314 312 307 309 317 309 308 304 307 306 301 306 306 305 302 301 300 299 303 305 304
310 310 310 310 310 310 309 311 310 310 309 310 311 311 310 311 311 312 314 312 318 319 303 302 307 308 308 312 306 307 313 311 306 304 305 302 304 307 304 303 300 300 300 299 300 303 304
309 309 310 310 310 310 310 310 310 310 309 309 310 310 309 310 306 310 310 316 318 321 297 296 304 308 310 310 305 312 313 311 307 303 305 304 307 304 303 302 302 297 304 302 301 299 294
309 309 309 310 310 309 309 309 309 310 309 309 310 310 309 308 308 309 314 319 322 317 282 300 303 313 310 305 306 307 313 309 304 304 304 301 303 302 301 302 304 300 305 302 302 300 299
309 309 309 309 309 309 309 309 309 309 309 308 309 310 309 308 309 310 312 321 319 295 283 296 305 303 304 304 304 308 307 311 309 304 304 303 309 306 305 306 305 306 303 302 302 300 292
309 309 309 309 309 309 309 309 308 308 308 308 308 310 308 310 305 312 314 311 294 286 296 295 299 303 302 301 301 303 302 301 298 296 297 301 303 306 307 303 306 304 300 292 291 291 291
308 309 309 309 309 309 309 309 308 308 308 308 308 308 308 308 312 313 307 298 286 291 293 301 301 302 298 301 301 302 301 298 302 301 299 295 294 302 306 303 302 301 300 294 287 289 292
309 309 309 308 308 309 309 309 308 308 308 307 308 307 304 310 313 312 297 287 290 293 297 296 299 297 297 300 301 300 300 299 301 302 297 296 296 305 305 306 305 302 297 304 296 298 293
309 309 309 308 308 308 308 308 308 308 307 307 304 302 302 308 313 307 292 288 293 297 297 298 293 299 296 298 297 299 299 302 300 304 306 301 295 302 303 306 306 303 306 296 298 288 287
308 308 309 308 308 308 308 308 308 308 307 307 301 294 303 311 311 297 285 291 297 299 299 297 296 296 299 299 298 298 298 302 303 302 305 304 300 299 303 301 300 301 300 301 300 297 290
307 308 308 308 308 308 308 308 308 307 307 304 297 288 304 310 291 291 287 294 297 299 301 299 301 302 298 301 299 298 298 301 304 304 299 304 301 296 298 304 306 304 301 302 295 294 297
305 305 305 305 306 307 307 307 307 307 307 301 292 293 308 306 284 287 292 292 295 296 297 297 298 302 304 301 297 300 300 305 305 303 302 303 298 293 295 300 304 301 303 303 303 301 295
304 304 304 305 305 306 306 306 307 307 307 301 292 286 293 296 297 292 290 291 290 298 298 299 298 302 300 301 303 299 300 303 305 304 304 304 300 296 292 296 300 297 299 301 300 296 295
303 303 303 303 304 304 304 305 306 306 306 300 292 290 293 286 290 294 294 292 290 290 298 299 296 297 298 296 298 298 301 301 303 302 304 304 297 298 298 300 300 299 299 299 298 299 295
302 302 303 303 303 304 304 304 305 306 306 297 287 293 296 294 294 292 292 290 291 292 295 295 295 297 300 297 299 298 301 300 299 303 302 305 297 299 296 299 299 296 299 299 299 299 299
303 303 303 304 304 304 304 304 305 306 305 295 295 299 298 293 292 291 291 292 291 295 296 297 298 298 296 300 305 307 305 304 303 301 301 300 299 296 292 297 297 293 297 298 299 301 300
303 303 304 304 304 304 304 304 304 305 305 296 298 299 295 290 292 292 293 294 292 294 294 297 299 298 301 308 307 305 302 300 302 302 304 300 299 298 294 292 287 297 304 303 300 301 303
303 303 304 304 304 304 303 303 303 305 305 298 302 299 296 291 293 293 293 294 295 296 296 296 299 302 306 304 297 294 293 293 296 300 300 304 301 296 292 292 295 298 301 301 299 299 304
303 303 303 303 303 303 303 303 302 303 305 301 305 305 301 293 292 295 292 295 292 294 295 296 303 308 306 299 295 288 285 288 287 291 300 301 303 299 295 289 287 297 303 307 306 296 306
302 302 303 303 302 302 302 303 302 303 304 301 302 306 301 293 297 297 293 294 297 296 295 297 301 301 305 296 291 289 289 293 288 289 292 295 297 294 295 293 295 302 304 307 295 298 307
301 301 301 302 303 302 302 302 302 303 304 301 299 305 302 297 298 298 300 298 296 297 294 298 297 299 298 293 293 292 293 294 293 295 295 294 293 293 296 293 290 306 304 299 306 311 310
301 301 302 301 301 301 302 302 302 303 303 303 298 305 308 299 296 302 304 306 303 303 300 302 300 299 300 296 298 297 297 298 295 291 298 293 299 297 298 298 307 307 308 310 311 310 311

GFSGBSN_sfc_thetae_054.txt.gz
Theta_e
312 312 312 313 314 315 315 315 315 313 313 314 312 315 314 314 315 317 317 317 319 320 320 320 319 319 316 310 311 323 329 324 316 314 312 309 307 307 303 306 306 303 305 307 308 309 310
311 311 312 312 312 312 313 315 315 314 314 311 312 312 313 315 314 315 315 315 316 318 319 319 319 317 314 303 318 321 321 321 316 313 312 310 309 311 307 306 304 307 306 306 308 308 310
311 311 311 312 313 312 312 313 313 314 313 313 312 312 313 313 314 314 314 314 315 316 318 319 318 317 311 308 318 318 319 320 316 314 310 312 313 310 310 306 309 307 302 305 307 308 307
311 312 312 312 312 312 312 312 313 312 314 313 313 311 311 312 312 313 313 313 314 316 318 318 317 315 306 318 320 317 318 316 317 316 313 315 315 311 309 311 307 303 302 297 305 307 309
310 311 311 313 312 312 312 312 312 312 312 313 313 312 310 310 311 312 312 312 313 316 318 317 314 313 304 316 313 315 317 313 314 314 314 315 313 308 307 302 299 301 295 297 301 308 308
310 311 311 311 311 312 312 312 312 311 312 312 313 313 311 311 310 311 311 312 314 316 317 318 316 306 309 305 313 314 315 316 311 310 309 309 307 302 303 300 292 296 296 298 298 305 306
309 309 310 311 311 311 310 312 312 311 311 312 313 313 312 311 311 311 310 313 310 311 313 306 305 302 304 313 313 309 312 314 313 309 301 306 300 296 300 303 304 302 299 297 302 306 304
310 310 310 310 311 311 310 310 311 311 310 310 312 311 312 311 311 311 309 307 307 313 303 309 311 310 311 313 306 309 312 308 307 301 305 302 298 303 306 306 303 301 298 298 302 305 303
310 310 310 310 310 311 310 311 310 310 311 310 310 310 311 311 310 308 304 307 315 315 302 301 304 303 306 309 306 307 308 308 305 301 302 299 302 307 304 303 300 299 297 298 299 302 304
310 309 310 310 310 310 310 310 310 310 309 310 309 310 309 310 304 307 304 313 315 317 296 294 298 302 304 307 302 311 311 307 305 300 302 302 306 304 303 301 302 296 302 301 301 299 293
309 309 309 310 310 310 310 310 310 310 310 310 309 310 309 308 307 307 313 315 318 315 280 298 300 313 307 302 305 305 312 308 302 302 303 300 302 302 300 301 304 300 305 302 300 297 297
309 309 309 310 310 309 309 309 309 309 309 309 309 310 309 307 307 308 315 313 316 293 281 294 304 302 302 303 303 307 306 309 308 303 304 303 308 305 303 305 305 306 302 302 301 298 291
308 309 309 309 309 309 309 309 309 309 309 309 309 309 308 307 303 311 314 308 292 284 295 293 299 302 300 300 301 302 301 300 298 294 296 300 301 305 306 302 305 303 299 291 289 289 289
308 308 309 309 309 309 309 309 309 309 309 309 308 308 307 306 310 310 308 297 283 289 291 300 300 301 298 301 300 300 300 297 302 300 296 294 292 300 305 303 300 301 299 293 285 287 291
308 308 308 309 309 309 309 309 309 309 308 308 308 306 305 308 310 310 297 284 286 290 295 294 297 296 297 301 300 299 299 299 301 301 295 294 294 303 305 305 304 301 296 302 296 297 293
308 308 308 308 308 309 309 309 309 309 308 308 304 302 301 308 312 306 291 286 290 294 296 297 291 297 295 298 297 297 297 301 300 303 305 300 294 302 304 305 305 301 305 295 296 287 286
307 307 308 308 308 308 308 309 308 309 308 308 301 293 302 308 309 295 285 289 293 296 297 294 293 292 294 296 299 297 297 301 303 303 304 302 299 298 302 299 298 299 297 301 300 296 289
306 306 307 307 307 308 308 308 308 308 308 305 298 287 304 307 290 291 288 292 295 294 297 296 297 295 295 298 298 298 297 301 305 304 299 303 300 294 297 303 304 302 300 300 294 292 297
305 306 306 306 307 307 307 308 308 308 308 302 292 292 304 304 284 286 292 290 294 294 294 295 295 297 299 297 295 299 302 305 307 304 302 302 297 291 293 299 302 299 301 301 301 300 295
305 305 306 305 306 305 305 307 308 307 308 303 292 285 294 296 296 290 289 289 289 295 294 295 296 299 297 296 300 298 300 304 307 304 304 303 299 296 290 294 299 297 299 301 300 294 295
305 305 304 305 305 305 305 306 307 307 307 302 292 288 294 284 287 292 293 291 289 289 294 295 294 296 295 293 295 294 301 302 303 303 305 304 296 298 298 299 300 299 298 299 298 298 295
304 304 304 304 304 304 304 305 306 307 307 300 285 290 295 292 292 291 291 291 289 291 292 290 292 295 297 294 296 293 298 301 299 303 301 303 296 298 296 298 298 296 299 299 299 298 298
302 302 302 303 303 303 303 304 304 305 305 298 294 299 296 292 291 289 289 292 291 294 295 295 295 295 295 297 302 304 300 303 304 302 300 300 299 296 291 297 296 290 297 298 299 301 299
302 302 302 302 303 303 303 303 303 304 304 298 294 298 291 287 291 290 291 293 292 293 293 295 297 295 300 306 307 305 302 298 298 303 304 299 298 297 292 292 284 296 303 302 299 300 302
302 303 303 303 303 303 303 303 303 303 304 299 299 297 293 288 292 292 292 293 294 295 295 296 298 300 305 304 297 291 289 289 294 301 300 301 298 294 290 289 294 297 300 299 298 297 303
303 303 303 304 303 303 303 303 303 303 304 301 299 304 299 291 291 295 293 294 292 292 293 296 301 305 303 296 294 286 283 287 286 292 301 300 299 294 295 287 284 297 302 305 304 293 305
303 303 303 303 303 303 303 303 303 303 304 302 299 304 300 291 297 297 293 293 297 294 293 296 297 299 305 294 290 289 287 292 286 287 288 291 290 290 292 290 294 301 303 305 292 295 307
302 302 302 302 303 303 303 303 303 303 303 302 299 304 300 294 298 299 298 295 296 296 292 298 296 298 294 292 291 291 291 291 290 292 293 290 288 290 293 290 287 305 304 297 302 307 311
302 302 302 302 302 302 302 303 303 303 303 303 298 304 307 299 296 303 303 305 303 303 299 300 298 298 298 293 296 296 294 295 293 288 298 290 294 293 296 296 306 306 306 309 310 310 311

GFSGBSN_sfc_thetae_057.txt.gz
Theta_e
312 312 312 313 312 313 313 313 315 315 314 313 311 312 311 313 315 315 314 314 314 315 317 319 320 320 313 306 307 320 326 324 314 311 308 306 303 300 297 299 300 298 300 303 303 304 304
312 312 311 312 312 312 312 312 314 313 314 314 312 311 311 311 312 313 314 313 313 314 315 317 320 318 310 301 315 320 319 316 311 307 307 308 304 305 302 302 299 302 301 301 303 302 304
311 313 313 313 313 312 312 313 313 313 313 314 314 313 310 310 310 310 312 312 312 313 314 316 319 316 308 304 314 313 315 317 314 310 306 309 307 303 304 301 306 304 298 300 300 303 303
311 311 311 312 313 313 313 313 313 312 313 313 313 313 312 310 310 309 310 311 311 312 314 316 318 311 303 314 314 314 314 312 317 314 311 311 309 305 303 305 303 299 297 291 298 303 305
310 311 311 312 312 312 312 312 312 312 312 312 312 312 312 311 310 310 310 311 311 313 314 316 312 307 302 316 310 312 313 310 312 313 310 312 308 303 302 296 293 294 289 292 295 303 304
310 310 311 311 312 312 312 311 312 312 312 312 312 312 312 312 311 310 310 310 311 312 314 317 314 303 309 304 310 313 313 311 309 308 305 304 300 296 295 291 286 291 293 291 292 299 303
309 309 309 310 311 312 310 311 311 311 312 312 311 312 312 312 311 310 308 304 303 305 309 305 304 302 303 309 312 308 311 308 308 304 296 300 293 291 293 296 298 297 296 293 294 301 300
308 309 309 310 311 311 311 311 311 310 310 311 311 311 311 311 311 310 306 300 305 304 297 309 310 308 310 313 304 307 309 302 303 298 299 296 293 298 300 300 299 300 295 293 297 304 299
309 309 309 309 310 310 310 311 311 310 310 310 311 310 310 310 310 306 301 301 308 305 297 299 304 303 304 307 304 304 305 303 301 298 298 294 298 302 300 298 298 298 294 293 294 299 297
308 309 310 309 310 310 310 310 310 310 310 310 310 310 309 308 303 302 299 311 311 307 291 293 296 300 303 303 301 309 309 303 302 298 299 297 302 300 299 298 299 293 300 298 297 294 289
308 308 309 310 310 310 310 310 310 310 310 310 309 310 309 308 301 299 307 308 310 308 273 294 296 306 303 297 301 302 309 304 298 299 299 296 298 298 297 299 302 297 303 300 298 293 290
307 308 308 309 309 309 309 309 310 310 310 310 309 309 309 304 303 303 307 306 308 291 279 291 301 299 296 297 299 303 302 305 304 300 300 299 303 301 300 303 303 303 300 299 297 292 285
307 308 308 308 309 309 309 309 309 309 310 309 309 309 307 304 297 305 310 303 288 281 291 288 296 299 298 295 295 297 297 295 293 291 292 297 298 302 304 298 302 299 295 285 283 283 282
307 307 308 308 308 309 309 309 309 309 309 309 309 308 307 304 303 305 305 294 281 286 287 295 293 296 295 297 296 296 294 292 297 296 292 290 289 298 302 299 297 296 294 286 281 282 285
307 307 307 307 308 309 309 309 309 309 309 309 308 305 303 304 303 306 296 284 282 287 291 289 290 288 292 297 297 296 295 294 297 297 291 290 291 301 301 302 301 298 292 297 290 295 286
306 306 307 307 308 308 308 309 309 309 309 308 302 301 299 305 304 299 290 285 288 293 293 291 285 291 287 293 295 294 294 298 297 300 300 296 290 299 301 302 301 298 301 291 291 284 282
305 306 306 307 307 307 308 308 309 309 309 308 300 294 300 306 304 294 284 285 289 294 295 291 288 287 288 289 291 291 294 298 299 300 300 298 293 294 300 297 295 295 294 296 295 292 284
304 305 305 306 306 307 307 308 308 309 308 306 298 288 301 304 289 290 285 288 293 292 295 293 293 291 289 290 290 291 292 297 301 300 296 298 295 289 293 301 302 300 296 295 289 289 290
303 304 305 305 306 306 306 307 308 308 308 303 293 292 302 300 283 284 289 289 291 290 292 291 291 292 293 290 288 296 298 302 305 301 297 298 293 288 291 295 299 296 297 298 297 296 290
303 304 304 305 305 306 306 307 307 307 308 303 292 284 292 295 292 286 285 286 286 293 291 292 292 293 290 289 293 294 296 301 303 302 303 301 294 291 286 290 296 293 296 297 296 287 290
303 303 304 304 305 305 306 306 307 307 307 303 290 286 291 285 286 287 287 288 286 287 292 291 289 289 289 286 290 291 297 299 302 303 302 300 292 294 295 297 298 297 297 296 295 296 291
303 303 303 304 304 306 305 305 305 305 306 300 285 288 292 288 291 288 288 286 286 288 289 288 287 289 291 287 289 290 297 297 296 300 298 301 291 293 291 296 296 295 297 297 297 298 298
303 303 304 304 304 305 305 305 305 305 305 298 294 294 293 289 288 287 286 286 288 290 291 293 291 289 288 290 295 301 301 300 299 297 295 296 293 291 287 294 294 288 293 296 297 298 297
303 303 303 303 303 304 304 304 304 304 304 299 295 296 290 286 287 286 288 289 288 291 289 292 294 290 293 303 304 300 298 298 298 298 300 292 294 291 284 287 282 293 299 298 297 299 298
302 302 302 302 302 303 302 302 303 303 304 300 296 295 292 285 289 288 289 288 290 292 291 292 294 296 297 293 290 289 287 290 293 297 297 297 294 286 285 286 290 294 297 295 295 294 299
302 302 303 303 303 303 303 302 302 303 303 301 299 298 295 288 287 292 289 290 288 288 289 291 297 298 296 290 287 283 281 287 286 289 297 293 297 289 284 282 281 291 299 303 301 289 301
302 302 303 303 303 303 303 303 303 303 303 301 298 299 295 287 293 294 290 289 293 291 289 291 293 293 296 286 283 283 284 291 284 284 284 285 285 285 285 284 288 298 301 303 289 289 302
303 303 303 303 303 303 303 303 303 303 303 301 298 300 295 290 294 297 299 293 293 293 288 291 291 293 291 284 284 282 280 288 288 290 289 287 284 283 286 283 282 301 301 294 296 302 303
302 302 302 302 302 302 303 303 303 303 303 303 296 301 301 295 295 300 301 302 301 300 296 294 292 293 293 288 287 287 282 285 286 283 295 287 291 289 290 288 300 301 303 304 304 302 305

GFSGBSN_sfc_thetae_060.txt.gz
Theta_e
312 312 312 312 312 312 313 313 314 314 313 314 314 314 313 313 312 311 311 312 313 313 313 313 316 319 313 306 306 315 325 323 313 308 305 303 301 298 294 296 297 296 298 300 301 302 306
311 313 313 313 312 312 312 312 313 313 314 313 313 314 314 313 313 311 311 311 312 312 313 313 314 318 309 298 310 315 317 313 309 305 305 305 303 302 299 299 297 300 301 300 300 300 307
311 311 313 313 313 313 313 313 313 313 313 313 313 313 313 313 313 312 312 311 311 311 313 313 313 315 306 301 310 310 314 312 311 308 304 306 307 301 300 299 303 302 297 298 299 298 302
310 311 311 312 312 312 312 313 313 313 313 313 313 313 312 312 312 312 311 311 310 311 312 313 314 313 300 312 312 312 312 310 312 313 309 309 307 302 300 302 300 296 295 290 296 297 302
309 310 310 311 312 312 312 312 312 313 313 313 312 312 312 311 312 311 311 311 311 312 312 314 310 306 299 315 310 312 310 307 310 312 310 312 306 300 300 294 290 292 287 290 294 300 300
309 309 310 310 311 311 312 312 312 312 312 312 312 312 312 312 311 311 310 310 310 311 310 315 314 299 304 300 309 310 310 309 307 307 305 302 298 294 293 290 284 287 289 289 291 295 301
309 308 309 309 309 310 310 311 312 311 311 312 312 311 311 311 311 310 308 303 299 301 306 303 304 300 301 306 313 307 310 307 305 302 296 298 292 290 292 293 295 294 292 291 294 300 300
307 307 307 308 309 310 310 311 311 311 311 311 311 311 310 311 310 310 306 298 299 299 292 303 306 307 308 310 303 307 309 301 300 295 297 294 291 296 298 297 295 294 292 293 295 301 297
306 305 306 308 309 310 310 311 311 311 311 311 311 311 310 309 309 305 301 300 305 304 293 298 303 303 305 308 302 303 305 301 298 296 296 293 295 299 298 296 294 294 292 293 293 295 296
304 307 308 308 308 309 310 310 311 311 310 310 310 310 309 308 301 301 298 306 307 305 287 290 295 298 301 303 298 306 306 301 298 296 298 294 299 298 296 295 296 291 298 297 295 291 287
306 307 308 308 308 309 310 310 310 310 310 310 310 310 309 308 298 297 303 306 307 303 270 288 295 305 302 296 298 301 306 302 295 298 298 295 297 296 295 296 299 295 300 298 297 291 288
306 307 307 308 308 308 309 309 309 309 310 310 310 310 309 304 300 301 304 305 304 288 276 289 297 295 295 296 296 301 301 304 302 297 298 297 302 299 299 301 300 302 298 297 294 291 284
306 306 306 307 308 308 309 309 309 309 309 310 310 310 308 304 294 301 304 302 287 280 290 286 295 297 294 292 293 295 295 294 293 289 289 295 297 300 301 296 299 298 291 284 283 282 282
305 305 306 307 307 308 308 308 309 309 309 309 308 308 307 304 301 301 302 294 280 285 284 292 292 291 294 293 292 294 293 290 296 294 290 287 286 296 301 297 295 294 293 285 281 280 283
304 305 305 306 307 307 308 308 308 309 309 308 308 305 303 302 301 302 294 283 283 286 290 288 289 286 287 294 295 292 291 291 294 296 289 289 289 299 300 301 299 295 290 296 289 289 284
304 304 305 305 306 306 307 308 308 308 309 308 303 301 300 303 301 299 289 284 287 292 292 291 284 287 284 287 290 289 292 296 294 297 298 293 288 296 299 300 300 298 299 289 289 282 281
303 304 305 305 305 305 307 308 308 308 309 308 301 293 301 304 302 292 282 284 288 293 293 290 287 286 287 287 290 290 292 295 297 297 299 295 292 292 296 294 293 294 292 294 293 289 282
303 303 303 304 305 305 306 307 308 308 308 306 299 287 301 304 288 288 284 287 292 290 293 292 292 290 288 290 289 289 290 294 301 301 294 297 292 287 291 297 299 298 295 294 287 287 288
302 303 303 304 304 305 305 306 307 307 307 302 294 292 301 298 282 283 286 287 289 289 290 290 289 291 291 287 286 290 293 300 303 301 297 298 291 285 287 293 297 294 295 297 295 293 288
302 302 303 304 304 304 305 305 306 307 308 303 290 284 292 294 290 286 284 284 286 292 289 290 290 291 289 287 289 287 290 298 303 302 302 300 295 290 285 288 293 291 294 296 294 286 288
302 302 303 303 303 304 305 305 306 306 307 303 289 286 290 285 286 287 287 286 284 285 291 291 288 288 287 284 286 285 291 297 301 302 301 299 291 293 294 294 295 295 295 295 293 293 289
301 302 302 302 303 304 304 305 305 306 306 299 284 287 291 286 290 287 287 284 284 287 288 287 286 288 288 285 287 285 288 289 295 299 297 298 290 293 290 294 294 293 295 296 296 294 294
301 302 302 302 303 304 304 304 305 305 305 297 298 294 293 289 289 286 285 285 286 288 289 291 290 288 287 288 291 292 297 298 299 295 294 292 291 288 284 291 292 286 292 295 295 297 295
302 302 302 303 303 304 304 304 305 305 305 299 296 296 290 285 287 286 288 288 287 288 287 290 291 289 292 296 299 298 296 296 297 297 298 291 289 289 284 285 281 292 298 297 295 297 298
302 302 302 303 303 303 303 304 304 304 305 299 298 295 291 285 287 287 288 288 289 289 288 290 293 294 296 292 288 285 283 286 290 296 298 298 292 285 284 284 289 293 295 295 294 294 299
301 302 302 302 302 302 302 302 303 303 304 301 298 298 293 288 287 291 288 289 286 286 286 289 295 296 294 288 284 279 276 283 284 289 297 293 293 287 284 281 279 290 297 300 299 288 298
301 301 301 302 302 302 302 302 302 302 303 300 298 299 293 285 291 292 288 287 290 288 285 288 290 290 293 284 279 280 280 287 282 282 283 283 282 283 284 283 286 295 300 301 289 289 299
301 301 301 301 302 302 302 302 302 302 302 300 296 299 294 288 290 295 296 290 291 290 285 288 289 290 289 284 282 281 278 285 285 288 286 284 282 282 285 283 280 300 300 292 295 301 303
302 302 302 302 302 302 302 303 303 303 303 302 294 300 300 293 292 299 299 301 298 297 292 291 290 290 292 287 284 284 279 279 284 281 292 284 289 286 288 287 298 300 301 304 303 301 303

GFSGBSN_sfc_thetae_063.txt.gz
Theta_e
312 313 313 313 313 313 312 312 313 314 313 313 314 313 312 313 314 313 313 312 312 312 311 312 313 314 312 303 303 312 325 324 313 305 302 301 299 297 293 293 295 293 296 299 300 299 301
311 311 312 312 312 312 313 313 313 313 313 313 313 314 313 312 312 313 313 312 312 312 312 311 313 313 307 296 305 311 315 312 306 304 303 303 300 301 297 296 295 298 299 299 299 299 307
310 310 311 312 312 312 311 313 313 313 313 313 313 313 313 312 312 312 313 312 312 312 312 311 312 310 304 299 307 307 307 307 308 306 302 304 304 300 299 296 300 300 295 296 297 296 303
310 310 309 311 312 312 312 312 312 312 312 313 312 312 312 312 312 312 312 312 311 312 312 312 312 310 299 310 308 309 308 308 310 307 307 307 305 301 298 299 298 294 293 288 294 295 298
309 310 310 311 311 311 311 311 312 312 312 312 313 312 312 311 311 311 310 310 311 312 312 312 308 306 297 312 308 312 310 306 307 309 309 312 305 299 298 293 289 290 285 288 292 296 296
309 309 309 309 310 311 310 311 311 312 312 312 312 312 312 311 310 309 309 310 310 309 308 312 312 299 301 298 305 309 310 307 304 305 305 303 298 293 291 290 284 285 286 287 288 293 297
308 308 308 308 308 309 309 310 311 311 312 312 312 311 312 311 310 309 306 301 295 297 301 298 300 300 301 306 311 307 309 304 303 301 295 296 291 289 293 293 293 292 290 288 291 296 297
306 307 307 307 307 308 309 310 311 311 312 312 312 311 311 311 310 309 304 297 297 299 293 300 298 301 307 309 301 303 307 300 298 293 297 293 290 295 296 295 294 292 290 289 293 296 297
306 306 306 305 306 308 309 309 311 311 311 311 311 311 310 310 309 301 298 299 306 304 293 296 299 297 297 305 300 300 303 300 296 293 294 292 294 298 296 293 292 291 290 290 290 293 293
305 306 305 305 306 307 308 309 310 311 310 310 310 310 309 309 299 299 297 304 304 306 286 287 294 297 300 304 298 305 304 300 296 293 295 293 298 296 294 293 293 289 295 294 293 290 286
305 305 305 306 306 307 308 309 309 310 310 310 310 310 309 309 296 294 301 304 305 302 271 288 294 302 300 295 295 299 304 299 293 295 296 293 295 294 293 294 296 293 297 295 294 290 286
304 304 305 306 306 307 308 308 309 309 309 310 310 310 309 304 300 300 302 302 304 287 274 287 295 294 294 295 295 300 298 302 300 294 295 295 299 297 296 299 298 299 296 295 292 289 283
304 304 304 304 305 306 307 308 308 309 309 309 309 310 308 303 294 299 300 298 286 279 288 285 291 294 293 291 292 293 293 292 291 287 287 293 295 298 299 294 297 295 290 283 281 281 282
303 303 304 304 304 305 307 308 308 308 308 309 308 308 307 304 301 300 298 292 280 284 285 290 289 289 290 292 291 291 290 287 292 292 288 286 284 294 298 296 294 292 291 283 280 279 282
302 302 303 304 303 305 306 306 306 307 308 308 308 305 302 301 300 299 291 283 283 286 289 288 288 284 286 291 294 291 289 288 291 294 288 287 286 297 298 299 298 293 288 295 287 286 283
301 302 303 303 304 304 305 306 307 307 307 308 303 301 300 301 301 294 286 284 287 292 292 291 284 286 282 286 288 290 291 295 292 295 297 293 286 295 298 298 297 295 297 288 287 281 280
301 301 302 303 303 304 305 305 306 307 307 308 301 294 301 303 301 290 280 283 288 292 292 289 287 285 286 285 287 288 290 294 297 298 297 294 291 290 295 292 291 291 291 292 291 287 283
301 301 302 303 303 304 304 305 306 306 307 305 299 288 301 303 287 287 282 286 291 289 292 290 291 289 287 288 286 287 288 292 301 300 295 296 291 286 290 296 297 295 293 294 287 286 286
301 301 302 302 303 303 304 304 305 306 307 302 293 291 301 298 282 283 286 286 288 288 289 288 288 290 290 286 282 287 290 297 302 300 297 298 291 283 286 291 293 291 293 294 293 290 288
301 302 302 302 303 303 303 303 304 305 306 302 288 284 292 294 289 285 284 284 284 290 288 289 288 289 287 286 288 285 287 293 298 302 301 300 293 290 283 287 291 289 292 294 293 286 287
301 301 301 301 302 302 303 303 304 305 305 301 287 285 291 284 286 287 287 286 284 283 289 290 286 286 285 282 284 284 287 292 297 301 300 297 290 291 291 293 294 293 293 293 291 292 287
301 301 301 302 302 302 303 303 304 304 305 297 284 287 291 286 290 287 287 285 284 286 287 286 285 288 287 283 285 283 286 286 289 295 297 297 287 290 286 293 292 291 292 293 292 292 291
301 301 301 301 301 302 303 303 303 304 304 295 295 295 293 289 288 286 285 285 286 289 289 289 289 287 285 287 289 291 290 291 293 294 292 292 289 286 283 289 289 285 291 292 293 296 293
301 301 301 301 302 302 303 303 303 303 304 299 297 295 289 285 286 286 288 288 286 288 285 289 290 288 291 294 295 295 293 294 295 296 296 290 288 286 282 285 278 290 294 296 294 296 297
301 301 301 302 302 302 302 303 303 303 304 299 298 296 291 285 288 288 288 288 288 289 288 288 290 293 295 291 286 283 281 284 288 294 295 294 289 284 280 281 286 288 293 293 292 292 297
301 302 302 302 302 301 302 303 303 303 304 302 299 300 294 288 286 291 288 289 286 285 286 288 293 296 293 287 283 280 276 280 282 289 296 295 294 286 284 280 277 285 294 297 298 287 297
301 301 302 302 302 302 302 302 302 302 303 302 298 299 293 285 291 293 288 287 291 287 284 287 289 290 292 281 280 280 279 284 279 282 284 285 285 284 283 280 284 292 297 301 288 288 300
301 301 301 301 301 301 301 301 302 303 302 301 298 300 294 287 290 295 295 292 291 290 284 287 288 287 284 280 280 280 276 282 283 285 284 283 281 279 282 280 279 298 295 289 295 299 301
301 301 302 302 302 301 302 302 302 302 302 301 294 300 300 292 289 297 296 297 297 296 291 291 289 290 289 284 282 283 278 277 282 279 289 283 286 283 285 286 295 297 296 299 300 301 301

GFSGBSN_sfc_thetae_066.txt.gz
Theta_e
311 311 312 312 312 312 313 313 313 313 313 312 312 311 312 311 312 312 313 312 313 313 312 311 312 313 309 300 299 309 324 324 315 305 301 300 298 296 292 292 294 291 294 296 298 298 297
310 310 310 311 311 311 311 311 311 313 313 313 313 312 312 311 311 311 312 312 312 312 312 312 312 312 304 294 302 307 307 310 304 301 301 300 299 299 295 294 293 296 296 297 297 297 305
309 309 310 310 311 311 310 311 311 312 312 313 313 313 313 312 311 311 311 311 311 311 312 312 312 308 302 297 306 306 308 304 305 303 301 303 302 299 297 294 298 297 293 294 295 295 299
309 309 308 308 311 311 311 310 310 310 311 311 311 312 312 312 311 311 311 310 309 310 311 311 311 307 296 310 307 308 306 305 307 306 304 305 304 299 297 299 296 292 291 287 293 294 297
308 309 309 309 309 310 310 310 310 310 310 312 312 312 312 311 311 310 310 309 308 311 312 312 305 303 295 311 305 309 308 303 303 306 305 309 303 297 296 292 288 289 284 286 290 294 297
308 307 308 309 309 308 308 310 310 311 311 312 312 312 311 311 311 310 309 307 309 308 308 308 309 295 298 295 303 308 308 307 302 303 303 302 298 292 290 288 283 286 285 285 286 290 293
307 307 307 307 307 306 307 308 310 310 311 311 312 312 311 311 311 310 305 299 295 296 297 296 297 297 300 308 310 305 306 303 300 299 292 297 291 288 290 291 291 290 288 286 289 293 292
306 306 306 305 305 306 306 307 309 310 311 311 311 311 311 311 310 309 301 296 297 298 291 298 298 298 302 306 299 301 305 298 296 292 295 291 290 295 295 294 293 291 288 287 291 294 293
306 305 304 305 305 304 306 307 309 309 310 310 310 310 310 310 309 299 295 297 304 302 292 294 298 297 298 300 296 297 300 299 294 291 293 291 293 297 294 292 291 290 288 287 288 290 291
306 305 305 306 305 304 306 307 307 308 310 310 310 310 309 309 300 298 295 303 304 304 286 287 292 295 298 301 295 302 301 298 295 291 293 292 297 294 292 291 292 287 292 292 290 288 284
305 305 305 305 304 305 306 306 307 307 309 309 309 309 309 309 295 295 299 304 303 302 270 287 293 300 300 293 293 298 303 298 292 293 293 290 292 293 291 292 294 291 295 292 291 288 286
304 304 304 304 304 305 305 305 307 308 309 309 309 309 309 304 302 300 302 301 302 284 273 284 293 293 293 294 293 298 298 300 298 294 294 293 297 295 295 297 296 297 294 292 291 288 281
304 303 304 304 303 303 304 305 306 307 308 308 308 309 307 303 294 299 299 299 285 277 287 284 287 293 292 291 291 293 292 290 289 286 286 291 293 296 297 293 295 293 290 282 281 281 281
304 303 303 303 303 303 303 304 306 306 307 307 307 307 305 303 300 300 297 289 279 284 284 291 289 289 288 291 291 290 288 286 291 291 287 284 283 293 297 295 292 292 290 282 279 279 282
302 302 303 302 302 302 303 304 305 305 306 307 306 303 302 303 300 298 288 280 281 285 288 287 288 284 285 289 291 290 288 286 288 292 288 286 286 295 297 299 298 291 287 292 285 284 282
302 303 302 302 302 302 302 303 304 305 306 306 298 300 299 302 303 297 285 279 286 291 290 289 283 285 282 286 287 289 291 294 292 293 295 291 285 294 297 297 296 294 296 287 285 280 279
301 301 301 301 301 302 301 302 304 305 305 306 299 292 301 303 302 291 280 280 285 290 291 287 286 285 285 284 286 286 288 295 298 298 294 292 289 289 293 290 290 291 290 289 289 285 280
300 300 300 300 300 301 301 302 303 304 304 302 296 287 300 302 287 287 282 284 290 287 291 289 290 288 286 286 284 285 287 294 297 299 292 296 289 283 288 295 296 293 291 292 284 283 284
300 300 300 300 300 301 301 302 303 304 304 298 291 292 300 299 282 283 286 285 286 287 288 287 287 288 289 285 281 285 288 296 299 298 296 297 291 283 285 290 293 290 292 292 292 288 285
299 300 299 299 300 302 302 302 303 303 304 299 288 283 291 294 291 286 284 284 283 288 287 288 287 288 286 285 287 284 286 291 295 298 301 300 293 290 284 287 291 289 291 292 291 285 285
300 300 300 300 301 301 302 302 302 302 303 298 289 284 290 283 286 287 287 286 283 284 287 288 285 285 284 281 283 282 286 289 291 295 298 295 287 291 292 292 292 290 289 290 290 289 286
299 300 300 300 301 301 301 301 302 302 303 296 284 286 291 288 290 287 286 284 284 285 286 284 284 287 286 283 284 282 285 285 285 290 293 295 286 289 286 291 291 288 290 291 292 291 290
300 300 300 300 301 301 301 301 301 302 302 294 294 294 292 289 288 286 284 286 285 288 289 289 288 287 285 286 288 289 289 289 289 287 287 290 287 284 281 288 288 282 288 288 289 292 292
300 301 301 301 301 301 301 301 302 302 302 297 294 294 288 284 286 286 288 287 287 288 286 289 289 287 291 292 292 291 289 288 288 288 290 288 287 284 279 281 276 285 295 293 292 292 292
300 300 301 302 301 301 301 301 301 302 303 298 298 295 290 283 288 287 288 287 288 289 288 288 290 292 295 292 287 283 281 284 287 291 291 292 287 281 277 278 283 286 289 291 290 288 293
301 301 301 301 302 301 301 301 302 302 303 300 298 299 295 287 285 291 288 290 286 285 286 288 293 295 292 287 284 280 277 280 280 286 293 291 290 286 282 276 273 282 293 299 298 284 296
301 301 301 301 300 301 302 302 302 302 303 300 298 300 294 286 292 292 288 289 291 288 285 287 289 289 291 281 281 280 279 284 278 282 282 285 285 283 283 281 282 290 295 300 286 283 295
300 300 301 300 300 300 301 301 301 302 303 301 297 300 294 288 292 295 295 291 291 290 284 287 287 288 286 282 281 282 277 281 281 284 284 283 281 281 282 281 277 295 294 289 294 295 295
300 301 300 301 301 300 301 301 301 301 301 302 293 300 300 292 290 296 298 298 295 296 291 291 289 288 287 282 281 281 277 276 281 278 287 281 285 282 284 282 291 295 294 298 297 296 297

GFSGBSN_sfc_thetae_069.txt.gz
Theta_e
310 310 311 311 311 311 311 311 311 312 312 312 312 312 312 312 312 311 312 312 312 311 312 312 313 313 309 298 297 309 318 325 320 309 304 303 302 300 298 297 297 296 298 299 300 301 301
309 309 309 310 310 309 310 310 311 312 312 312 312 313 312 311 312 312 312 312 311 311 310 311 312 312 306 289 303 309 308 310 309 305 303 304 302 303 300 298 297 300 298 300 302 302 303
309 308 309 309 309 309 310 310 310 310 311 311 312 312 312 311 311 312 311 311 311 311 311 310 311 308 299 294 306 308 308 306 308 305 303 304 305 303 302 298 301 301 298 299 300 300 300
310 308 309 310 310 310 309 310 310 310 310 311 311 312 312 312 312 311 311 311 310 310 310 310 311 305 295 307 310 309 308 306 307 307 306 308 308 304 302 302 300 297 296 293 297 300 302
309 309 308 309 309 309 309 309 309 309 310 311 311 312 312 311 311 311 311 310 310 310 311 311 305 302 293 309 305 309 308 302 305 306 306 308 306 302 300 296 293 293 290 291 294 299 303
308 308 308 307 307 308 307 307 309 309 310 311 311 311 311 311 311 310 309 309 308 309 309 308 307 295 297 294 304 309 309 308 303 303 303 302 302 297 296 294 286 289 290 291 292 297 298
308 307 307 306 306 306 306 306 307 308 309 310 311 311 311 311 311 310 306 300 297 296 298 296 297 295 298 306 310 307 309 306 303 300 295 301 295 292 294 296 294 294 292 291 294 297 295
307 307 307 306 305 306 305 305 307 308 309 309 310 310 310 311 310 308 301 297 297 297 290 298 298 298 302 304 297 302 308 298 297 294 295 295 292 297 298 296 295 293 292 292 295 297 296
305 306 306 306 304 305 306 305 307 308 309 309 310 310 310 310 309 300 298 298 303 302 292 294 298 297 297 299 294 296 303 301 296 293 294 291 295 299 296 294 293 293 292 292 292 294 296
304 305 306 305 305 306 304 304 306 307 307 308 309 309 309 309 300 298 295 303 304 302 286 287 292 296 298 299 293 300 301 300 297 293 294 293 296 296 295 294 295 290 295 294 293 291 287
304 304 305 305 304 305 305 304 305 306 306 307 308 309 309 308 298 296 299 304 304 302 273 287 292 301 301 294 294 298 302 298 291 294 295 292 294 294 292 294 296 293 297 294 294 291 290
303 304 304 304 304 305 305 304 304 305 306 307 308 308 308 304 303 302 303 301 302 284 274 285 293 293 294 295 294 299 297 300 298 295 296 295 299 297 296 297 297 298 295 295 294 292 286
302 303 303 304 304 304 304 304 304 304 305 306 307 307 306 305 297 301 301 298 284 278 288 285 287 291 290 291 292 293 293 291 289 286 287 293 294 298 299 295 297 296 293 286 285 285 284
301 302 302 303 303 302 303 303 304 304 305 306 306 306 304 305 302 302 298 289 277 284 285 291 290 289 288 291 291 291 289 287 292 291 287 286 284 294 299 296 294 293 293 287 281 283 286
301 300 302 302 303 303 302 302 303 304 304 305 305 301 301 303 303 301 291 279 281 284 289 287 288 285 286 289 290 291 289 288 290 293 288 286 286 296 298 300 299 293 290 296 289 289 287
300 301 302 302 302 302 302 302 302 302 303 304 298 298 297 304 304 298 286 280 284 291 290 289 283 286 283 286 286 289 291 295 295 296 296 293 287 294 296 299 299 297 298 289 289 282 281
299 300 300 301 301 301 301 301 301 302 303 304 296 290 300 304 303 291 281 283 284 289 289 287 286 285 286 285 286 285 290 295 296 298 296 294 292 291 295 293 292 293 292 293 293 290 285
299 299 300 301 301 300 300 300 301 301 303 300 293 285 301 303 287 287 283 285 289 287 291 290 290 288 287 286 285 286 287 292 295 300 294 297 291 286 289 296 297 296 294 294 288 287 289
299 299 299 300 300 300 300 300 301 302 302 295 289 290 300 300 282 283 287 286 286 287 288 288 287 289 289 286 283 286 288 295 295 294 295 297 291 286 287 292 296 293 293 294 294 293 288
299 299 299 299 300 299 299 300 301 301 302 296 289 283 290 293 292 287 284 284 283 288 287 289 288 289 287 286 288 285 287 291 294 293 299 300 294 289 285 288 292 290 292 293 292 287 288
299 299 299 299 299 299 299 300 301 301 302 295 288 284 289 282 285 287 287 286 283 283 288 288 286 287 285 282 284 285 287 289 291 294 299 297 289 292 292 292 293 291 291 291 289 291 288
299 299 299 299 299 299 299 300 301 301 302 292 285 285 290 288 289 287 287 285 284 285 287 284 284 287 287 284 285 283 286 286 286 291 291 293 288 291 288 292 292 289 291 291 291 292 292
300 299 299 299 300 300 301 301 301 302 300 291 293 293 290 286 287 285 285 286 286 288 289 290 288 287 286 288 291 291 291 291 290 288 287 288 290 287 283 288 289 283 288 290 293 293 293
301 300 300 300 300 300 300 300 301 301 300 295 294 293 286 281 285 286 288 288 287 288 286 289 290 288 291 295 295 293 291 290 290 289 290 286 287 287 283 284 277 288 293 294 293 294 296
301 300 300 300 300 300 300 301 301 301 301 296 296 293 288 282 285 286 288 287 289 290 288 289 291 293 295 292 287 284 284 286 288 289 289 290 288 285 282 281 285 288 290 290 291 291 297
301 300 300 301 301 301 301 302 301 301 301 298 296 298 293 285 284 289 288 289 286 286 287 289 294 297 295 289 286 279 278 281 281 286 292 290 291 287 284 279 277 286 293 300 298 286 298
301 301 301 301 301 301 301 301 302 301 301 298 296 299 293 285 291 291 288 288 291 288 286 288 290 289 293 286 282 280 279 285 280 282 282 284 285 282 283 282 286 292 295 301 286 289 299
301 301 301 301 301 301 301 301 301 301 301 299 296 300 294 287 291 295 295 292 291 290 285 289 287 288 287 283 283 282 282 284 283 286 285 284 283 283 284 282 279 295 296 291 294 299 299
301 301 301 301 300 300 300 300 300 302 302 301 294 300 300 291 291 297 299 300 298 296 292 291 289 289 290 286 285 286 282 283 284 280 289 283 288 286 288 288 294 297 297 299 300 298 300

GFSGBSN_sfc_thetae_072.txt.gz
Theta_e
309 309 310 310 310 310 311 311 311 312 311 312 312 312 312 312 312 312 313 313 312 311 311 311 311 313 310 301 299 311 323 325 320 316 310 309 307 305 302 303 304 302 303 305 306 306 306
310 309 309 310 310 309 310 310 310 311 311 311 312 312 312 311 312 311 312 312 312 311 311 311 310 311 306 296 305 310 312 314 314 315 311 310 307 309 304 304 302 304 304 304 305 305 306
311 311 309 309 310 309 309 310 310 311 311 311 312 312 312 312 312 312 312 312 311 311 311 311 310 309 303 300 307 311 310 309 314 311 310 311 311 306 306 303 306 304 300 302 304 305 304
309 310 310 309 310 310 310 309 308 309 310 310 311 312 312 312 312 312 312 311 311 311 311 312 311 308 298 308 312 308 309 305 311 312 310 311 311 308 306 307 303 300 301 297 302 303 305
308 308 308 309 309 308 309 308 308 308 309 309 310 312 312 311 311 311 311 310 310 310 311 311 308 305 296 309 305 307 308 303 304 306 308 311 310 306 306 300 298 300 295 297 299 304 304
307 307 308 308 307 307 307 307 307 307 308 310 310 311 311 311 311 310 310 310 309 309 311 310 308 299 301 297 305 310 312 309 304 303 305 306 306 303 302 299 291 295 295 297 297 301 303
307 307 308 307 307 306 307 306 306 307 308 309 309 310 311 311 311 310 308 307 302 301 301 299 299 299 300 306 311 308 312 308 306 301 298 304 299 296 300 301 301 300 297 296 299 301 300
306 306 306 307 307 305 305 306 306 307 307 308 308 310 310 310 310 309 306 301 298 298 292 300 300 299 301 304 298 303 311 302 300 295 298 300 296 300 303 302 300 299 296 296 299 301 299
305 305 305 305 307 306 304 306 305 306 307 307 308 309 309 309 309 307 304 301 305 306 294 296 300 299 300 302 296 297 307 302 298 297 295 295 298 300 300 299 297 298 296 296 296 299 300
304 304 305 305 306 305 304 305 304 304 305 307 308 309 308 308 304 305 303 306 307 308 290 290 294 298 301 300 294 300 304 302 299 295 297 297 300 297 298 297 299 294 300 298 297 295 291
303 304 304 305 305 305 305 305 304 304 305 306 307 308 308 308 305 301 304 309 307 305 279 290 293 303 301 296 296 299 303 297 292 296 297 295 296 294 293 297 298 296 301 298 298 296 295
303 303 303 303 304 304 305 305 304 304 304 305 306 307 307 306 307 306 309 308 304 289 278 287 295 294 295 296 295 300 297 300 298 292 296 296 302 300 297 300 301 301 298 298 298 296 288
303 302 302 303 303 303 304 303 303 304 304 304 305 306 305 306 299 308 309 301 287 281 290 287 289 292 291 291 294 295 295 290 290 285 286 292 293 299 301 296 299 299 296 290 288 288 287
301 301 301 302 302 303 303 303 304 304 303 303 305 305 305 305 310 306 304 292 280 284 287 293 292 292 289 293 294 294 293 291 292 292 288 285 285 294 300 298 295 296 296 291 284 287 290
300 300 300 301 301 302 302 303 303 302 303 303 304 304 304 306 310 305 294 283 283 286 290 289 291 287 288 291 292 294 295 294 293 294 287 287 288 297 298 300 299 296 293 299 293 293 290
300 300 300 300 301 302 302 302 302 302 302 303 300 299 298 308 311 300 288 283 286 293 292 292 285 289 285 288 289 292 294 297 296 298 297 294 287 294 298 299 300 299 301 292 293 285 284
299 299 299 299 300 301 301 301 302 301 301 302 299 293 301 309 308 292 282 285 288 292 292 289 288 287 288 286 289 289 292 295 296 298 299 296 293 292 296 294 294 296 295 296 296 293 287
299 299 299 299 299 300 301 301 301 301 301 299 295 285 304 307 289 289 284 289 291 290 293 291 291 290 289 289 287 287 288 292 296 297 295 299 294 290 292 298 299 299 296 297 291 290 293
299 299 299 299 300 300 300 301 301 301 301 298 289 290 303 301 283 284 288 289 291 289 290 290 289 291 292 289 285 288 290 296 296 294 292 297 293 286 288 293 298 295 297 297 297 296 291
298 298 299 299 299 300 300 300 300 301 301 299 290 283 292 293 291 289 287 287 286 291 290 291 290 292 290 289 291 287 288 292 296 294 297 299 294 291 287 290 295 292 294 296 295 291 291
299 299 299 299 299 299 300 300 300 301 301 297 290 285 291 284 285 288 289 288 286 286 290 292 289 289 288 286 288 287 290 291 293 296 297 299 290 292 292 292 293 292 292 293 292 293 290
300 300 300 300 300 299 299 300 300 301 301 294 285 287 290 287 289 288 288 285 287 288 289 287 288 290 290 288 289 287 289 290 289 292 292 296 289 292 289 292 292 290 292 293 293 294 295
300 300 301 301 300 300 299 300 300 301 300 292 293 295 290 287 287 285 285 288 288 291 291 292 291 289 289 291 294 295 295 294 293 291 289 290 291 289 285 290 290 286 291 293 294 296 297
301 302 302 302 301 300 300 300 300 301 301 298 296 294 287 281 284 286 287 287 288 290 289 292 293 290 293 298 298 297 296 294 294 294 294 289 291 291 286 287 279 290 295 295 294 296 298
301 302 301 302 301 301 300 300 300 300 301 299 299 294 289 283 287 286 286 288 291 292 291 291 293 295 298 293 289 286 287 288 290 293 293 294 290 287 283 284 287 289 293 293 291 291 298
301 301 301 301 301 301 300 300 300 300 301 297 296 300 292 286 286 289 287 288 286 288 289 292 295 299 295 290 287 281 280 284 284 288 294 293 293 288 286 281 279 289 296 300 300 288 299
301 301 302 302 301 301 301 301 301 301 301 298 295 299 292 285 289 292 289 288 292 290 289 291 291 291 294 288 284 282 282 287 283 284 284 285 286 284 285 284 288 295 297 302 288 290 300
301 301 301 301 301 301 301 301 301 301 301 300 295 298 293 288 290 294 296 293 293 293 288 291 289 288 287 285 285 285 285 287 285 288 286 285 283 283 286 282 280 298 298 292 298 301 301
301 301 301 301 301 301 301 301 301 301 301 301 293 299 299 294 291 299 299 300 299 298 294 293 291 290 292 288 289 289 286 289 287 282 292 286 291 289 290 289 298 301 300 301 303 301 302

GFSGBSN_sfc_thetae_075.txt.gz
Theta_e
309 310 309 310 310 310 309 311 311 311 311 311 311 311 311 312 312 312 313 313 312 312 311 312 312 311 311 305 306 314 321 324 321 319 315 312 309 308 304 305 306 304 306 307 308 307 307
311 311 310 309 309 309 309 309 309 310 311 311 311 312 311 312 312 312 313 312 312 312 312 312 312 311 307 298 314 311 310 311 317 317 313 313 310 311 307 306 305 307 306 306 307 307 307
310 310 311 310 309 309 309 309 309 309 310 311 311 312 311 311 311 311 312 312 312 312 312 311 312 311 304 302 312 313 312 308 311 316 313 314 314 309 309 305 308 307 302 305 306 306 305
310 309 309 309 309 309 308 308 308 308 308 309 309 311 312 312 311 311 311 311 311 311 311 311 313 311 301 310 312 310 312 309 310 310 312 315 316 310 308 310 307 303 303 299 305 307 307
309 308 308 309 309 308 308 308 308 307 308 308 308 310 311 311 311 311 311 311 310 311 310 311 311 308 299 309 305 309 310 306 307 307 311 311 311 306 307 302 300 302 297 299 302 307 305
308 308 308 308 308 308 307 307 308 307 307 307 309 309 310 310 310 310 310 309 311 309 311 312 310 302 305 299 305 310 316 310 304 303 302 302 303 301 301 300 293 297 298 300 300 305 304
306 307 307 307 307 308 307 306 307 307 307 307 308 308 309 310 310 310 309 309 305 305 306 301 302 302 302 306 309 307 313 310 307 303 295 299 296 295 298 300 302 302 301 300 303 306 302
306 306 305 306 306 306 308 306 307 306 306 307 307 308 308 310 310 310 310 303 301 302 295 302 302 302 303 304 298 302 310 305 303 299 298 294 294 301 303 303 302 301 299 300 303 304 301
305 305 305 305 306 305 307 306 306 306 305 305 306 307 308 309 308 308 306 304 309 308 296 298 302 301 302 304 298 299 303 304 301 299 296 293 296 303 301 301 300 301 299 300 299 303 303
304 304 304 305 306 306 306 306 305 305 305 305 306 307 308 308 303 307 304 308 310 310 291 295 297 300 303 302 297 304 304 303 299 295 296 295 301 299 300 299 301 297 303 301 300 298 294
303 303 304 304 304 304 304 305 304 304 304 305 305 306 307 307 304 303 306 310 311 305 281 292 296 306 303 299 300 300 305 301 297 296 297 292 296 298 296 298 301 298 302 301 300 298 298
302 303 303 303 304 304 304 304 304 304 304 304 304 305 306 304 306 308 310 311 307 290 281 290 297 295 297 300 299 300 301 301 301 295 297 296 301 301 299 300 300 302 300 300 300 298 291
302 302 302 303 303 303 303 303 304 304 303 303 304 304 304 304 299 309 311 305 289 283 292 289 291 294 294 294 296 298 296 292 289 286 287 291 294 299 301 297 299 300 297 290 289 289 289
301 301 301 301 301 302 302 303 303 304 303 303 303 304 304 305 308 310 304 293 282 287 289 294 293 294 291 295 296 297 295 292 292 292 288 285 284 293 299 297 294 297 297 292 285 287 291
301 300 301 301 301 301 302 302 302 303 303 303 303 301 302 306 309 309 297 285 285 289 291 290 293 289 290 293 294 295 295 295 296 293 288 287 289 298 299 300 298 294 293 299 293 296 292
300 300 300 300 300 301 301 302 302 302 302 302 298 299 300 308 310 304 290 285 289 292 294 293 287 290 288 290 292 293 295 298 296 301 297 294 287 295 297 300 300 297 300 291 294 285 285
300 300 300 300 300 300 300 301 301 302 302 301 297 291 302 308 308 294 283 286 290 294 295 291 290 289 290 289 291 292 293 295 297 297 301 295 293 292 296 293 294 295 293 295 297 294 288
299 299 299 299 299 300 300 300 301 301 301 298 295 286 304 307 290 290 285 289 292 292 294 293 294 293 291 291 290 290 289 293 297 298 296 298 296 290 291 297 300 298 295 296 291 290 294
299 299 299 299 300 300 300 300 300 301 301 297 289 291 303 304 284 285 290 290 291 291 291 291 291 293 294 291 287 290 291 297 297 295 293 295 293 288 289 294 298 296 298 298 298 297 292
298 299 299 299 299 299 300 300 300 301 301 299 292 285 291 296 293 288 287 288 288 293 292 293 291 293 292 290 293 289 290 294 296 296 297 298 295 292 286 290 295 293 295 298 296 291 292
299 299 299 299 299 299 300 300 300 300 301 298 291 287 292 286 289 290 289 288 287 287 292 293 290 290 290 287 289 289 292 293 295 296 296 297 290 294 295 294 293 295 295 296 295 296 292
299 300 300 299 300 300 300 301 301 301 301 295 286 287 291 290 291 289 288 287 288 289 290 289 288 291 291 288 289 288 292 291 291 294 293 296 289 291 290 294 293 290 294 295 295 295 296
300 301 300 301 301 301 300 300 301 301 300 294 294 295 292 288 288 287 288 288 288 291 291 293 292 291 290 292 294 296 297 296 295 293 292 292 291 289 285 291 291 287 291 293 294 297 296
299 300 301 301 302 301 302 300 300 301 301 297 296 295 288 283 286 286 288 289 289 290 288 292 295 292 295 300 300 298 297 295 295 295 295 291 291 291 287 289 280 291 297 296 295 297 299
300 300 301 301 301 302 302 301 300 301 301 301 298 294 290 283 286 287 287 288 291 292 290 291 294 297 299 296 290 287 288 288 291 294 294 295 292 288 285 285 289 291 293 293 292 293 299
300 301 301 302 302 302 302 302 300 300 301 301 300 301 293 287 286 289 288 289 288 288 290 293 297 300 298 292 288 283 282 286 286 289 295 293 294 289 287 281 279 290 297 301 299 290 300
300 300 301 301 302 302 301 301 300 300 301 300 298 301 294 288 291 293 288 288 292 291 288 291 292 293 295 288 285 284 284 289 284 285 286 287 288 285 285 284 288 296 298 301 288 291 299
300 301 301 301 301 301 301 301 301 300 300 297 293 300 295 290 292 294 294 292 293 292 289 291 290 290 288 286 286 286 286 288 287 290 288 287 285 284 286 283 281 298 298 293 299 303 302
301 301 301 302 302 301 301 301 301 301 301 300 293 298 300 292 292 299 298 299 298 297 294 293 292 291 292 289 291 291 288 291 288 284 294 287 291 289 289 290 298 302 301 303 304 302 302

GFSGBSN_sfc_thetae_078.txt.gz
Theta_e
311 311 311 310 310 309 309 310 310 310 310 310 310 310 311 311 312 312 313 313 313 312 312 312 312 313 308 302 303 313 327 325 320 314 311 309 308 307 303 305 305 303 304 306 307 307 307
310 310 310 312 310 310 310 310 310 310 310 310 311 310 310 311 311 311 312 312 312 312 312 312 312 312 305 294 310 312 312 310 310 315 313 313 309 310 306 305 303 305 305 305 306 306 307
310 310 310 310 310 310 308 308 308 309 309 308 309 310 310 310 311 311 311 311 311 311 311 311 312 310 303 299 310 311 310 309 309 309 312 314 313 309 308 304 307 306 301 304 305 306 305
309 309 310 309 310 310 309 308 308 308 308 308 308 309 310 311 311 311 311 310 310 311 311 312 312 310 299 309 311 309 310 307 311 310 309 314 316 311 308 308 305 302 302 297 303 305 306
308 308 309 309 309 310 309 308 307 308 307 307 307 309 310 310 310 310 310 310 310 311 312 312 309 307 299 313 306 309 309 304 307 310 309 307 310 306 307 300 297 300 294 297 300 306 305
307 307 308 308 308 308 309 309 308 308 307 307 307 308 309 310 310 309 308 309 310 312 310 313 311 302 306 301 306 308 312 313 305 305 303 301 301 299 300 298 290 293 295 298 298 303 305
306 306 307 306 306 306 307 308 308 308 308 306 307 307 308 309 310 308 306 307 304 303 308 302 303 303 304 307 308 305 309 310 306 301 295 299 293 291 295 300 300 299 298 297 302 305 303
306 306 306 306 306 306 306 306 308 307 307 305 305 306 307 308 308 308 306 303 301 303 294 302 301 300 302 304 297 301 307 303 303 297 300 296 292 296 298 298 297 297 295 296 302 305 303
306 306 306 305 305 305 306 307 307 307 306 305 305 306 307 308 308 306 306 304 309 308 294 297 302 301 302 304 298 299 302 299 300 298 298 296 298 300 295 296 295 297 296 297 298 302 304
304 304 304 304 305 305 306 305 306 306 306 306 305 305 307 307 302 306 303 308 309 310 290 296 297 300 303 303 298 304 305 299 296 295 298 298 301 297 295 294 296 293 301 301 300 298 294
303 304 303 304 304 304 304 304 304 305 305 305 305 304 306 306 301 299 305 308 310 305 281 297 296 307 304 299 300 300 305 300 293 296 296 294 295 295 293 295 298 296 302 300 299 297 297
302 302 303 303 303 303 303 303 304 304 304 305 304 304 305 302 303 304 308 309 306 287 281 290 298 297 297 299 300 301 301 301 300 295 298 296 301 299 297 300 300 300 299 298 298 297 290
302 303 302 302 302 302 302 302 303 303 304 304 304 304 303 302 297 307 309 302 288 282 292 290 292 295 294 293 295 298 296 294 290 287 288 293 294 298 300 294 298 298 293 285 285 287 287
301 301 301 301 301 301 301 302 302 302 303 303 304 303 302 301 304 306 303 293 281 287 290 295 293 293 291 294 295 297 295 292 295 292 288 285 283 292 297 294 292 294 293 287 282 285 288
301 301 301 301 301 301 301 301 302 302 301 303 303 300 299 302 307 306 295 282 284 288 292 290 291 289 289 293 293 296 295 294 297 293 286 286 285 295 297 297 296 293 291 296 290 290 288
300 300 300 300 300 301 300 300 301 302 303 302 297 296 297 306 308 302 289 284 288 293 294 293 287 289 286 290 290 292 292 298 297 298 296 292 286 295 296 299 298 296 299 289 289 282 282
300 300 300 300 300 300 300 300 300 301 302 300 296 290 299 307 307 294 283 286 289 294 295 291 289 289 290 289 290 291 293 297 298 296 299 296 291 290 295 292 292 293 292 293 293 290 285
299 299 300 300 300 300 300 300 300 300 301 298 294 285 304 306 289 290 286 289 293 291 294 292 292 291 291 291 290 290 291 295 297 296 294 298 293 287 290 297 298 297 294 294 287 288 292
299 299 299 299 300 300 300 300 300 300 300 297 289 289 300 304 283 286 289 289 290 290 290 291 289 292 293 290 287 291 292 297 297 294 292 293 291 286 288 293 297 293 295 296 295 294 288
298 299 299 299 300 299 299 300 300 300 300 297 291 284 290 296 293 288 287 287 287 292 291 292 291 292 290 289 291 289 291 295 296 295 297 296 291 289 285 288 293 291 294 295 295 289 290
299 299 299 299 300 300 300 300 300 300 299 297 291 286 291 285 287 288 289 289 287 286 292 292 289 290 289 286 288 288 291 293 295 296 295 294 288 291 291 294 294 292 293 294 292 294 290
298 299 299 299 300 300 300 300 301 300 300 293 286 286 290 288 290 288 288 286 286 289 290 289 288 290 290 287 289 287 290 291 291 295 293 295 288 290 288 292 293 291 293 294 295 295 294
298 299 300 300 300 300 301 301 301 301 300 292 294 294 289 288 287 286 287 287 287 290 291 292 291 290 289 290 294 295 296 296 295 293 292 292 289 287 284 290 290 286 291 292 294 296 295
298 299 300 300 301 301 301 301 301 301 300 296 294 293 288 283 285 286 287 289 289 289 289 292 293 291 295 299 299 298 297 295 295 294 295 290 289 289 285 287 279 291 297 296 294 296 298
299 299 300 300 301 302 301 302 302 301 301 298 298 295 289 283 286 286 287 287 290 292 290 291 293 296 297 296 290 286 287 288 290 292 292 294 290 286 284 283 287 290 293 292 291 292 298
299 299 300 301 301 301 302 302 302 302 301 299 299 300 293 286 285 288 286 288 286 287 289 292 296 299 296 292 288 281 280 284 284 288 294 293 294 288 286 281 279 289 295 300 298 288 300
300 300 300 301 301 301 301 302 302 302 301 299 296 301 294 285 290 291 287 287 291 289 288 291 291 293 296 289 284 282 282 289 283 284 285 287 288 284 284 283 287 294 298 301 287 290 300
300 300 301 301 301 301 301 302 302 302 302 299 296 301 294 288 290 293 293 290 291 292 288 291 290 291 289 284 284 285 285 287 287 289 287 286 284 284 285 282 280 298 297 291 298 301 301
300 300 300 301 301 301 302 302 302 301 300 300 294 300 301 291 290 297 297 298 296 296 293 292 289 290 293 288 289 290 287 290 288 283 293 285 290 287 288 288 297 301 300 302 303 300 300

GFSGBSN_sfc_thetae_081.txt.gz
Theta_e
311 311 311 311 312 311 311 311 311 311 311 311 311 310 310 310 311 311 312 312 312 311 311 312 312 312 306 298 300 312 326 326 322 316 310 306 301 301 298 300 300 299 300 302 303 302 302
310 311 311 311 310 311 311 309 309 310 310 310 310 310 309 310 310 310 311 311 311 311 311 311 312 312 302 291 304 307 309 315 314 310 309 308 304 306 303 301 300 302 301 301 301 300 302
310 309 310 310 310 310 310 309 309 309 309 309 309 310 309 309 310 310 310 310 310 310 311 311 312 308 300 296 304 304 305 304 305 305 302 311 311 306 303 300 305 303 297 299 299 300 299
309 309 309 309 309 310 310 310 309 308 308 308 308 308 309 310 310 310 310 310 309 310 311 311 312 306 296 308 305 306 305 303 306 305 306 305 306 305 303 305 302 297 296 291 298 300 301
308 308 308 308 308 309 309 310 310 309 308 308 308 308 309 309 309 309 309 309 309 310 311 312 306 303 297 312 305 308 307 302 302 304 305 308 301 298 301 296 292 293 288 292 295 301 300
308 308 307 307 307 307 307 308 309 309 309 309 308 307 308 308 309 308 308 308 307 309 309 309 308 300 304 300 305 306 305 310 307 301 300 299 294 292 293 291 285 288 289 290 292 298 301
306 308 307 306 307 307 307 307 308 308 308 308 307 306 307 308 308 308 305 299 298 298 302 300 300 299 302 306 305 301 304 307 305 298 290 294 287 285 289 295 296 295 293 292 295 300 300
306 307 307 306 306 306 306 306 307 308 307 307 307 306 307 307 308 308 302 296 299 298 292 300 299 300 304 303 295 298 302 296 300 291 293 290 286 292 294 295 293 292 290 290 295 299 299
305 305 305 305 305 305 305 305 306 306 307 306 307 305 306 307 307 302 300 302 306 305 291 295 299 298 299 300 295 296 299 295 293 294 294 290 293 297 296 293 292 292 291 291 292 297 299
304 303 304 304 304 305 305 305 305 305 306 306 306 306 306 306 299 298 297 306 306 306 286 291 296 298 301 301 296 302 302 296 292 290 294 293 298 297 294 293 293 288 295 296 296 294 289
303 303 303 303 303 303 303 303 304 304 305 305 305 306 305 305 297 295 300 304 306 303 275 296 295 304 302 298 299 297 302 297 290 289 292 290 293 292 292 293 295 291 297 296 295 293 293
302 302 302 303 303 302 303 303 303 303 303 303 305 304 305 300 299 299 303 304 302 286 277 290 296 294 295 297 298 299 299 298 296 290 290 290 296 295 294 298 298 299 296 295 294 292 286
301 301 302 302 302 302 302 302 302 302 303 303 304 304 301 301 292 301 300 298 285 279 293 288 291 295 294 293 295 296 294 289 285 282 283 288 290 296 300 294 297 295 291 285 283 284 282
301 301 301 301 301 301 301 302 302 302 303 302 302 303 300 299 300 300 298 290 279 287 288 295 293 292 289 292 292 294 292 288 290 288 283 282 280 290 298 293 291 292 290 285 280 281 285
301 301 301 301 301 301 301 301 301 301 302 302 301 297 295 297 300 298 291 279 282 286 290 290 291 288 288 290 291 293 291 290 293 290 284 283 284 292 295 295 295 290 287 293 287 289 285
300 301 300 300 301 301 300 300 301 301 301 302 295 292 293 299 300 296 287 282 285 291 291 291 286 289 284 288 288 288 289 296 296 297 293 290 284 293 294 296 296 292 296 287 287 281 280
300 300 300 300 300 300 300 300 300 300 301 301 293 288 294 299 300 290 280 283 287 292 292 289 287 286 288 288 289 288 292 296 296 294 295 294 289 289 292 291 290 291 289 290 291 288 285
300 300 300 300 300 300 300 300 300 300 300 297 291 282 297 299 286 287 282 287 291 290 293 290 291 288 287 288 288 288 289 293 294 293 290 294 289 284 287 294 297 296 292 291 286 286 289
299 299 299 299 300 300 300 300 300 300 299 295 287 285 295 296 279 283 288 287 289 288 289 289 288 291 291 287 284 288 290 296 295 293 289 292 287 282 286 292 296 292 294 294 293 292 287
299 299 299 299 300 300 300 300 300 300 299 294 287 275 285 289 289 286 284 285 286 291 289 290 289 290 288 286 288 286 288 295 295 294 296 294 289 286 283 288 291 289 292 293 292 287 287
299 300 299 299 299 300 300 300 300 300 300 293 287 278 287 279 283 286 287 286 285 285 291 291 287 287 286 283 285 284 288 291 295 297 293 291 285 289 289 291 292 292 292 292 291 291 288
298 299 299 299 299 300 300 301 300 300 300 291 284 280 286 285 287 285 286 284 284 286 287 287 287 289 288 284 285 284 289 289 288 293 292 293 284 288 286 290 290 289 292 292 291 292 293
298 298 299 299 299 299 300 301 300 300 299 290 291 289 285 284 284 283 283 286 286 288 289 290 290 288 287 289 291 292 292 293 293 291 289 290 287 285 281 288 289 284 289 291 293 295 294
297 298 298 299 300 300 301 301 301 300 299 290 290 287 281 276 280 282 285 287 287 288 287 290 292 288 293 297 295 295 293 293 293 292 294 288 287 285 280 284 277 290 297 296 293 294 295
298 298 299 299 300 301 301 302 301 300 301 293 291 288 284 274 282 283 284 285 288 289 288 289 292 295 295 293 288 284 283 285 288 292 291 291 287 280 278 279 285 288 293 291 290 290 297
298 298 299 299 300 301 301 302 302 302 301 296 293 293 288 283 280 286 284 286 282 282 285 288 295 296 294 290 286 279 276 281 281 285 291 290 289 282 279 279 275 287 295 299 297 286 298
297 298 299 300 300 301 301 301 302 302 302 297 293 295 290 284 286 287 283 283 288 286 283 287 288 289 292 284 282 277 277 286 280 281 281 283 282 280 280 279 284 293 297 300 285 288 298
298 299 299 300 300 301 301 301 301 302 302 299 293 296 291 287 287 290 290 287 288 287 283 287 285 287 287 278 280 279 278 283 284 287 285 283 281 279 280 277 276 296 296 290 295 297 297
298 299 299 300 300 301 301 301 302 302 302 301 291 296 298 289 286 293 293 294 292 291 290 289 285 288 290 284 283 283 279 283 285 280 291 283 287 283 284 283 295 298 298 300 300 298 297

GFSGBSN_sfc_thetae_084.txt.gz
Theta_e
310 311 311 311 311 311 311 311 310 311 311 310 310 309 309 309 309 310 311 311 311 310 310 310 311 311 305 297 298 306 326 326 323 317 309 305 298 296 295 297 298 296 299 302 302 301 300
310 310 310 310 310 310 310 310 310 310 310 310 310 310 308 308 309 310 311 311 310 311 310 310 310 311 301 290 301 303 303 308 316 310 307 306 303 302 300 299 297 300 300 300 301 300 300
309 309 309 309 310 309 310 310 310 310 309 310 310 310 309 308 308 309 310 310 310 310 310 309 310 307 298 294 301 300 303 302 304 307 305 308 308 303 303 299 303 302 296 298 298 298 296
308 308 308 308 308 308 308 308 308 308 309 309 308 309 309 309 309 309 309 309 309 309 309 309 310 305 293 305 305 303 302 302 304 303 303 304 303 303 302 303 301 296 294 289 297 297 298
308 309 308 307 307 308 308 308 308 308 308 309 308 309 308 308 307 308 308 308 308 309 310 310 305 301 293 310 305 307 305 302 301 301 301 306 302 295 298 294 291 291 287 289 292 298 297
306 306 308 307 307 306 307 307 308 308 308 308 308 308 308 307 308 307 307 307 306 309 307 309 306 297 300 299 304 303 303 304 305 303 298 297 293 288 291 289 285 287 288 286 287 293 296
306 306 307 307 307 307 307 306 306 307 307 307 307 306 307 307 307 307 303 297 295 294 299 298 298 298 299 306 305 300 301 301 303 297 289 293 286 283 287 292 294 292 291 289 291 296 297
304 305 306 306 306 306 306 306 305 306 306 306 306 306 306 307 307 306 301 295 299 301 290 298 298 299 303 305 297 301 301 294 298 291 291 288 284 289 292 292 292 291 288 287 291 296 297
305 304 303 304 304 304 305 305 305 305 305 305 305 305 305 306 306 300 294 296 305 304 289 293 297 296 297 299 296 297 297 294 292 293 291 285 290 293 291 289 288 288 287 288 289 295 296
303 304 303 303 303 304 304 304 304 304 304 304 305 305 306 306 295 295 293 302 303 304 285 288 294 296 299 299 293 299 300 295 291 288 292 291 296 293 292 292 292 286 293 293 292 291 285
301 302 302 302 303 303 303 303 303 303 303 303 304 304 305 304 294 292 297 301 301 300 273 293 295 303 301 297 297 296 301 295 288 288 290 289 292 292 291 292 293 290 297 295 294 290 291
301 301 301 302 302 303 302 302 302 303 303 303 303 303 304 298 293 296 300 298 297 284 275 290 295 293 294 296 297 298 297 297 296 289 289 289 292 294 293 296 296 298 295 294 294 290 283
301 301 301 302 302 302 302 301 302 302 302 302 303 303 301 300 291 299 299 294 283 277 290 289 290 293 293 292 293 295 292 288 285 281 281 286 288 294 298 293 296 294 289 283 282 282 279
301 300 301 301 301 301 301 301 301 301 302 302 302 301 298 298 296 298 295 288 276 284 286 292 292 293 290 293 293 293 291 286 288 286 282 281 279 291 296 292 290 291 289 283 279 279 282
300 300 300 301 301 301 301 301 301 301 301 301 301 293 293 294 297 297 289 278 279 285 289 287 290 287 287 291 290 291 290 290 290 288 282 281 282 289 295 295 293 290 286 292 286 288 283
299 300 300 301 300 300 300 301 300 301 301 301 290 289 290 296 296 293 285 280 283 290 290 289 284 288 284 287 287 288 291 295 295 293 290 288 283 291 292 294 294 292 295 287 288 279 279
299 300 300 300 300 300 300 300 300 300 300 300 289 286 292 296 297 289 279 281 286 291 291 287 285 285 285 285 286 286 291 294 293 292 295 291 288 287 291 289 288 289 288 289 289 286 281
299 299 300 300 300 300 300 300 300 300 300 295 288 281 294 299 281 283 278 285 290 288 291 289 290 289 286 287 285 287 288 290 294 294 289 291 287 283 286 293 294 293 292 291 285 285 287
299 299 299 299 299 299 300 300 300 300 299 291 286 285 292 295 277 279 285 285 287 286 287 288 287 289 289 286 282 287 289 294 294 291 288 289 287 281 284 290 295 291 293 293 292 290 285
298 299 298 299 299 299 300 300 300 300 299 292 285 280 283 288 287 284 284 284 284 291 289 289 288 289 287 285 288 285 287 293 294 293 297 293 286 284 280 285 290 288 290 293 292 286 285
298 298 298 299 299 299 299 300 300 300 299 291 285 278 284 279 283 284 285 286 284 284 290 291 287 287 286 282 284 283 287 290 293 296 292 289 282 286 288 290 290 289 290 291 289 291 288
298 298 298 298 298 299 299 300 300 301 299 290 282 280 283 282 286 284 285 283 283 285 286 285 285 288 289 285 286 284 287 287 287 292 290 291 283 285 283 289 289 287 289 293 291 291 291
297 298 298 297 298 299 300 300 300 300 298 289 290 287 283 281 281 280 282 283 283 287 289 290 288 288 286 289 291 291 291 291 291 288 287 287 285 282 280 286 286 282 288 291 292 293 292
298 298 297 298 299 300 300 300 301 301 298 291 288 285 280 276 278 280 282 284 284 286 285 289 291 288 292 296 294 293 292 291 291 291 292 286 286 285 280 282 275 287 292 293 293 294 296
298 297 297 298 299 299 300 300 301 302 299 294 288 286 284 273 280 281 282 283 286 286 287 287 289 293 295 292 286 283 281 283 286 290 290 290 285 278 277 278 283 285 289 291 289 291 296
296 296 297 298 299 299 300 300 301 301 301 297 293 289 287 282 278 285 283 284 280 280 283 286 294 294 293 287 282 276 276 280 280 284 291 289 287 281 277 276 273 285 293 298 297 286 296
296 296 297 298 299 300 300 300 301 301 302 298 294 292 287 283 284 285 281 282 286 284 281 285 287 286 289 282 280 277 277 284 278 281 280 280 279 279 277 275 281 291 296 298 285 286 295
296 296 297 298 299 299 300 300 301 301 301 299 295 295 289 282 286 288 289 284 285 287 283 286 282 284 286 279 278 279 276 281 281 285 283 283 281 278 279 276 276 295 295 288 292 295 295
295 296 298 298 299 299 300 300 301 301 302 301 293 296 296 286 285 291 291 291 290 290 286 289 285 287 289 286 283 283 278 278 281 278 290 282 286 283 282 281 293 296 296 298 297 294 295

GFSGBSN_sfc_thetae_087.txt.gz
Theta_e
310 310 310 310 310 310 310 310 310 310 310 310 309 309 309 309 308 309 310 310 310 309 309 310 309 310 303 294 293 304 316 322 320 311 304 301 297 295 292 295 298 295 297 299 301 300 298
309 309 309 309 310 309 309 309 309 309 310 310 310 309 308 308 308 308 309 309 309 309 309 309 309 309 299 288 299 302 301 301 313 312 307 304 298 298 295 296 295 298 299 300 300 300 300
309 308 308 308 308 308 308 308 308 308 308 309 309 309 308 308 308 307 308 308 308 309 308 308 309 305 298 293 300 301 301 299 302 310 305 306 306 300 298 296 301 300 295 297 296 297 296
308 309 309 307 307 307 307 308 308 308 307 307 308 308 309 309 308 308 308 308 307 308 309 309 309 304 294 305 303 302 302 300 302 302 304 304 303 302 300 302 299 296 294 289 295 296 298
306 306 306 308 307 307 307 307 307 307 306 306 308 308 308 308 308 307 307 307 307 308 310 308 303 301 292 308 302 306 303 300 300 300 299 304 299 294 295 292 290 290 286 288 292 297 296
305 306 306 307 307 307 306 306 306 306 306 306 306 307 308 308 307 307 306 306 307 307 307 307 306 296 299 297 305 304 305 304 300 298 297 295 292 287 289 289 284 287 286 285 288 292 294
305 305 305 306 306 306 306 305 306 305 306 306 306 306 306 307 307 306 303 296 296 294 298 295 297 296 299 305 307 302 302 299 303 296 288 291 286 282 286 291 292 291 289 287 289 294 294
304 304 304 303 303 304 304 305 305 304 304 305 305 305 306 306 306 306 297 292 296 297 289 298 298 297 301 303 297 301 302 293 298 291 291 288 283 289 290 290 291 291 288 286 289 293 294
303 304 304 303 303 303 304 304 303 303 304 304 304 304 305 305 305 297 292 293 301 299 290 292 296 295 296 298 294 295 300 292 291 292 289 285 289 292 290 288 287 286 285 285 286 293 293
301 301 301 302 302 303 303 303 303 303 303 303 304 304 305 305 294 293 290 298 300 298 283 286 291 295 297 297 291 299 299 294 291 289 291 289 293 291 287 287 288 284 291 291 291 289 282
301 300 301 301 301 302 302 303 303 303 302 303 303 303 304 304 293 289 293 299 299 298 271 289 294 301 298 291 294 294 298 293 287 288 291 289 291 290 289 290 292 289 295 293 292 288 287
302 301 300 301 301 302 302 302 302 302 302 302 302 302 303 297 291 293 296 297 297 281 273 286 293 292 291 294 295 296 294 295 293 288 288 289 291 292 293 296 294 297 293 292 292 288 280
301 300 300 301 301 301 301 302 302 301 301 302 302 302 300 299 290 294 297 291 280 275 287 287 288 292 291 291 292 294 290 287 283 281 281 285 286 293 297 292 295 292 286 275 276 280 278
300 300 300 300 301 301 301 301 301 301 301 301 301 302 298 297 294 294 292 286 274 281 283 291 289 289 288 292 292 292 288 285 286 284 281 279 279 290 296 292 290 289 286 277 275 278 282
299 299 299 300 300 301 301 300 301 301 301 301 300 291 290 291 295 293 285 277 277 283 287 286 288 287 287 289 289 291 289 287 287 287 282 281 281 289 294 294 293 289 284 290 284 284 282
298 298 300 300 300 300 300 301 301 301 301 300 289 287 288 293 294 290 281 279 282 288 288 288 283 286 283 284 286 286 289 293 292 291 290 288 282 290 291 294 293 291 293 283 287 277 276
298 299 299 300 300 300 300 300 300 300 300 300 287 285 289 295 294 286 274 280 284 289 290 286 284 284 285 284 286 286 290 291 293 293 294 291 288 287 290 287 286 288 287 288 288 287 281
298 298 299 300 299 299 299 300 300 300 300 293 287 278 293 295 283 277 276 284 289 287 290 288 289 287 284 286 285 286 287 290 294 294 289 290 287 282 285 292 293 290 288 289 283 283 287
298 299 298 299 299 299 299 300 300 300 298 288 284 284 293 293 278 275 282 284 286 285 285 285 286 288 288 286 282 286 288 293 294 291 288 289 285 280 282 288 293 289 292 292 292 290 285
299 297 298 298 298 298 299 299 300 300 299 289 285 278 283 287 287 282 281 282 284 289 287 289 288 289 287 285 287 285 286 292 294 293 296 292 286 283 277 281 289 287 290 291 290 285 286
298 297 298 298 298 298 299 299 300 300 299 289 285 277 281 278 281 282 283 284 283 283 289 290 287 288 286 281 283 283 287 289 293 295 291 288 281 284 285 287 288 288 288 289 288 289 286
296 297 298 297 298 299 299 299 300 300 299 289 280 281 283 282 284 282 282 282 283 284 286 284 284 287 287 283 285 283 286 287 286 289 289 290 283 283 282 286 286 285 287 288 290 291 291
296 296 297 298 297 297 298 299 300 300 299 289 288 287 285 281 280 279 280 280 281 285 288 289 287 287 285 288 290 290 290 290 289 287 286 286 284 282 279 284 283 280 285 285 291 293 292
296 297 298 299 297 298 299 300 300 301 299 292 289 288 282 275 279 280 281 282 282 284 284 287 289 287 290 295 294 291 291 291 289 289 290 285 284 283 278 281 273 284 290 290 289 294 295
296 297 298 296 297 298 299 299 300 301 301 294 292 287 283 274 280 281 282 283 284 285 284 287 289 293 294 291 284 282 282 283 285 287 287 288 283 278 276 277 280 284 287 288 289 288 295
297 298 296 296 297 298 298 299 300 300 301 296 292 292 285 276 277 283 282 283 280 281 283 286 292 293 292 285 282 277 276 280 280 283 289 287 285 280 277 275 270 282 291 296 295 284 294
297 298 296 296 297 298 298 299 300 300 301 298 294 294 288 275 282 284 280 282 285 283 281 285 285 286 288 282 279 278 278 283 278 280 280 280 280 279 278 277 279 288 293 296 283 284 294
297 296 296 296 296 297 298 299 299 300 301 299 295 295 289 279 281 286 287 283 284 284 279 283 281 282 284 281 278 279 276 281 280 282 281 279 278 277 279 277 275 293 293 286 290 294 294
296 296 296 296 297 298 298 299 299 300 301 301 293 295 295 287 283 289 289 290 288 288 284 284 284 284 288 284 283 283 279 277 280 276 287 276 283 283 283 281 292 294 293 295 296 294 294

GFSGBSN_sfc_thetae_090.txt.gz
Theta_e
309 309 309 309 309 309 309 309 308 308 308 308 308 309 310 309 309 308 309 309 307 307 307 308 309 309 302 294 292 300 311 306 318 312 304 299 295 294 291 293 296 293 296 297 299 299 298
309 308 308 307 307 307 307 307 307 307 308 308 307 307 308 309 308 308 308 308 308 308 307 307 308 308 299 287 300 300 300 299 306 309 304 301 298 297 293 292 294 297 298 299 299 298 298
307 308 308 307 307 307 307 307 307 307 307 306 306 307 308 308 308 307 308 308 308 307 308 308 308 305 296 292 302 301 302 299 298 304 304 305 303 298 295 293 297 296 292 295 296 296 295
306 306 306 307 306 306 307 307 307 306 306 306 306 307 308 308 308 308 308 307 307 307 309 310 309 302 292 304 305 302 303 300 301 301 303 305 305 301 298 300 298 293 292 287 294 295 297
305 305 305 306 307 306 306 306 305 306 306 305 306 306 307 307 307 307 307 306 306 308 310 308 302 299 291 307 301 304 303 298 301 301 300 303 297 293 293 290 287 290 285 287 290 295 294
304 305 305 305 305 305 305 305 305 305 305 304 304 305 305 307 307 306 306 305 306 307 306 306 305 294 296 295 304 306 304 302 300 297 295 294 292 287 287 287 281 285 285 284 286 290 291
303 303 303 303 303 303 303 304 304 304 304 304 304 305 305 305 305 305 301 294 293 290 293 290 292 293 296 302 306 303 305 300 300 295 287 291 285 282 285 289 291 290 288 286 287 293 290
302 304 303 303 303 303 303 303 303 303 303 303 304 304 304 304 304 305 292 287 293 293 286 293 294 294 298 299 293 297 303 293 297 290 291 287 283 288 290 290 290 289 287 286 289 291 292
302 301 301 302 302 302 303 303 303 303 303 303 303 303 303 303 304 295 291 290 298 297 287 290 295 294 295 298 292 293 298 295 294 291 288 286 288 292 289 287 286 285 285 284 285 290 290
300 300 300 301 301 301 302 302 303 302 302 302 302 302 303 304 293 291 289 295 297 298 282 284 290 293 295 296 290 298 299 294 290 291 291 287 291 289 287 286 287 282 288 288 289 286 280
299 300 299 300 300 301 301 302 302 302 302 302 302 302 302 302 294 291 293 296 297 297 270 285 290 299 296 291 291 293 300 293 287 288 291 288 290 289 286 287 289 287 294 292 292 286 285
301 300 300 300 300 301 301 301 301 301 302 301 301 301 302 295 291 292 294 296 294 282 271 284 292 290 288 290 292 293 293 294 292 288 287 289 290 291 291 296 294 297 292 291 290 287 278
300 300 299 300 300 300 301 301 301 301 301 301 301 301 299 297 289 293 294 288 278 273 284 283 285 289 287 289 290 290 288 286 284 281 280 284 285 291 296 292 294 291 286 276 274 279 276
299 299 299 299 299 300 301 300 300 301 301 301 301 301 297 295 292 293 289 281 272 279 281 288 287 288 285 290 289 291 287 283 285 284 280 278 277 288 294 290 289 288 286 279 274 277 280
300 298 298 299 300 300 300 300 300 301 301 301 299 290 288 291 293 292 284 273 276 280 285 284 287 284 286 287 287 290 286 284 286 286 281 279 279 288 294 293 292 288 284 288 282 283 278
298 298 298 299 299 300 300 300 300 301 301 300 288 287 286 292 294 289 280 275 280 286 286 287 282 284 281 283 284 286 288 291 290 289 289 287 281 289 291 293 294 290 292 281 285 278 276
297 298 299 298 300 300 299 299 300 300 301 299 286 282 289 293 296 287 272 275 281 287 288 285 283 284 284 283 285 287 287 291 291 292 293 290 287 286 289 287 287 288 286 287 287 284 279
297 297 298 298 299 299 299 299 300 301 299 293 285 276 288 294 280 282 272 281 286 285 288 286 287 286 284 285 284 286 286 290 294 293 288 290 287 283 286 292 292 290 288 288 279 279 285
297 297 298 298 299 298 298 299 300 300 298 287 282 284 290 292 276 278 280 282 284 283 284 284 284 286 287 284 282 286 287 293 294 290 288 288 285 279 284 288 291 289 291 292 291 287 283
296 298 297 297 298 298 298 298 299 300 299 288 283 276 279 287 287 281 280 280 280 288 285 289 287 288 285 284 287 285 286 291 295 293 296 293 286 282 278 280 287 286 289 290 289 283 284
297 298 296 297 297 298 297 298 299 300 299 291 284 276 282 274 277 280 281 282 282 283 288 288 286 286 285 282 284 284 287 288 291 293 292 288 281 284 285 286 286 286 285 287 287 287 283
297 297 296 296 297 297 298 298 299 300 299 290 280 280 281 279 281 280 280 279 280 281 285 284 283 287 287 284 285 282 285 286 286 289 288 289 282 283 282 285 284 282 284 285 286 287 288
297 297 297 296 297 297 297 298 299 300 298 290 289 289 282 279 279 277 280 280 280 283 286 288 286 286 284 286 288 289 288 288 289 287 285 286 283 280 278 283 282 278 282 283 283 290 290
297 295 296 297 298 298 297 298 300 300 299 292 290 288 282 273 278 279 280 281 281 283 283 286 288 285 290 294 292 290 289 289 289 289 290 284 283 282 278 281 271 282 287 287 287 289 293
296 295 296 297 298 296 297 298 299 300 300 293 292 288 283 271 280 280 281 281 282 284 284 285 289 291 292 289 283 282 281 282 284 286 286 287 283 278 276 277 279 282 286 287 285 285 292
296 296 297 298 296 296 297 298 299 299 300 296 292 293 288 276 276 282 281 282 280 281 282 285 291 291 290 284 281 277 276 280 279 282 287 285 284 280 277 274 269 280 288 293 291 279 292
295 296 297 298 296 296 297 298 298 299 300 297 294 294 289 281 281 283 280 281 284 281 280 284 284 285 287 281 278 278 278 282 277 279 279 280 280 279 278 277 279 286 292 294 279 280 292
295 296 297 297 296 296 296 297 298 299 300 298 294 295 290 282 281 285 285 282 282 282 277 282 281 281 284 279 279 279 276 280 280 282 281 279 277 276 280 277 274 291 291 283 290 293 292
295 296 297 296 296 296 296 297 299 299 299 300 293 295 295 288 284 287 288 288 288 287 283 283 282 282 287 279 281 282 281 278 280 277 286 275 283 282 282 281 290 291 289 291 292 289 291

GFSGBSN_sfc_thetae_093.txt.gz
Theta_e
309 308 308 308 308 307 307 307 307 307 307 307 306 306 307 309 309 308 308 308 307 306 307 307 308 308 303 294 294 302 311 306 316 313 304 301 300 300 296 298 300 297 298 299 301 301 300
308 307 307 306 307 307 307 307 307 307 306 306 306 306 307 307 307 307 306 307 308 307 306 307 308 308 298 287 301 302 301 301 301 311 306 303 300 302 298 296 297 299 300 300 301 301 301
307 308 308 307 306 306 307 306 306 306 305 305 306 306 306 306 306 306 306 307 307 307 307 308 310 305 296 292 302 303 302 301 301 300 302 306 304 300 299 296 299 298 294 297 299 300 300
305 305 305 306 307 307 306 305 305 305 305 305 305 305 305 305 306 305 306 306 306 307 308 311 310 303 293 304 305 302 303 301 303 302 299 301 308 302 300 302 300 297 295 291 297 298 299
304 304 304 305 305 305 305 304 305 305 305 304 304 304 305 305 306 306 306 306 306 306 310 308 303 299 292 306 301 305 305 299 300 300 300 304 304 300 298 295 291 293 289 291 294 299 299
304 304 304 304 304 303 303 303 304 304 303 304 304 304 304 304 305 305 305 304 304 307 305 306 304 294 296 294 302 303 305 302 299 299 297 296 295 292 291 291 284 288 289 291 292 297 297
303 303 303 302 303 303 303 303 303 303 303 303 303 303 303 303 304 305 299 293 293 292 292 288 289 292 294 297 301 299 304 301 301 295 289 293 289 286 289 292 292 293 292 291 293 297 295
302 304 303 302 302 302 302 302 303 303 303 303 302 302 303 303 303 303 295 290 291 291 284 292 292 292 295 297 291 295 300 295 295 290 291 289 286 291 292 292 292 292 290 290 293 296 294
301 300 300 300 301 301 302 302 302 302 302 302 302 302 303 303 302 296 293 292 297 296 286 288 292 292 293 295 290 291 299 297 293 292 289 286 289 292 290 289 288 289 289 289 289 293 294
299 299 299 300 300 301 301 302 302 302 302 302 302 302 302 303 294 294 291 295 297 297 281 284 289 293 295 297 289 297 298 297 291 292 291 289 293 290 289 288 289 285 291 290 289 289 284
298 299 299 299 299 301 301 301 301 301 301 301 301 301 301 301 294 290 294 296 297 295 269 286 290 300 297 291 292 293 299 295 289 292 293 289 291 288 286 288 291 287 292 290 293 290 289
299 299 299 299 300 300 300 300 301 301 301 301 301 301 301 296 293 294 295 296 293 279 270 282 291 289 289 292 291 293 293 297 295 290 291 292 294 293 292 296 292 297 294 293 293 290 282
298 299 299 298 299 299 300 301 300 301 301 301 301 301 299 298 289 294 295 290 278 272 283 281 284 288 287 287 289 289 287 287 286 283 283 287 288 296 298 293 296 293 289 283 280 281 280
299 298 298 298 298 300 300 300 300 301 301 301 301 300 296 295 295 295 292 282 271 277 279 287 286 286 284 289 290 289 287 284 287 286 283 281 280 290 296 294 291 290 290 283 276 279 282
299 298 297 297 299 299 300 300 300 300 301 301 300 291 290 292 295 294 285 273 274 280 283 282 284 284 284 287 287 288 287 286 288 288 283 281 281 293 295 296 295 290 287 290 285 285 282
299 297 297 297 299 299 299 299 299 300 301 300 290 288 288 294 295 291 280 276 278 283 283 285 279 284 281 283 284 288 288 291 290 290 291 287 283 290 293 296 295 292 294 285 286 278 276
297 297 297 298 297 299 299 299 299 300 301 299 288 283 289 295 295 285 276 276 280 284 286 284 280 279 284 283 284 287 288 292 292 292 293 292 289 287 292 289 289 290 288 289 289 286 280
298 296 297 297 298 299 298 298 299 300 299 292 286 276 289 295 281 283 278 281 285 282 285 285 286 284 284 284 284 286 285 288 294 294 289 292 290 284 286 293 295 293 290 289 284 281 284
299 297 297 298 297 298 298 298 299 300 298 289 282 282 290 293 275 277 282 281 283 282 282 283 282 285 287 285 283 288 287 293 295 292 289 291 286 283 284 289 292 290 292 293 291 288 282
298 296 297 298 297 297 298 297 298 299 298 290 281 274 281 286 286 280 279 279 280 286 284 286 287 287 286 285 288 284 286 290 294 294 297 295 287 284 280 283 289 285 287 291 290 283 283
298 297 297 297 297 297 297 297 298 299 299 292 284 276 282 275 278 280 281 280 278 279 288 289 286 286 286 282 284 284 287 289 292 293 293 291 284 286 286 287 288 287 286 287 287 288 284
297 296 297 295 296 297 297 297 298 298 299 291 282 280 283 281 282 280 280 279 279 280 284 284 283 285 287 284 285 283 286 287 286 290 289 291 284 286 283 286 286 284 286 286 287 288 288
296 297 296 296 297 297 297 296 297 299 298 290 289 289 284 280 280 278 279 279 279 283 285 287 286 285 285 287 289 291 291 290 289 288 287 287 285 282 279 284 283 279 284 284 285 287 290
296 296 296 295 296 297 299 297 298 299 299 293 291 289 282 276 279 279 280 281 280 282 282 286 288 286 290 293 292 291 291 290 290 290 290 286 285 284 279 282 272 283 289 289 287 289 292
296 296 296 296 297 298 296 296 298 299 299 294 292 289 284 276 280 280 281 281 282 285 284 286 289 290 292 290 285 283 283 284 285 288 288 289 286 281 278 277 281 283 289 288 286 286 292
295 295 296 296 297 297 296 296 298 299 299 295 292 294 288 280 278 282 281 282 281 282 282 286 291 292 290 285 283 278 277 280 280 283 289 287 287 283 280 275 272 282 290 295 293 281 291
296 296 296 296 297 297 296 296 297 298 299 297 294 295 289 282 284 284 282 282 284 283 280 284 285 286 289 283 281 279 279 283 278 279 281 282 283 279 278 277 281 288 292 294 281 283 291
295 295 295 296 297 297 296 296 297 298 299 297 294 295 290 284 284 285 286 283 283 283 279 284 283 283 284 281 281 281 280 281 281 283 283 281 280 279 280 277 275 291 292 286 290 292 291
294 295 295 296 297 297 296 296 297 298 299 299 293 296 296 288 286 288 289 290 289 288 286 285 283 283 286 281 282 282 281 282 280 278 287 281 285 282 283 283 288 289 288 288 290 287 288

GFSGBSN_sfc_thetae_096.txt.gz
Theta_e
310 309 308 307 307 307 307 307 307 307 306 306 306 307 307 307 307 307 307 307 307 307 307 307 308 309 306 297 297 304 315 311 305 311 306 304 302 301 299 303 304 302 303 304 305 305 305
309 308 308 308 307 307 307 306 306 306 306 305 306 306 306 306 307 307 306 307 307 307 307 308 309 309 302 291 304 305 304 303 303 311 306 304 303 305 302 302 302 304 304 304 304 304 305
309 308 309 307 307 306 306 306 305 305 305 305 305 305 305 306 306 306 306 306 307 308 307 308 311 308 300 296 305 306 304 302 304 304 306 309 306 303 302 299 304 303 299 302 303 304 303
307 306 305 307 307 306 305 305 304 305 305 304 305 304 304 304 304 305 305 306 307 308 307 310 311 306 296 306 309 306 307 304 305 304 302 304 306 305 303 304 301 298 299 295 302 303 303
305 305 306 306 305 305 303 303 304 304 304 304 304 304 304 305 305 305 306 306 307 306 309 309 307 302 294 307 302 307 309 305 305 304 304 301 301 303 302 298 296 298 294 296 298 304 302
305 305 305 304 303 302 302 303 304 303 303 304 303 303 303 303 305 305 305 305 304 306 306 307 306 296 299 295 301 306 306 307 303 301 298 297 298 296 299 295 289 292 293 295 295 301 302
305 304 304 303 302 302 302 303 303 303 303 303 303 303 303 303 304 304 302 300 294 295 295 289 290 291 293 297 300 298 301 304 303 299 291 295 290 289 294 296 297 295 294 294 298 301 299
304 305 303 302 301 301 301 302 303 302 302 302 302 302 302 303 303 302 301 294 293 293 285 293 293 293 296 297 291 295 301 296 298 293 293 291 288 294 296 295 293 292 291 292 297 300 299
303 301 301 301 300 300 300 301 302 302 302 302 302 302 302 302 302 300 297 295 300 299 287 289 293 294 296 298 292 293 297 295 294 294 291 289 291 294 294 292 290 292 291 291 292 297 299
301 300 300 300 299 301 301 300 301 301 301 301 301 302 302 302 298 297 294 299 301 301 282 285 291 296 297 298 293 300 299 296 295 292 293 291 293 292 291 291 292 289 295 293 292 291 289
300 300 300 299 299 300 300 300 300 300 301 301 301 302 302 301 298 294 296 300 301 295 272 287 292 303 297 293 294 297 302 296 292 294 295 290 290 290 288 290 293 290 294 292 292 291 291
301 301 300 299 300 299 299 300 300 300 301 301 301 301 302 300 299 299 301 301 298 281 272 283 291 290 289 292 294 297 296 298 298 295 297 294 298 295 293 294 294 295 292 293 294 292 287
299 300 300 298 298 298 299 300 300 300 301 301 301 301 300 300 295 302 301 295 280 274 284 282 284 288 287 288 289 292 291 290 289 287 288 292 292 297 297 292 294 295 292 286 284 285 284
299 298 298 297 297 299 299 300 300 300 301 301 302 300 298 300 302 302 298 286 273 278 280 286 285 286 285 288 291 291 289 287 293 291 288 284 281 294 298 293 291 291 291 287 278 281 285
299 300 298 297 298 299 299 299 300 300 301 302 300 299 299 301 303 301 291 278 277 279 282 281 283 282 282 283 287 289 288 288 291 293 286 285 284 293 298 299 296 292 290 294 286 288 286
300 299 298 297 298 298 299 299 299 300 301 300 297 296 296 302 303 297 287 278 281 285 285 284 279 282 278 282 284 288 288 291 290 294 294 290 284 291 295 299 298 296 297 288 290 280 280
300 298 296 298 297 298 298 298 299 300 301 298 297 291 296 302 300 291 281 281 283 287 286 282 282 280 282 281 285 287 289 293 295 293 294 293 291 289 293 292 291 292 291 292 292 290 285
299 297 297 297 297 298 298 298 299 300 300 297 295 287 297 301 288 288 283 283 286 286 288 285 286 284 282 283 284 286 287 290 296 296 291 295 291 285 288 295 297 295 292 292 287 284 289
298 298 297 297 299 298 297 297 298 299 298 298 291 290 298 298 281 282 286 285 286 284 286 283 283 285 286 284 283 286 289 293 296 295 291 294 290 284 286 292 295 292 294 294 294 292 286
298 299 297 297 298 298 297 297 297 299 298 298 292 285 291 293 290 284 282 283 282 288 288 288 285 289 287 286 288 286 287 292 294 294 297 297 290 288 284 288 292 290 292 294 292 289 287
299 298 297 299 297 298 298 297 297 299 300 297 291 285 286 283 286 285 284 283 281 281 287 290 287 287 286 283 285 284 287 290 291 293 294 294 286 289 290 290 291 289 288 289 288 289 286
299 298 297 298 297 296 297 297 297 298 299 295 287 288 288 285 286 285 283 282 281 283 285 285 285 288 289 285 285 283 286 287 287 291 289 292 286 288 285 288 288 285 287 287 288 289 289
298 297 297 297 296 296 297 297 297 298 299 293 293 293 289 285 284 283 283 282 282 285 286 289 289 288 288 288 290 292 292 293 292 289 289 288 287 284 282 286 284 282 286 287 289 291 291
297 297 297 297 297 296 297 298 297 298 300 296 293 293 287 283 284 283 283 284 283 284 284 289 291 288 292 295 297 295 294 293 292 293 293 287 286 286 282 283 275 286 292 292 290 292 294
296 297 297 297 296 297 298 298 297 298 300 296 295 292 288 283 285 284 284 284 287 288 287 288 290 292 296 294 289 284 286 287 289 292 291 293 289 283 281 280 283 287 290 289 288 288 293
296 297 296 296 296 297 298 296 297 298 299 299 295 296 291 286 286 285 285 286 285 285 286 288 293 296 295 291 287 281 280 282 282 285 292 291 291 287 283 277 275 286 292 296 295 285 291
296 296 296 296 296 297 298 296 296 298 298 299 295 296 291 287 290 288 286 285 288 286 284 287 288 290 294 288 285 283 282 286 281 281 282 285 285 282 282 280 284 290 294 296 283 285 292
297 296 296 296 296 297 297 297 296 298 298 299 295 297 292 288 291 290 290 288 288 288 284 288 289 288 288 285 283 283 283 285 285 286 285 284 284 283 284 280 277 288 293 287 287 290 290
296 296 296 296 296 297 298 297 296 297 298 299 293 297 297 289 289 295 295 296 294 292 289 291 287 286 289 286 286 284 282 284 283 281 289 283 285 283 283 281 287 287 286 286 288 286 288

GFSGBSN_sfc_thetae_099.txt.gz
Theta_e
312 311 309 308 307 307 307 307 306 306 306 306 306 306 306 307 307 307 307 307 307 307 307 308 309 310 308 299 299 308 317 315 307 304 305 306 305 303 299 303 306 304 305 308 309 309 309
310 310 308 308 307 306 306 306 305 306 306 305 305 305 305 306 306 305 305 306 307 307 307 308 309 310 305 293 306 307 306 305 305 304 302 305 304 307 303 302 303 307 306 307 308 308 307
310 309 309 308 307 307 306 305 305 305 305 304 305 305 305 305 305 305 305 305 306 307 307 308 309 310 303 298 307 308 306 305 305 304 302 308 307 304 305 302 306 305 302 306 306 307 306
310 309 309 308 308 306 305 304 305 304 304 304 304 304 304 304 304 305 305 306 306 307 307 308 310 309 299 307 309 306 307 305 306 307 304 306 310 305 303 306 304 300 301 297 304 305 306
308 307 307 307 306 304 303 302 303 303 303 304 303 303 304 304 305 305 306 306 306 307 307 310 308 304 297 308 303 307 309 304 307 307 306 304 303 301 303 298 296 298 293 296 298 306 305
307 307 307 306 304 303 302 302 302 302 303 303 303 303 303 303 305 305 305 305 307 308 307 307 306 298 302 298 301 304 308 307 305 306 303 298 296 293 296 296 289 293 294 297 297 303 305
307 307 306 304 304 303 302 302 303 303 302 303 303 303 303 303 304 304 304 303 298 297 299 293 293 295 295 299 301 298 300 298 300 301 295 296 290 288 293 297 298 295 295 295 299 303 302
306 306 305 304 302 302 301 301 301 301 302 302 302 303 303 303 303 304 304 297 295 296 287 295 295 295 297 298 293 299 304 294 293 289 297 293 287 293 297 297 296 295 290 294 299 301 301
305 305 304 303 302 301 301 301 301 301 301 302 302 302 303 303 303 302 300 297 302 301 288 290 294 295 298 302 297 297 300 296 291 290 291 291 291 295 294 294 293 294 291 293 293 296 299
303 303 302 302 301 302 300 300 300 300 301 302 302 302 302 303 300 301 297 301 302 302 282 287 291 297 300 300 295 301 303 296 292 290 294 294 295 294 293 292 294 289 296 294 292 292 288
302 302 301 301 301 301 300 300 300 300 301 302 302 302 302 302 301 297 299 303 303 299 273 288 292 304 299 292 294 296 303 298 289 291 291 292 292 292 291 292 295 292 296 294 294 292 292
302 302 301 301 301 300 300 300 299 300 301 301 302 302 302 303 303 302 305 304 300 282 274 284 290 288 288 291 294 298 299 301 297 291 294 293 299 296 294 295 295 296 293 293 293 291 285
302 302 301 301 300 299 300 299 299 300 301 301 302 302 301 302 298 305 305 299 283 277 285 281 283 287 286 288 289 294 293 292 288 283 285 292 293 297 296 292 295 293 289 283 281 283 283
301 301 301 299 299 299 300 299 299 300 301 302 302 302 300 303 305 306 301 290 277 281 281 286 286 285 283 288 288 289 292 289 292 292 289 286 285 292 296 293 290 291 290 285 279 281 285
300 300 299 299 299 300 300 299 299 299 301 302 301 304 304 304 306 304 294 282 279 282 285 283 284 282 283 285 286 287 292 290 291 293 286 287 285 295 296 296 295 291 288 294 288 290 288
300 300 299 298 299 299 300 299 298 300 301 301 301 300 300 305 306 300 291 282 284 288 287 286 279 283 278 281 283 286 289 292 291 295 295 292 284 292 295 299 297 294 296 288 291 279 280
301 300 299 298 299 299 299 298 298 300 301 300 301 294 300 305 304 295 285 285 287 290 289 285 281 280 281 282 283 285 289 292 294 294 296 293 290 288 294 292 290 293 291 293 292 289 284
301 299 299 299 298 298 299 298 298 299 301 298 300 292 301 305 293 293 287 287 290 288 290 288 287 285 282 284 283 284 288 291 298 298 290 294 291 286 288 295 297 295 293 292 287 286 289
300 298 298 298 298 299 299 298 298 299 300 301 296 294 302 300 286 287 289 288 290 288 289 289 286 287 287 285 283 286 286 294 297 297 293 296 291 284 285 292 296 293 295 295 294 293 288
299 299 297 298 300 298 298 298 297 298 300 299 297 289 295 298 293 288 286 286 286 291 289 290 290 291 289 286 288 285 286 292 296 296 298 298 292 288 284 287 292 291 293 294 293 288 288
298 300 298 297 299 298 298 298 297 298 300 299 295 289 291 288 291 288 288 287 284 284 290 292 289 289 288 284 284 283 288 290 293 295 294 295 288 289 292 293 293 292 292 293 291 291 288
299 299 298 299 298 298 298 297 298 298 300 295 287 292 293 290 289 288 287 285 284 286 288 287 286 290 290 286 285 283 287 288 287 292 290 293 287 289 287 291 291 288 289 289 289 290 290
299 299 298 299 297 297 297 298 298 297 299 296 296 297 292 288 287 287 287 285 285 288 289 291 290 289 289 289 292 293 295 294 293 290 289 289 288 286 283 287 287 284 288 289 291 293 293
299 298 298 298 297 296 297 298 297 298 299 300 298 296 288 285 288 285 285 286 286 287 287 291 293 289 292 297 299 297 296 294 294 294 294 289 287 288 283 285 278 288 295 294 293 293 294
298 298 298 297 297 297 297 298 297 298 299 300 301 296 290 284 289 287 286 287 289 290 289 290 292 294 298 296 291 287 288 289 289 292 292 293 290 286 283 283 286 288 291 291 290 289 294
297 297 297 297 297 296 298 298 298 298 299 301 298 300 295 287 288 288 288 288 286 287 288 290 295 298 297 293 289 282 281 284 284 287 293 293 292 289 286 279 278 286 292 297 296 286 292
298 297 297 298 296 297 298 297 297 298 299 300 299 298 295 290 292 291 287 287 291 288 287 290 291 292 296 290 286 284 283 288 283 283 284 286 287 284 285 283 285 287 292 296 285 283 291
297 297 298 297 297 297 297 298 297 297 299 299 296 299 294 290 292 294 294 290 290 290 286 290 290 291 289 286 285 284 284 286 286 287 286 285 284 285 286 283 279 287 292 285 285 288 289
297 298 298 298 297 297 297 297 297 297 298 299 294 299 298 291 292 298 298 299 297 295 292 292 289 289 290 286 287 285 284 286 286 283 291 284 286 283 283 281 286 287 286 287 288 286 288

GFSGBSN_sfc_thetae_102.txt.gz
Theta_e
314 313 312 311 309 308 308 308 306 305 305 305 305 306 306 306 306 306 306 306 306 306 306 307 308 309 307 298 298 307 320 316 308 305 301 299 299 302 299 300 300 301 305 307 309 308 308
313 312 311 309 308 308 307 306 305 305 305 304 305 305 305 305 305 306 305 306 307 306 306 307 308 309 303 292 306 308 306 307 304 303 302 301 298 302 301 301 300 302 303 305 307 307 308
312 311 309 309 308 308 307 305 304 304 304 304 305 304 304 305 305 305 305 306 307 307 307 308 308 307 299 296 307 308 307 305 304 303 299 302 303 300 301 298 303 303 298 302 305 306 305
311 310 310 308 308 307 306 304 304 304 303 304 304 304 304 304 304 305 305 306 307 307 307 308 309 306 296 308 310 307 306 304 306 305 303 303 302 300 300 301 299 298 299 294 301 304 306
310 310 310 309 308 306 304 303 304 302 303 303 303 304 304 304 305 305 306 306 307 308 308 309 306 303 297 312 304 307 306 303 305 305 305 304 301 296 297 295 292 295 291 293 296 303 304
310 309 308 308 307 305 304 304 303 302 303 303 303 303 304 304 305 305 305 306 308 309 307 305 306 297 302 300 304 301 303 301 303 302 301 301 297 291 292 293 286 288 291 294 294 300 302
309 308 308 307 306 304 304 303 303 302 302 302 302 303 303 304 304 305 304 302 295 296 296 291 292 294 294 298 300 298 300 298 297 293 289 295 292 287 288 291 293 294 293 293 297 301 299
308 308 308 306 305 304 303 303 302 301 302 302 302 302 303 303 304 305 303 295 294 295 288 294 294 294 297 298 291 296 303 295 294 287 289 289 286 293 292 291 290 292 292 293 297 300 300
308 307 306 305 304 303 302 302 301 301 301 301 302 303 303 303 304 304 301 297 302 301 288 290 295 295 300 302 295 295 300 297 293 290 288 285 289 296 292 289 288 290 291 292 293 297 296
307 306 305 304 303 303 303 302 301 300 300 302 302 302 303 303 300 302 298 302 303 302 283 288 292 297 298 296 290 298 300 296 293 289 289 287 291 292 291 288 290 288 295 296 294 290 286
306 305 304 303 302 302 301 301 300 300 301 301 302 302 302 302 300 298 300 304 304 299 275 288 289 299 295 290 291 292 300 297 291 290 288 285 288 290 290 289 292 291 297 295 294 290 289
304 303 303 302 302 302 301 301 300 300 301 301 302 303 303 303 303 303 305 305 301 283 275 284 289 287 288 290 291 295 297 300 298 290 289 288 294 295 294 294 294 296 294 293 293 289 282
303 302 302 301 302 301 300 301 300 300 301 301 302 302 302 302 298 305 306 300 284 278 287 283 284 288 287 287 289 290 289 289 287 283 282 287 288 294 297 292 295 294 290 282 280 281 280
302 302 302 301 301 300 300 301 300 300 300 302 302 302 304 304 306 306 302 291 277 283 283 287 287 287 284 288 286 286 287 289 292 288 285 282 283 291 297 293 290 290 290 284 276 278 281
302 302 302 301 300 300 300 300 299 299 301 302 301 304 303 305 307 305 296 283 281 283 286 284 286 282 282 285 285 287 289 290 290 290 283 285 285 295 296 296 295 290 286 293 288 289 285
302 302 301 300 300 301 300 300 299 299 301 301 300 300 300 305 307 301 291 283 285 289 288 287 281 283 280 283 283 285 287 292 290 293 295 290 284 293 295 296 295 292 294 285 286 281 280
301 301 300 300 300 300 300 299 298 299 301 301 300 295 301 306 306 296 286 285 288 291 291 286 284 283 284 283 284 284 285 293 295 294 296 292 290 289 294 290 288 289 288 290 290 288 282
301 301 300 299 300 299 300 299 298 299 301 299 300 292 302 306 293 294 287 288 292 290 293 291 290 288 285 285 284 284 284 289 295 298 291 294 291 285 287 295 297 294 291 291 285 284 288
301 300 299 299 299 298 300 299 298 299 301 301 296 295 303 302 286 287 290 289 291 289 290 290 288 290 290 285 282 286 286 291 296 296 293 295 289 283 285 290 294 291 293 294 294 291 287
301 299 299 299 299 299 299 298 297 298 300 299 296 290 295 297 294 288 287 287 286 292 290 291 290 292 290 287 288 285 285 290 296 296 297 298 291 287 282 287 291 288 291 293 292 285 287
300 299 298 298 299 299 299 298 297 298 300 298 296 291 292 288 290 289 289 288 285 285 290 292 289 289 288 285 284 284 287 289 293 295 294 293 286 289 290 292 292 290 291 292 290 290 285
299 300 299 298 299 298 298 298 297 298 300 298 287 292 293 290 290 288 287 286 285 286 288 287 287 289 289 285 285 283 287 289 288 292 290 292 286 286 286 292 290 287 289 290 290 291 292
299 300 300 298 299 299 298 297 297 297 298 296 297 297 293 291 288 287 287 286 285 288 289 291 290 289 288 287 291 292 295 294 293 290 289 289 287 286 281 288 287 283 288 290 290 291 291
299 299 299 299 298 298 297 298 297 297 298 300 297 295 290 286 287 286 286 287 287 288 286 290 292 289 292 296 297 298 295 295 294 293 293 288 288 288 282 284 277 288 295 294 290 290 291
299 299 299 299 298 297 297 298 298 297 298 300 300 295 291 286 289 288 287 288 289 290 289 289 292 294 297 295 290 287 288 288 289 291 291 293 289 285 283 282 285 288 289 288 288 285 291
299 299 298 298 298 297 297 297 298 297 298 299 299 300 294 287 288 290 287 290 286 286 287 289 295 297 297 292 289 282 280 283 283 287 293 292 293 289 286 280 278 283 288 293 293 281 289
299 299 298 298 298 297 298 298 298 298 298 300 300 301 296 288 292 292 288 287 290 289 286 290 290 292 295 288 285 283 282 287 282 283 284 286 287 284 285 282 282 285 290 292 283 280 289
298 298 298 298 297 297 298 298 297 296 298 299 299 301 296 290 292 294 294 291 290 289 285 289 289 290 288 285 284 283 283 285 285 287 286 283 283 282 283 281 277 287 289 282 284 287 288
298 298 298 298 297 298 298 298 298 297 298 298 295 299 299 290 292 297 297 298 296 295 291 291 289 290 290 286 285 284 283 287 285 281 290 283 286 283 282 280 286 287 286 288 289 286 288

GFSGBSN_sfc_thetae_105.txt.gz
Theta_e
318 316 314 312 312 310 309 308 307 305 305 305 305 306 306 306 306 306 306 306 306 307 307 307 308 308 303 296 297 305 321 321 311 303 297 295 292 291 291 296 297 294 295 298 301 304 304
317 316 313 312 310 309 309 308 306 305 305 304 305 305 305 305 305 306 306 305 306 306 307 308 308 308 299 288 302 303 305 307 305 301 298 298 294 294 291 291 293 298 298 297 299 301 304
315 314 312 311 309 308 308 307 305 305 304 304 305 304 305 305 305 306 305 305 306 306 307 308 309 304 297 292 301 302 303 302 303 300 296 298 297 293 292 291 296 296 292 296 298 298 298
315 313 311 310 309 309 308 306 306 305 303 304 304 304 304 305 305 305 305 306 307 307 308 309 309 302 292 304 303 305 304 302 303 302 300 300 300 295 292 293 292 291 291 286 295 298 299
315 313 311 310 309 309 307 306 305 304 303 303 303 304 304 304 305 306 306 307 307 309 310 310 302 299 293 310 303 305 299 296 298 299 302 304 298 292 291 286 283 287 283 285 290 298 297
314 312 311 310 309 309 307 305 305 304 303 303 303 303 304 304 305 306 306 307 308 309 305 305 303 294 299 295 297 298 299 299 295 295 294 295 294 289 287 284 276 281 284 286 287 293 296
313 311 311 310 309 308 306 305 305 304 303 303 302 303 304 304 305 305 303 296 288 289 290 287 288 289 291 295 299 296 298 296 295 292 285 288 282 282 287 287 287 285 286 286 289 294 296
312 311 310 309 308 307 306 305 304 303 302 302 302 303 303 304 304 305 300 290 291 290 284 293 292 292 295 296 293 295 299 293 293 287 290 287 280 285 288 293 288 285 284 284 290 296 296
311 309 309 308 307 306 305 304 303 302 301 301 302 303 303 303 304 301 295 294 298 297 284 289 294 294 298 299 292 292 294 294 289 287 287 285 287 289 286 288 288 286 283 284 284 294 297
309 309 308 307 306 305 304 303 303 302 300 301 302 303 303 304 299 297 292 298 299 297 278 286 289 294 296 294 288 295 295 294 290 286 288 288 291 290 287 287 289 282 287 287 286 289 285
308 308 307 306 305 304 303 303 302 301 300 302 302 303 303 304 295 294 297 300 300 294 272 287 288 298 295 290 291 293 299 294 289 289 289 286 287 285 284 286 291 287 289 288 288 287 287
308 306 306 305 304 303 303 302 301 300 301 301 302 303 303 301 297 297 301 300 296 280 272 283 289 288 288 290 291 293 293 296 295 290 290 288 291 288 289 293 292 293 293 292 291 288 278
306 306 305 304 303 303 302 301 301 300 300 301 302 303 301 301 292 299 300 294 280 273 286 282 283 287 286 286 288 289 289 289 286 281 281 287 285 289 293 288 292 292 287 277 279 277 276
305 305 304 303 302 302 301 301 300 300 300 301 302 303 300 301 299 300 296 286 274 282 282 287 286 286 283 287 286 287 287 285 290 287 282 278 277 288 292 289 287 288 287 278 275 276 279
304 304 303 302 302 302 301 301 300 299 300 301 302 296 297 300 300 299 289 275 277 281 285 284 285 282 281 286 285 286 286 286 290 290 282 281 282 291 294 295 293 288 284 290 284 286 278
303 303 303 302 301 300 301 300 300 299 300 301 293 296 295 299 300 295 284 282 283 288 288 287 280 283 278 282 282 284 284 289 290 292 293 287 279 291 294 294 292 289 293 280 283 278 277
302 303 302 301 300 301 300 301 299 298 300 301 292 290 296 300 299 289 277 281 287 291 291 287 283 284 283 282 282 282 283 287 290 290 291 290 285 288 292 290 286 287 287 289 289 286 279
303 302 301 300 300 300 300 300 298 298 300 297 293 283 297 299 284 283 278 286 291 289 292 290 289 287 284 285 282 280 280 286 292 293 289 293 288 283 286 293 295 293 289 290 283 284 286
302 301 300 300 300 300 300 299 298 298 300 293 289 288 297 296 276 277 286 288 289 288 288 288 287 289 288 285 277 282 282 291 293 292 290 292 287 281 284 289 291 289 292 292 291 290 285
301 301 300 299 300 299 300 299 297 297 299 294 289 281 288 290 288 284 283 285 285 290 289 289 288 289 286 283 286 281 283 290 293 293 297 296 290 285 280 285 290 288 291 292 290 284 285
301 301 300 300 299 299 299 298 297 297 299 293 288 282 287 278 282 283 285 286 283 282 288 289 287 286 285 283 281 280 285 287 292 295 292 291 284 286 289 290 289 288 288 289 288 290 285
300 300 300 300 299 299 299 298 297 297 299 290 280 285 287 283 287 285 286 283 284 285 285 285 284 286 286 282 282 281 285 286 287 292 289 291 284 286 286 287 288 286 287 288 288 290 290
300 299 299 299 299 299 299 298 297 297 297 290 291 291 287 286 284 281 282 284 284 286 288 288 286 286 284 286 288 289 291 291 291 290 287 288 286 284 281 287 288 282 286 286 286 288 288
300 300 299 298 299 299 298 297 297 297 297 294 291 289 283 278 282 283 286 286 286 286 284 288 289 286 289 293 293 293 294 293 293 292 292 287 286 286 281 284 277 283 290 289 285 286 288
299 299 299 299 299 298 298 298 297 297 298 295 294 290 285 277 285 286 286 287 288 288 286 287 289 291 292 290 286 285 285 286 289 292 291 291 287 283 281 280 284 285 285 284 286 282 287
298 299 299 299 299 299 299 298 298 297 298 293 294 294 288 280 283 290 285 287 281 281 283 287 291 292 291 286 284 281 279 282 282 286 292 292 291 285 283 279 275 281 284 288 290 277 287
299 299 299 299 299 298 298 298 298 298 298 295 294 296 290 279 288 289 283 283 287 284 281 285 286 287 289 280 280 280 280 286 280 281 282 282 282 280 280 279 280 283 286 288 279 278 288
299 299 299 299 299 298 298 298 298 297 298 295 294 296 292 287 287 292 292 287 287 285 279 284 282 283 282 279 280 279 280 282 283 286 284 280 280 277 279 277 273 285 285 280 284 287 288
299 299 299 299 298 298 298 298 297 296 298 297 293 296 295 288 285 292 293 294 292 290 286 286 284 286 286 279 281 281 279 281 283 280 288 279 284 279 280 279 285 286 285 287 288 286 287

GFSGBSN_sfc_thetae_108.txt.gz
Theta_e
319 319 318 317 314 313 311 309 309 306 305 306 305 306 307 306 307 307 306 307 307 307 307 308 309 308 301 293 293 304 317 314 312 303 297 295 291 288 287 294 294 290 292 294 295 295 297
318 318 317 316 314 313 311 310 308 306 306 305 305 306 305 305 306 306 306 306 307 307 308 308 309 307 298 285 299 301 301 302 306 300 297 294 292 293 289 288 287 293 293 295 297 296 296
318 318 317 315 314 312 310 310 308 307 306 305 304 305 305 305 305 306 306 306 307 307 308 309 309 304 297 290 300 301 302 300 300 300 296 298 296 293 291 287 291 291 287 290 292 294 295
318 318 316 314 313 312 311 309 307 307 305 304 305 304 304 305 305 305 306 307 308 308 309 310 309 301 291 303 301 302 301 296 298 297 296 297 298 294 290 292 290 286 285 281 289 293 295
317 317 316 314 312 311 310 308 307 306 304 304 304 304 304 304 305 306 307 307 308 309 311 310 301 297 292 308 299 299 296 295 296 297 296 299 295 292 291 285 283 284 278 280 283 291 291
317 317 315 313 312 311 309 308 306 306 304 304 303 304 304 304 306 306 306 306 306 306 302 307 302 292 297 293 296 297 298 297 294 294 292 291 287 284 285 281 276 279 278 280 281 289 290
318 316 314 313 311 310 309 307 306 305 304 303 303 303 304 304 305 306 303 294 288 287 290 286 287 288 290 294 296 294 297 295 294 291 283 288 283 279 281 284 288 285 282 280 283 287 289
316 315 314 312 311 310 309 307 306 305 304 303 302 303 304 304 304 305 299 290 291 290 285 292 292 291 293 294 289 293 298 290 289 285 289 285 281 287 290 288 284 284 284 282 285 287 287
315 314 312 312 311 309 308 306 305 305 303 302 302 303 303 304 304 300 294 294 297 295 283 288 293 292 295 297 291 291 293 291 287 285 285 283 285 290 289 287 284 281 281 284 283 285 289
313 312 312 312 310 308 307 306 305 304 302 301 302 303 303 305 299 296 293 299 298 295 279 285 288 293 295 294 289 297 297 292 289 285 286 284 289 287 287 285 287 280 286 286 286 282 278
312 311 310 309 308 307 306 306 304 303 301 301 302 302 303 303 295 294 297 299 299 292 271 287 288 297 294 289 291 292 297 293 286 286 287 284 286 286 285 286 289 284 288 286 286 281 282
310 309 308 308 306 306 305 304 303 302 301 301 301 302 303 299 296 297 299 299 295 277 272 283 288 287 287 289 290 292 293 295 293 288 288 287 292 289 287 289 289 290 288 288 287 283 275
308 308 308 307 306 304 304 303 302 301 301 300 301 302 301 301 292 298 298 293 278 273 285 281 282 286 285 285 287 288 288 288 287 281 280 285 286 287 291 287 288 288 285 275 273 274 276
307 307 307 306 305 304 303 302 302 301 300 299 301 302 300 300 298 298 295 285 274 281 281 286 285 286 282 285 286 287 286 284 291 288 282 279 277 287 293 287 283 286 285 278 274 276 279
307 306 306 304 303 304 302 302 301 300 299 300 301 295 295 298 298 297 288 274 277 281 284 284 285 281 280 284 285 284 285 284 289 289 284 281 281 289 290 291 290 286 283 288 284 284 277
306 306 304 303 303 302 302 301 301 300 300 301 293 294 294 298 299 294 282 281 282 287 288 287 279 282 275 281 282 282 283 288 287 290 293 288 279 288 293 294 293 288 291 282 281 271 269
305 305 303 302 303 302 301 301 300 300 300 301 293 289 295 298 298 287 277 280 286 290 290 287 282 281 282 281 284 280 282 287 289 290 293 292 284 287 291 288 287 287 285 288 288 285 277
303 303 303 303 301 301 301 301 300 299 300 297 291 283 295 297 282 277 278 285 291 288 291 289 288 286 282 281 283 281 278 286 291 292 288 291 287 283 286 293 294 292 289 289 281 280 284
303 302 302 301 301 301 301 300 299 299 300 293 289 288 295 295 276 275 284 288 288 287 286 287 286 287 286 279 277 279 281 290 291 290 289 291 287 280 283 288 292 289 291 291 290 287 283
302 301 301 301 301 300 300 299 298 299 300 293 289 282 287 288 285 283 281 284 284 289 287 288 286 286 283 280 285 278 280 287 290 291 296 293 288 283 278 283 285 286 290 291 289 284 283
301 301 300 300 300 300 300 299 298 298 300 293 286 283 287 278 281 282 283 284 281 281 286 286 284 284 282 276 279 279 283 285 289 293 292 290 283 285 288 288 289 287 286 288 288 287 282
301 300 300 300 299 300 299 299 298 298 299 290 283 285 285 282 287 283 284 282 283 283 283 283 281 284 284 280 281 279 282 284 284 289 289 291 284 285 284 287 287 284 285 286 287 287 286
300 299 300 300 300 299 299 298 298 298 296 289 288 289 285 284 282 279 280 283 283 285 286 287 285 283 283 284 286 287 288 289 288 287 287 287 285 284 281 286 285 278 282 283 284 286 286
300 299 299 300 299 299 298 298 298 298 296 291 289 287 281 277 281 282 285 285 285 285 283 287 287 284 287 291 290 290 290 290 291 292 292 287 285 285 281 284 273 281 287 287 283 284 286
300 299 299 299 299 299 298 298 298 298 299 292 291 288 282 275 283 285 285 285 285 286 284 286 287 289 289 288 284 283 283 284 289 291 291 291 287 283 281 280 281 282 283 282 283 281 285
300 300 299 300 300 299 299 298 298 299 299 292 291 290 285 279 280 287 284 285 280 279 281 286 289 291 289 284 282 280 279 282 282 286 291 290 289 285 282 276 274 280 283 287 287 277 285
300 300 300 300 299 299 298 299 298 299 299 294 290 291 286 278 284 287 282 282 285 282 279 283 284 285 286 279 277 278 278 285 280 280 281 282 282 278 279 277 279 281 284 288 279 276 287
300 300 300 299 299 299 298 298 298 298 299 294 293 292 287 281 284 290 291 285 285 283 278 282 280 282 280 277 277 279 279 281 282 285 283 280 279 276 278 275 272 284 284 279 283 287 287
299 299 299 299 299 299 299 298 297 298 298 297 288 293 292 284 283 289 290 292 291 290 285 284 283 285 284 277 278 280 278 280 282 276 288 279 282 278 279 278 284 287 285 288 288 286 287

GFSGBSN_sfc_thetae_111.txt.gz
Theta_e
322 321 319 318 318 316 315 312 310 309 307 307 306 305 306 307 307 307 307 307 307 308 308 308 309 309 299 289 289 300 312 308 306 302 297 294 290 288 286 291 293 292 293 294 294 293 292
320 320 319 318 317 316 315 313 310 310 307 307 306 305 306 306 306 306 306 306 307 308 308 309 309 307 297 285 296 300 301 301 301 299 296 294 292 292 288 286 287 290 289 288 290 290 292
321 319 318 318 317 316 315 313 311 309 307 307 305 305 304 305 305 306 306 306 307 308 309 309 308 303 295 290 299 300 300 299 299 297 294 296 295 291 290 287 290 289 285 288 288 287 288
320 319 318 318 316 315 314 312 311 309 308 307 305 305 304 304 305 305 306 306 307 308 309 309 309 299 289 302 300 302 298 295 297 296 295 296 295 291 289 290 288 286 285 280 287 287 288
320 319 318 317 315 314 313 312 311 308 308 306 305 304 303 304 305 305 306 307 308 308 310 310 299 295 289 306 300 298 296 294 295 295 294 298 293 288 289 284 281 283 278 280 282 288 287
320 319 317 317 315 314 312 312 310 308 307 305 304 303 303 304 305 306 306 307 306 304 308 305 302 290 294 292 295 296 296 296 293 292 291 290 286 282 281 279 275 279 279 280 280 284 285
320 319 317 317 315 314 312 311 310 309 306 305 304 302 302 304 304 306 304 295 290 289 291 286 287 287 289 292 295 293 296 294 292 289 283 287 282 279 282 282 283 281 279 278 283 288 285
319 318 317 317 315 313 312 311 309 308 306 305 303 302 302 303 304 305 299 292 292 291 285 291 290 289 292 292 288 292 294 288 287 282 286 284 280 285 288 287 285 284 281 280 283 286 287
318 317 316 316 314 313 312 310 309 307 306 304 302 302 302 303 304 299 294 295 297 295 284 288 293 291 292 292 290 289 293 290 287 284 284 281 283 288 286 284 282 283 282 281 280 283 288
318 316 315 315 313 311 311 309 307 306 305 303 302 302 302 303 297 294 293 300 298 296 280 285 288 291 293 292 288 295 295 291 288 284 286 283 288 286 284 283 284 280 287 285 282 280 275
317 315 315 313 311 310 310 308 307 306 304 302 302 302 302 303 293 291 296 299 299 293 273 287 287 296 293 288 289 291 296 292 285 286 287 284 285 284 283 284 288 283 289 286 285 281 281
317 315 313 311 310 309 308 307 306 305 303 302 302 302 302 298 295 295 297 298 295 279 273 283 287 286 287 288 289 291 291 294 292 287 287 286 290 288 287 289 289 290 287 286 284 281 275
316 314 312 310 309 308 307 306 305 304 302 302 302 302 300 300 291 296 298 294 278 273 285 281 282 286 285 284 286 288 286 287 286 282 281 286 285 288 291 286 287 286 282 274 274 269 273
315 312 311 309 307 307 306 305 304 302 302 302 301 301 300 299 297 297 295 285 274 280 280 285 285 285 280 284 285 286 285 282 289 288 283 279 279 286 292 286 283 284 283 277 271 274 278
313 311 309 307 306 306 305 304 302 301 301 301 301 294 293 296 297 297 287 276 278 280 284 283 284 280 279 283 283 284 283 283 288 289 283 282 279 288 290 291 288 285 281 287 281 283 279
311 309 307 306 305 305 304 303 302 301 301 302 293 294 293 299 299 294 283 281 282 286 287 286 279 281 274 279 280 282 282 286 287 290 292 288 280 288 292 293 290 288 291 283 283 275 268
308 307 306 305 304 303 303 302 301 300 301 301 293 289 295 299 298 288 278 280 285 289 290 286 281 280 281 276 280 278 282 286 289 288 290 290 285 285 290 288 285 286 284 286 287 282 273
306 305 304 304 303 302 302 302 300 300 302 297 292 284 295 298 285 280 280 284 290 287 289 287 286 284 279 277 281 277 279 285 291 290 285 291 287 281 285 293 293 291 288 288 280 279 283
304 303 303 303 302 302 302 301 300 301 301 293 288 288 295 295 279 278 284 287 287 285 285 285 284 285 282 276 276 278 278 288 289 288 288 291 286 279 281 287 291 288 289 291 290 287 281
301 302 302 302 303 302 301 300 300 301 301 294 288 282 288 289 285 283 282 283 283 288 286 286 285 284 281 278 283 277 278 285 288 288 294 293 287 283 278 282 287 284 288 290 288 282 280
301 301 301 302 302 301 300 299 299 301 300 294 287 284 288 281 282 283 283 283 281 281 285 285 283 282 280 275 279 278 281 282 287 291 291 290 283 286 285 286 285 284 285 289 286 285 280
301 302 301 301 301 300 299 298 299 300 300 292 285 285 284 285 287 283 283 282 282 283 282 280 280 282 281 279 281 279 281 282 282 287 287 291 282 285 283 284 283 280 283 283 286 285 283
300 300 301 301 301 299 298 298 299 299 297 289 289 289 286 283 282 280 280 283 283 283 285 285 283 282 281 283 285 286 287 287 286 285 284 287 285 283 279 286 284 277 280 281 282 284 285
301 299 299 300 300 299 298 298 299 299 297 292 289 287 283 279 281 282 284 284 284 284 282 285 285 282 286 289 288 288 287 286 287 287 289 286 285 286 281 283 273 280 285 286 282 282 285
300 300 299 300 300 299 298 298 299 299 298 292 291 288 283 277 282 284 285 284 284 284 283 285 286 287 288 286 282 282 282 283 288 290 290 290 286 283 280 278 280 281 282 281 282 280 283
300 300 300 300 300 299 298 298 299 300 299 292 290 290 285 282 281 287 283 283 279 279 281 284 288 288 287 283 281 277 277 280 280 285 289 289 287 283 282 276 273 278 282 286 286 277 284
300 300 300 300 300 299 298 299 299 300 300 294 290 290 286 280 284 285 281 281 283 280 279 281 283 284 285 277 276 276 275 283 279 279 281 281 282 278 279 277 278 281 284 288 277 277 285
300 300 300 299 300 299 299 299 299 300 300 294 290 290 286 281 283 288 289 285 283 281 277 281 279 280 279 275 277 276 277 281 282 284 283 279 278 276 278 274 271 283 284 279 283 286 285
299 299 299 299 299 299 299 298 299 299 299 295 287 291 290 283 283 288 289 290 289 287 283 283 282 283 282 277 278 278 278 281 281 278 287 278 280 278 279 276 284 286 285 287 287 284 287

GFSGBSN_sfc_thetae_114.txt.gz
Theta_e
323 323 322 320 319 318 317 316 315 312 311 309 308 307 307 307 307 306 306 307 307 308 309 309 310 310 298 288 287 296 310 307 302 300 296 293 289 287 284 288 287 286 289 292 290 288 288
322 322 321 320 319 318 318 317 315 312 311 309 308 306 306 306 306 306 306 306 307 308 308 309 309 308 293 283 294 300 300 300 297 295 293 293 291 291 287 286 284 287 287 287 287 287 287
323 322 321 319 318 318 317 316 315 313 311 309 307 306 305 305 305 305 306 306 307 307 309 309 309 302 292 288 297 299 301 296 296 295 291 294 294 289 288 285 289 288 284 288 288 286 286
323 322 321 319 318 317 316 315 314 313 311 309 307 306 305 304 304 305 306 306 307 308 309 309 309 297 286 299 299 303 297 294 295 296 294 295 293 290 287 289 286 284 284 280 286 285 288
322 322 321 319 317 317 316 315 314 313 311 309 307 306 304 304 304 305 306 306 308 310 310 310 298 292 287 303 296 296 294 293 294 294 293 297 292 287 286 282 280 280 278 280 283 287 285
323 322 321 319 318 317 316 315 313 312 311 309 307 305 304 303 305 305 306 307 306 308 307 305 302 288 291 290 294 294 294 294 292 291 290 289 285 282 280 279 274 276 277 278 279 285 286
320 323 321 319 318 317 317 315 313 311 310 308 306 304 303 303 304 305 301 290 287 285 288 285 286 288 288 291 293 291 294 293 291 287 281 285 280 278 280 281 283 281 279 277 281 285 283
316 319 321 320 318 318 317 315 312 310 309 307 306 304 302 303 304 305 294 289 288 289 285 290 289 289 291 291 287 291 293 288 286 282 284 282 279 285 286 285 283 282 280 279 283 285 285
313 315 318 320 318 318 316 315 312 310 308 307 305 303 302 303 304 297 292 292 295 293 283 287 291 290 291 291 289 288 292 290 285 283 283 280 284 287 285 283 281 281 279 279 279 284 286
310 311 314 318 319 317 316 314 311 309 308 306 304 302 302 303 297 293 291 297 295 293 279 283 287 290 292 291 287 294 294 290 287 283 285 283 286 285 283 282 283 277 284 283 282 281 275
309 310 312 315 317 315 314 312 310 309 306 305 303 303 302 303 291 290 295 297 295 290 270 285 286 294 292 288 289 290 295 290 285 285 285 283 284 284 283 283 285 281 287 285 284 281 280
309 310 311 313 316 314 312 310 308 307 306 304 303 303 303 299 293 296 297 298 293 277 271 282 287 286 286 288 288 291 290 293 292 287 286 285 289 287 285 288 287 288 285 284 284 280 274
307 309 310 312 315 313 311 309 307 307 305 303 303 303 301 298 292 296 296 292 278 272 283 280 281 285 284 284 285 287 285 285 286 281 281 285 284 287 290 285 286 285 281 273 272 274 273
307 307 309 310 314 312 310 308 306 305 303 302 303 303 301 298 297 297 293 284 274 279 279 284 284 284 280 284 284 285 283 280 288 286 282 280 277 284 288 285 282 282 282 277 271 273 277
306 307 309 310 313 310 309 307 306 304 303 302 302 294 294 295 297 296 286 275 277 279 283 283 284 279 279 282 283 282 281 281 286 287 282 280 278 288 290 290 287 282 279 287 280 281 278
306 308 309 310 311 309 307 306 305 303 303 303 294 292 293 297 298 292 282 280 281 285 287 285 279 281 275 279 279 279 281 285 285 288 290 285 281 287 289 292 288 286 290 281 282 275 273
307 309 311 311 309 307 306 305 303 303 303 301 294 288 295 298 296 287 277 280 284 288 289 285 281 280 281 275 278 276 280 285 287 286 288 286 285 283 288 286 284 285 283 286 286 282 276
310 311 310 309 307 305 304 303 303 302 302 298 291 284 295 297 283 280 280 283 290 286 289 287 286 283 280 277 277 273 276 283 288 287 282 288 287 279 283 290 292 290 287 287 281 278 282
310 311 309 306 305 304 303 302 301 301 301 293 287 288 294 293 278 280 284 286 286 285 285 285 284 284 281 275 270 276 277 286 288 285 286 289 285 278 280 285 290 286 288 289 288 287 280
310 307 306 305 304 303 302 301 300 301 302 295 289 282 286 288 286 284 283 283 283 288 285 286 284 284 281 278 281 275 276 285 287 287 292 292 288 283 276 280 284 281 287 290 288 280 278
305 305 304 303 303 302 301 301 301 302 302 294 288 283 287 281 283 284 285 284 282 281 285 284 282 281 280 274 278 278 281 282 285 290 289 290 283 284 284 284 283 281 283 285 282 282 277
302 302 302 302 301 301 301 301 301 302 301 291 285 284 286 285 286 283 285 282 282 282 281 280 281 281 281 279 280 278 280 280 280 286 285 289 282 284 283 286 285 279 281 281 283 283 280
299 299 300 300 300 299 300 301 301 301 299 289 288 289 287 284 283 282 281 283 283 283 285 284 283 281 281 282 283 284 285 285 284 282 283 285 285 283 280 284 283 276 279 279 280 282 283
299 299 298 298 298 298 299 299 300 300 298 292 289 288 285 280 282 282 284 284 283 283 282 285 284 282 284 287 287 286 284 285 284 285 287 284 285 285 282 282 272 279 285 284 281 281 283
300 300 299 299 298 298 298 299 300 300 299 293 291 288 285 280 283 283 284 283 283 284 283 284 285 286 287 284 282 282 281 282 285 289 289 288 286 282 280 277 279 281 281 280 280 278 282
299 299 299 299 299 299 300 301 301 300 299 293 290 290 288 284 282 286 282 283 280 279 280 283 286 287 286 283 281 276 276 279 279 283 289 287 287 283 281 276 272 277 282 286 285 276 282
300 300 300 299 299 300 300 301 301 300 299 293 290 290 288 283 284 284 281 281 283 280 278 281 282 283 283 277 276 276 274 281 276 279 280 280 281 278 279 276 277 281 284 287 277 275 283
300 300 299 299 299 300 300 301 301 300 299 293 290 291 288 283 283 288 288 284 283 280 275 280 278 280 278 274 276 276 276 279 278 283 282 278 277 276 279 275 273 284 285 279 283 284 283
299 299 299 299 299 299 300 300 300 299 298 295 288 291 290 285 284 288 288 289 287 285 282 282 281 283 282 276 277 277 276 278 280 278 286 278 280 278 278 276 283 285 284 285 284 286 284

GFSGBSN_sfc_thetae_117.txt.gz
Theta_e
324 324 323 323 321 320 319 318 317 316 314 312 310 308 307 307 308 307 307 307 308 309 309 310 310 310 300 291 290 299 311 306 303 301 298 296 294 292 288 289 291 289 290 292 292 292 292
323 323 322 322 321 320 320 318 317 316 314 312 310 308 306 306 307 306 306 307 308 308 309 309 309 308 296 287 298 303 304 301 300 298 296 297 294 294 290 289 289 291 291 290 291 291 292
324 323 322 321 320 320 319 318 317 316 314 312 310 308 306 306 306 306 306 307 307 308 309 309 308 302 294 291 302 304 304 300 300 298 295 297 297 294 292 289 293 290 287 290 291 291 290
324 323 323 321 320 319 318 317 317 316 314 312 310 308 306 305 305 305 306 307 308 309 310 309 309 300 290 300 303 305 302 298 299 299 297 298 297 293 291 292 290 288 288 283 289 291 291
320 323 323 321 320 318 317 317 316 316 314 312 310 308 306 305 305 305 306 307 309 310 310 309 301 297 290 304 299 299 298 296 297 297 297 297 295 291 290 287 284 285 281 282 284 290 289
315 318 321 321 320 319 318 317 316 315 314 312 309 307 305 304 304 306 306 305 310 308 307 305 302 291 294 292 295 296 297 296 294 294 293 292 290 287 286 285 278 280 280 282 281 286 287
313 314 317 318 320 320 319 318 316 314 313 311 309 307 305 303 304 306 301 293 290 289 293 288 289 290 290 294 295 295 296 295 294 292 286 289 285 283 286 286 286 284 282 281 284 287 286
312 312 312 315 317 320 320 318 316 314 312 311 308 307 304 303 304 305 296 291 291 293 288 292 291 290 292 293 290 294 297 293 290 286 287 286 284 289 288 287 285 284 282 281 285 287 286
311 311 311 311 313 316 320 318 316 313 312 310 308 306 304 303 304 299 295 294 296 297 288 289 292 291 293 293 290 291 296 293 289 285 286 284 288 288 286 286 283 284 282 282 282 285 287
311 311 311 311 311 313 316 318 316 313 311 309 307 305 304 303 299 296 295 300 297 298 283 284 288 292 293 293 289 296 297 294 290 286 287 286 289 287 286 285 286 281 286 284 283 282 278
311 310 309 310 310 310 312 316 316 313 310 308 306 303 303 304 295 294 297 300 297 293 273 286 287 296 294 290 291 292 297 293 288 289 288 286 287 287 286 287 287 284 287 286 285 283 282
310 309 309 308 308 309 311 314 314 311 309 307 305 303 303 300 296 297 300 301 296 281 273 283 288 287 287 289 290 292 292 295 294 289 288 288 292 290 288 290 289 290 287 287 286 283 276
308 309 309 308 307 308 310 312 314 310 308 306 304 303 302 300 294 299 300 296 281 275 284 281 282 286 285 285 287 288 287 288 285 282 282 286 288 290 291 287 289 288 285 279 277 278 276
308 308 308 308 307 307 310 311 311 308 307 305 304 303 301 299 298 299 297 286 275 280 280 286 285 285 282 285 285 286 284 283 289 286 282 280 279 286 290 288 286 286 285 279 273 275 278
307 308 308 307 307 307 308 310 311 307 305 304 303 296 296 298 299 299 290 280 279 281 284 284 284 281 281 284 284 284 283 283 287 288 280 279 280 290 291 293 291 286 283 288 282 283 279
306 307 306 305 305 306 307 309 308 306 304 302 294 292 292 298 300 295 286 282 282 286 287 286 280 282 279 281 281 282 282 286 285 290 290 284 279 287 290 293 292 289 291 283 284 276 275
305 305 305 304 303 305 306 309 308 305 303 300 291 286 295 299 299 290 282 282 285 289 290 285 282 281 282 280 281 281 282 285 288 288 288 286 282 284 289 288 287 287 286 287 287 284 279
303 302 303 303 304 305 306 309 306 304 301 297 289 284 295 298 287 286 282 285 290 288 290 288 287 284 282 280 281 278 280 284 289 288 283 288 286 279 284 290 294 291 288 288 281 280 284
301 302 303 304 306 305 307 307 304 302 301 294 287 287 296 296 281 281 286 286 287 286 287 287 285 286 283 280 276 280 281 288 289 286 287 289 284 280 282 287 287 286 288 289 288 287 283
304 308 310 310 307 306 307 304 303 301 302 297 289 283 288 290 288 286 284 284 284 288 287 287 285 286 283 281 283 279 281 286 288 287 291 292 286 282 277 280 284 280 283 287 288 281 277
310 310 308 307 306 308 305 303 301 302 303 296 289 285 289 281 284 286 287 285 283 283 286 286 284 284 282 278 280 280 283 284 286 289 290 289 283 285 285 285 284 282 281 283 281 283 278
309 309 308 308 307 304 303 301 301 302 302 292 286 286 288 286 287 286 286 284 283 282 283 282 283 283 283 281 282 279 282 283 282 286 285 290 283 285 283 286 285 280 281 282 283 282 280
305 305 305 304 303 302 301 300 301 303 299 290 290 291 289 287 285 284 283 284 284 285 286 285 285 284 282 284 286 286 287 287 286 284 283 284 283 283 280 285 283 278 279 280 281 282 283
301 302 302 302 301 301 301 300 301 302 298 293 291 291 286 281 284 284 285 286 284 284 284 285 286 284 286 289 289 288 286 286 286 286 287 284 283 284 282 283 274 281 284 284 280 281 283
298 298 300 301 301 300 299 300 301 301 299 293 291 290 287 282 284 284 285 284 285 286 285 285 286 287 289 288 284 283 284 284 285 287 286 287 285 282 280 279 280 281 281 281 281 278 282
298 299 299 298 298 299 300 301 301 300 298 293 290 291 290 285 283 287 284 285 282 281 282 285 288 290 289 286 284 279 277 280 281 284 290 288 288 283 282 277 274 278 282 286 286 277 282
298 298 298 298 298 298 299 300 301 300 299 294 290 291 291 284 286 287 283 283 284 282 281 283 285 286 287 282 280 279 279 283 279 279 280 281 282 279 279 277 277 281 284 288 277 277 282
297 297 297 299 300 300 301 301 301 300 298 293 290 291 291 286 287 290 290 285 284 283 280 283 283 283 282 279 279 279 280 281 281 283 282 279 278 277 279 276 274 284 285 280 282 285 283
297 298 299 300 301 301 301 300 300 299 299 295 289 291 292 288 287 290 290 291 289 287 286 284 284 285 284 281 281 281 280 282 281 279 286 279 281 279 278 277 283 286 283 285 288 285 284

GFSGBSN_sfc_thetae_120.txt.gz
Theta_e
325 325 324 323 323 322 321 320 318 317 316 315 313 310 309 307 307 307 307 307 308 309 310 311 311 311 307 297 295 306 312 313 305 303 300 299 297 296 293 294 295 293 295 295 296 296 296
325 324 323 323 322 323 322 320 318 317 316 314 313 310 308 307 306 307 306 307 308 309 310 311 311 310 301 293 303 309 309 304 303 302 300 299 297 298 295 294 293 295 295 295 296 296 297
325 324 323 322 322 322 321 319 318 318 316 314 313 310 308 307 306 306 306 307 308 309 310 311 309 305 299 296 306 308 306 304 304 302 299 300 300 297 297 294 296 295 292 295 296 296 294
319 321 323 322 321 320 320 319 318 318 316 314 312 311 309 307 305 305 306 307 308 309 310 309 309 305 295 304 308 307 305 303 304 304 302 302 301 298 295 297 295 292 293 289 294 295 295
316 317 319 321 321 320 319 319 318 318 317 315 313 311 308 306 305 305 306 307 310 310 310 309 305 303 294 306 301 302 303 300 302 302 302 300 299 296 296 292 291 291 287 288 290 294 293
312 314 316 317 317 320 320 319 317 317 316 314 313 310 308 306 305 305 306 306 311 310 308 307 306 299 298 295 299 300 303 302 299 299 298 297 297 293 293 291 285 286 287 289 289 293 293
312 312 313 313 315 317 321 319 317 316 315 314 312 310 307 305 304 305 305 306 299 296 299 295 294 294 294 299 300 299 301 300 299 297 294 295 292 290 291 291 291 289 288 287 291 294 291
312 312 312 312 312 313 315 319 318 316 315 313 311 309 307 305 304 305 303 296 296 299 291 297 295 295 297 298 295 297 301 297 296 293 293 293 290 292 292 291 290 290 288 288 291 292 291
310 311 312 311 311 311 312 314 315 316 315 313 311 309 306 304 304 300 301 298 301 302 294 293 296 295 296 297 294 295 299 297 294 292 292 290 292 292 292 291 289 290 288 288 287 291 294
309 310 311 312 311 311 311 312 313 316 314 312 310 308 306 305 299 299 298 302 302 303 289 290 292 294 297 297 292 299 301 298 295 291 292 292 294 291 291 290 292 287 291 289 288 288 285
309 310 310 311 311 310 310 310 311 314 315 311 309 307 304 305 298 296 299 302 302 301 279 290 290 300 297 293 294 295 301 297 292 293 292 291 291 291 290 291 291 289 293 290 290 289 289
309 309 310 311 310 309 308 309 310 312 313 310 308 306 304 300 299 299 303 302 302 285 278 286 291 290 291 292 293 295 296 299 298 293 294 293 297 294 293 294 294 294 292 292 292 289 283
308 308 309 309 309 309 308 307 308 310 313 310 307 305 302 301 297 301 305 299 283 281 288 284 286 289 289 288 290 291 291 292 291 286 287 291 292 295 295 291 295 292 290 285 283 283 282
307 308 308 308 308 309 309 308 308 310 312 310 306 304 301 302 302 303 303 289 279 287 285 288 288 288 286 288 288 289 289 288 292 289 287 285 285 292 294 292 290 291 290 284 276 280 283
307 307 307 307 308 309 309 307 308 309 310 307 304 299 298 300 302 303 293 281 284 288 289 287 287 284 285 287 288 288 288 288 290 290 282 284 284 293 293 295 294 290 287 292 285 287 282
307 307 307 307 307 308 308 307 307 308 309 305 297 294 294 300 303 297 288 283 287 289 290 289 284 286 283 285 285 286 286 290 289 291 292 288 282 290 292 295 296 293 294 285 287 278 278
306 306 306 306 306 306 307 307 306 307 306 304 294 287 293 301 301 291 282 285 288 291 291 287 286 284 285 284 286 286 286 289 291 290 291 290 285 287 292 290 289 290 289 289 288 287 281
305 305 305 305 305 306 307 306 306 307 305 299 292 284 293 300 286 287 285 288 291 290 292 290 290 288 286 286 285 286 286 288 292 290 288 290 288 284 287 294 293 292 290 289 284 283 287
304 304 304 304 304 305 305 306 305 306 303 296 289 285 294 296 281 283 288 288 289 289 288 289 287 289 288 286 283 286 287 291 292 289 290 292 287 283 287 291 292 287 287 288 288 288 284
304 304 303 303 303 304 304 305 305 306 304 300 288 281 286 288 292 287 287 285 285 290 289 290 288 289 287 285 287 284 286 289 291 289 290 293 288 285 282 282 285 283 284 287 288 285 282
302 302 301 302 303 304 304 304 304 305 304 300 291 287 289 282 284 288 289 287 285 284 289 290 287 287 286 282 284 284 286 287 288 291 292 292 283 287 287 287 287 284 283 284 283 285 282
301 300 303 306 309 309 307 304 304 304 305 299 286 288 291 290 287 287 289 286 285 287 288 286 285 288 288 284 284 283 286 286 285 290 288 292 285 286 284 288 288 282 283 285 285 284 282
299 303 308 308 309 309 307 304 305 303 305 298 294 297 292 287 286 288 288 288 287 288 286 289 289 287 286 287 289 290 291 289 289 287 286 288 285 284 282 287 286 282 281 282 283 285 285
300 307 306 306 308 307 305 304 303 304 305 298 295 295 291 284 288 287 288 289 288 288 285 288 290 288 290 293 293 292 290 289 289 289 291 286 284 284 284 285 278 282 287 286 283 283 285
300 306 306 306 305 304 303 303 304 304 301 297 296 295 293 285 288 287 288 288 288 290 287 288 289 291 294 291 285 285 287 288 289 291 291 291 285 284 282 283 281 282 284 284 283 280 284
298 303 303 302 302 302 302 302 301 300 299 295 294 301 296 288 286 290 288 289 285 285 287 287 292 295 293 288 286 281 280 283 283 286 292 290 290 285 285 280 277 282 285 287 287 279 285
298 300 302 302 301 301 302 301 300 300 299 298 294 298 296 287 289 292 287 287 290 288 286 287 289 289 292 287 284 283 282 287 282 282 283 285 284 282 282 281 280 283 286 288 279 279 286
299 298 299 300 300 300 301 301 300 300 299 299 293 296 297 290 290 292 292 288 289 290 285 288 287 287 287 285 284 284 284 286 285 286 284 283 281 281 282 280 276 286 286 282 284 287 287
297 298 299 299 300 301 300 300 299 300 298 300 294 295 302 295 291 295 293 294 293 292 290 290 289 289 289 287 287 288 285 287 286 281 288 282 285 283 281 280 285 286 285 288 289 286 286

GFSGBSN_sfc_thetae_123.txt.gz
Theta_e
327 326 325 324 323 323 323 322 320 318 317 317 316 313 311 309 309 309 309 309 309 309 310 311 312 313 311 301 300 309 315 315 308 305 302 301 300 299 297 298 299 297 298 299 299 299 299
326 325 324 323 323 323 323 322 320 318 317 317 315 313 311 309 309 309 308 308 308 309 310 312 312 311 306 296 307 311 308 306 305 305 303 303 300 301 298 298 297 299 298 298 299 299 300
319 324 324 323 322 322 322 321 320 318 317 317 315 313 311 309 308 308 307 307 308 309 310 312 311 309 303 300 309 310 307 306 307 305 302 304 303 300 301 298 301 298 295 298 299 299 297
317 318 319 321 322 321 320 320 320 319 317 317 315 313 312 309 308 307 306 307 308 310 311 310 311 308 299 307 310 307 308 306 307 307 305 305 304 301 299 301 298 296 297 293 298 299 298
314 315 315 318 317 320 320 320 319 319 318 316 315 313 311 309 307 306 306 307 309 311 311 311 308 306 298 305 303 305 306 302 305 306 305 303 302 300 300 295 294 297 291 293 294 299 297
312 312 314 314 316 317 318 319 319 318 318 316 315 313 310 309 307 306 307 306 312 309 310 309 307 301 302 299 303 303 306 305 302 303 301 300 300 297 297 295 289 290 290 292 292 297 297
312 313 312 313 313 314 316 317 319 318 317 316 314 312 310 307 306 305 305 308 305 303 303 300 299 299 298 302 303 302 304 303 303 301 296 299 294 293 296 295 294 293 292 291 295 298 294
309 310 311 312 312 312 313 314 315 317 316 316 314 312 309 307 305 304 307 301 300 298 293 302 299 298 300 301 297 300 304 299 299 295 298 295 293 297 295 295 294 294 292 292 295 296 295
309 309 309 310 311 311 312 312 313 314 316 315 313 311 309 306 305 303 300 299 302 304 294 299 300 298 298 300 296 298 302 300 297 295 296 293 296 296 293 294 293 294 292 293 291 294 295
309 309 310 310 310 312 312 311 312 312 314 314 312 310 307 305 299 301 298 301 303 306 291 296 294 297 298 299 294 302 303 300 297 294 296 295 298 294 293 293 295 290 296 293 291 291 287
308 309 309 311 311 311 311 311 311 311 312 314 312 309 305 305 302 298 302 304 304 303 280 297 294 303 300 295 297 297 303 300 295 296 295 294 294 293 293 294 295 292 296 294 294 292 292
307 308 309 310 310 311 311 310 309 310 311 312 311 308 305 301 301 303 305 305 302 284 278 289 294 292 293 295 295 298 298 301 301 296 297 296 300 296 296 297 297 298 295 296 296 294 286
307 308 308 309 309 310 311 310 308 308 310 312 310 306 302 305 300 305 305 300 282 280 292 289 289 292 292 291 293 293 293 294 293 289 291 295 295 297 298 294 298 296 293 286 284 285 284
307 307 308 308 309 309 309 310 309 308 309 311 308 305 303 304 305 307 302 289 278 291 292 292 291 291 289 292 292 292 291 292 294 292 289 288 287 294 298 294 292 293 292 286 278 281 284
306 307 307 307 308 308 308 309 309 308 308 310 307 301 299 301 305 304 292 281 286 293 296 290 290 288 288 290 291 291 291 291 294 293 288 288 287 296 296 297 296 293 289 295 288 289 285
305 306 306 307 307 308 307 308 309 308 308 307 299 296 295 302 304 298 288 285 288 295 292 292 285 289 286 288 287 289 289 293 292 294 294 291 285 293 295 297 298 295 296 287 289 280 280
305 305 305 306 306 307 307 307 308 307 308 305 297 291 297 303 299 289 283 288 293 295 295 290 288 288 288 289 289 288 289 292 293 293 294 293 287 290 293 293 291 293 291 291 291 288 282
303 304 305 305 306 306 307 307 307 307 306 303 295 287 299 301 285 287 287 291 295 293 294 292 293 291 290 290 288 290 288 291 295 293 290 294 290 286 290 296 296 293 291 291 284 284 286
303 303 304 305 305 306 306 306 306 306 305 298 291 286 297 296 285 285 289 291 293 290 291 291 290 291 292 288 285 288 289 293 293 292 292 293 289 285 288 292 294 290 291 290 289 288 284
301 303 303 304 305 305 305 306 306 306 305 301 288 282 286 286 293 292 287 290 288 294 292 292 290 291 288 287 289 286 289 292 293 292 292 294 290 287 285 287 289 284 287 288 287 283 286
301 302 302 303 304 304 305 305 305 306 305 300 291 289 292 281 284 290 292 291 287 286 292 292 289 288 287 284 285 285 289 290 292 292 292 294 286 287 290 289 289 286 282 286 284 287 283
301 301 303 304 304 304 304 304 305 305 305 297 288 294 295 293 290 290 291 290 288 289 289 288 287 288 288 284 285 284 288 289 288 293 293 293 286 287 285 290 289 284 284 286 285 285 283
301 303 302 302 302 302 303 303 304 304 304 296 299 302 296 292 289 287 291 291 290 292 291 291 289 288 287 288 292 293 294 293 291 292 290 290 287 285 283 289 288 283 283 285 285 287 287
301 302 302 302 302 302 302 303 303 304 304 302 302 301 295 290 291 289 291 292 291 291 287 290 293 289 292 296 295 293 291 290 291 291 292 288 286 287 284 287 278 283 291 290 287 287 288
300 300 301 301 303 305 306 307 304 303 305 304 302 299 296 292 291 290 291 291 291 292 290 291 293 295 297 292 286 284 285 287 288 292 292 293 288 284 283 283 282 283 287 287 286 284 287
299 301 304 305 305 305 306 307 308 304 305 303 302 304 300 295 291 294 292 292 289 289 289 291 294 297 295 289 285 281 280 284 284 287 293 291 291 286 285 280 279 284 287 291 290 281 288
300 302 302 304 304 305 305 306 306 304 305 302 299 307 302 295 297 296 291 290 292 290 287 289 290 290 294 287 284 283 284 288 284 283 284 285 286 283 284 283 283 285 287 290 280 282 288
300 301 301 301 302 303 303 303 303 303 303 302 298 305 300 294 294 295 295 292 292 292 286 290 288 289 288 285 285 286 286 287 287 289 287 285 284 284 285 281 279 287 287 283 287 289 289
298 300 301 301 301 301 301 301 301 301 302 305 296 301 301 294 292 297 297 297 297 297 293 294 291 290 290 288 289 289 287 289 287 282 290 284 288 286 285 282 286 287 288 290 290 288 288

GFSGBSN_sfc_thetae_126.txt.gz
Theta_e
327 327 326 325 324 323 324 323 321 320 319 318 318 316 314 312 311 310 310 311 310 310 310 312 313 314 311 304 301 308 318 315 309 306 303 302 299 300 296 298 299 296 298 300 300 299 299
321 325 325 324 324 323 324 323 321 320 318 318 317 316 315 312 311 310 309 310 310 309 310 312 313 313 308 297 308 311 308 307 307 305 304 303 301 301 297 297 297 299 299 298 299 299 300
319 319 321 324 323 323 323 322 321 320 318 318 317 316 315 312 311 310 309 309 309 309 310 312 313 309 303 300 309 309 308 306 307 306 302 305 304 300 300 297 301 299 294 297 299 300 298
315 316 317 318 320 321 321 321 320 320 319 318 317 315 314 313 311 309 308 308 309 309 312 313 312 307 299 308 310 307 309 306 308 307 306 306 305 301 298 301 298 295 296 292 298 300 300
314 313 313 316 317 317 319 320 320 320 319 318 317 315 313 311 310 309 308 308 308 310 313 312 308 308 300 307 302 307 306 303 305 306 306 306 303 298 299 295 293 296 290 293 294 300 298
313 312 312 313 314 315 317 318 319 319 319 318 317 315 312 310 308 307 307 307 309 311 311 310 307 299 304 300 304 304 306 305 302 303 302 300 298 295 296 294 287 290 290 291 291 296 297
310 311 313 312 312 312 313 315 315 317 317 317 316 315 312 309 306 304 303 305 303 305 304 301 302 300 302 304 304 302 305 303 303 300 294 300 294 291 295 297 295 293 291 290 294 298 295
309 309 309 310 311 312 312 313 313 314 317 317 316 314 312 309 306 304 303 298 299 299 294 304 305 305 304 303 297 301 305 297 298 294 298 296 291 296 298 295 293 292 291 291 295 298 295
309 309 308 308 309 310 311 312 312 312 314 316 315 313 310 307 304 301 300 301 304 303 293 301 306 305 303 301 296 297 302 299 296 294 295 293 295 299 295 294 291 292 291 292 291 294 295
308 309 309 308 309 310 311 312 311 311 312 314 314 312 309 305 299 304 301 306 305 308 292 298 300 300 302 299 295 301 304 300 297 293 295 294 298 296 295 292 293 289 296 294 292 290 285
309 309 308 310 310 311 311 312 311 310 311 312 313 310 306 306 305 302 303 306 306 306 281 298 296 304 300 295 297 297 303 300 293 294 295 291 294 293 291 292 296 292 296 294 293 290 290
308 308 308 309 309 310 311 311 310 309 310 311 312 310 305 303 302 302 305 305 307 291 281 294 296 294 294 295 296 298 298 301 301 295 296 295 299 297 295 296 297 297 294 294 294 292 285
307 308 308 308 309 310 310 311 310 309 308 310 311 309 305 304 297 304 306 300 286 282 296 292 292 293 292 292 292 294 293 293 290 288 289 293 293 296 298 293 297 295 291 284 282 284 283
307 308 307 308 308 309 309 310 310 309 308 309 310 306 306 305 304 305 302 290 281 291 292 296 294 293 289 291 292 293 291 289 295 293 289 286 286 294 298 294 292 293 291 284 277 279 283
306 307 307 307 308 308 309 309 309 310 308 309 306 302 300 303 306 305 295 285 286 291 296 295 296 290 289 291 292 292 291 290 293 295 287 288 287 297 298 297 295 292 289 294 287 288 284
304 306 306 306 307 307 308 308 308 309 308 306 300 298 296 305 307 300 289 286 290 297 298 296 289 291 287 289 288 289 289 293 292 296 295 292 285 293 295 296 296 293 296 287 289 279 278
304 304 305 305 305 306 307 308 308 309 308 306 298 292 298 304 302 292 283 288 293 297 298 293 290 288 289 288 290 287 288 293 294 294 294 293 288 289 293 291 289 292 290 291 290 288 281
303 303 303 303 305 305 306 307 307 308 307 303 297 288 299 301 286 288 287 291 295 295 298 296 294 292 289 290 289 287 286 290 296 295 290 293 290 284 289 296 297 294 291 290 283 282 286
302 302 303 304 304 305 306 306 306 307 306 299 292 288 298 298 283 285 290 290 293 293 294 293 291 292 293 290 285 291 291 295 295 292 291 293 287 282 287 291 294 291 292 290 289 287 282
302 301 302 303 303 304 305 305 305 306 306 302 289 283 286 290 292 290 289 289 288 295 294 295 292 293 290 287 290 287 289 293 294 292 294 294 289 286 282 286 290 287 288 289 287 282 284
301 301 302 302 302 303 304 305 305 305 306 300 293 288 291 281 283 287 291 290 287 288 294 295 291 291 289 285 287 286 289 291 292 294 290 291 285 288 289 290 290 288 286 287 284 286 283
300 300 300 301 302 302 303 304 305 305 305 297 287 291 294 290 290 286 289 290 289 290 292 290 289 291 291 286 287 285 288 289 287 291 289 292 286 286 284 289 290 287 286 285 287 285 284
300 300 300 301 301 302 303 303 304 304 304 295 297 299 296 292 290 287 286 290 291 293 294 294 293 291 288 289 291 293 294 294 292 290 289 291 288 285 282 290 288 283 285 285 287 288 287
300 300 300 301 301 302 302 303 303 304 304 301 298 299 293 288 291 289 290 291 292 293 291 294 294 290 292 297 295 293 292 291 291 291 293 289 288 286 283 287 278 284 291 290 288 288 288
299 299 300 301 302 302 302 303 303 303 304 301 301 299 296 289 292 291 291 291 293 295 293 293 293 295 298 293 286 282 283 284 285 289 289 290 289 283 281 282 283 285 288 288 286 285 289
299 299 300 301 301 301 301 302 302 303 304 303 300 305 299 292 291 294 291 292 291 291 289 291 296 299 296 289 285 279 278 282 281 284 289 290 292 286 284 279 277 284 290 292 291 282 290
298 299 300 300 300 301 301 301 302 303 303 302 300 304 300 292 296 297 292 292 296 293 289 292 291 292 296 287 282 281 282 288 282 283 284 285 286 282 283 280 282 287 288 291 280 282 290
298 299 300 302 303 304 304 303 301 302 303 301 299 305 302 295 298 300 299 295 295 294 288 290 289 290 289 285 283 284 285 288 287 289 286 285 283 283 284 281 278 288 287 283 287 290 290
297 298 301 301 302 303 304 304 304 303 303 303 297 303 305 300 294 302 302 304 301 299 293 292 291 289 290 287 288 289 287 291 287 284 292 284 288 285 283 281 286 287 289 291 291 289 288